Time,TemperatureF,DewpointF,PressureIn,WindDirection,WindDirectionDegrees,WindSpeedMPH,WindSpeedGustMPH,Humidity,HourlyPrecipIn,Conditions,Clouds,dailyrainin,SoftwareType,DateUTC
2014-02-23 00:00:00,20.0,14.8,29.89,West,268,0.0,21.0,80,0.00,,,0.00,VWS V14.01,2014-02-23 05:00:00,
2014-02-23 00:01:00,19.9,14.4,29.89,West,275,0.0,21.0,79,0.00,,,0.00,VWS V14.01,2014-02-23 05:01:00,
2014-02-23 00:02:00,19.9,14.4,29.89,West,261,0.0,21.0,79,0.00,,,0.00,VWS V14.01,2014-02-23 05:02:00,
2014-02-23 00:03:00,19.9,14.4,29.89,West,261,0.0,21.0,79,0.00,,,0.00,VWS V14.01,2014-02-23 05:03:00,
2014-02-23 00:04:00,19.9,14.7,29.89,WSW,248,7.0,21.0,80,0.00,,,0.00,VWS V14.01,2014-02-23 05:04:00,
2014-02-23 00:05:00,19.9,14.7,29.89,West,264,0.0,21.0,80,0.00,,,0.00,VWS V14.01,2014-02-23 05:05:00,
2014-02-23 00:06:00,19.9,14.4,29.89,WSW,255,0.0,21.0,79,0.00,,,0.00,VWS V14.01,2014-02-23 05:06:00,
2014-02-23 00:07:00,19.8,14.4,29.89,NW,317,2.0,21.0,79,0.00,,,0.00,VWS V14.01,2014-02-23 05:07:00,
2014-02-23 00:08:00,19.8,14.4,29.89,WNW,291,2.0,21.0,79,0.00,,,0.00,VWS V14.01,2014-02-23 05:08:00,
2014-02-23 00:09:00,19.8,14.4,29.89,SW,216,0.0,21.0,79,0.00,,,0.00,VWS V14.01,2014-02-23 05:09:00,
2014-02-23 00:10:00,19.8,14.4,29.89,West,277,0.0,21.0,79,0.00,,,0.00,VWS V14.01,2014-02-23 05:10:00,
2014-02-23 00:11:00,19.8,14.4,29.89,SSW,206,4.0,21.0,79,0.00,,,0.00,VWS V14.01,2014-02-23 05:11:00,
2014-02-23 00:12:00,19.8,14.4,29.89,SSW,206,4.0,21.0,79,0.00,,,0.00,VWS V14.01,2014-02-23 05:12:00,
2014-02-23 00:14:00,19.7,14.3,29.89,WSW,238,1.0,21.0,79,0.00,,,0.00,VWS V14.01,2014-02-23 05:14:00,
2014-02-23 00:15:00,19.7,14.3,29.89,WSW,256,4.0,21.0,79,0.00,,,0.00,VWS V14.01,2014-02-23 05:15:00,
2014-02-23 00:16:00,19.7,14.5,29.89,SSW,202,0.0,21.0,80,0.00,,,0.00,VWS V14.01,2014-02-23 05:16:00,
2014-02-23 00:17:00,19.7,14.5,29.89,NW,306,4.0,21.0,80,0.00,,,0.00,VWS V14.01,2014-02-23 05:17:00,
2014-02-23 00:18:00,19.7,14.5,29.89,SW,222,15.0,21.0,80,0.00,,,0.00,VWS V14.01,2014-02-23 05:18:00,
2014-02-23 00:19:00,19.7,14.3,29.89,WNW,284,1.0,21.0,79,0.00,,,0.00,VWS V14.01,2014-02-23 05:19:00,
2014-02-23 00:20:00,19.7,14.3,29.89,SW,234,3.0,21.0,79,0.00,,,0.00,VWS V14.01,2014-02-23 05:20:00,
2014-02-23 00:21:00,19.6,14.2,29.89,WSW,248,15.0,21.0,79,0.00,,,0.00,VWS V14.01,2014-02-23 05:21:00,
2014-02-23 00:22:00,19.6,14.2,29.89,WSW,243,0.0,21.0,79,0.00,,,0.00,VWS V14.01,2014-02-23 05:22:00,
2014-02-23 00:23:00,19.6,14.2,29.89,NW,309,0.0,21.0,79,0.00,,,0.00,VWS V14.01,2014-02-23 05:23:00,
2014-02-23 00:24:00,19.5,14.4,29.89,WSW,250,1.0,21.0,80,0.00,,,0.00,VWS V14.01,2014-02-23 05:24:00,
2014-02-23 00:25:00,19.6,14.4,29.89,SW,220,3.0,21.0,80,0.00,,,0.00,VWS V14.01,2014-02-23 05:25:00,
2014-02-23 00:26:00,19.6,14.2,29.89,WSW,257,3.0,21.0,79,0.00,,,0.00,VWS V14.01,2014-02-23 05:26:00,
2014-02-23 00:27:00,19.5,13.8,29.89,South,182,5.0,21.0,78,0.00,,,0.00,VWS V14.01,2014-02-23 05:27:00,
2014-02-23 00:28:00,19.5,14.1,29.89,WSW,238,1.0,21.0,79,0.00,,,0.00,VWS V14.01,2014-02-23 05:28:00,
2014-02-23 00:29:00,19.5,13.8,29.89,SW,216,3.0,21.0,78,0.00,,,0.00,VWS V14.01,2014-02-23 05:29:00,
2014-02-23 00:30:00,19.5,14.1,29.90,NNE,29,0.0,21.0,79,0.00,,,0.00,VWS V14.01,2014-02-23 05:30:00,
2014-02-23 00:31:00,19.5,13.8,29.90,West,268,3.0,21.0,78,0.00,,,0.00,VWS V14.01,2014-02-23 05:31:00,
2014-02-23 00:32:00,19.4,14.0,29.89,West,271,0.0,21.0,79,0.00,,,0.00,VWS V14.01,2014-02-23 05:32:00,
2014-02-23 00:33:00,19.4,14.0,29.90,SSE,157,0.0,21.0,79,0.00,,,0.00,VWS V14.01,2014-02-23 05:33:00,
2014-02-23 00:34:00,19.4,14.0,29.90,SW,217,0.0,21.0,79,0.00,,,0.00,VWS V14.01,2014-02-23 05:34:00,
2014-02-23 00:35:00,19.4,14.0,29.90,SW,234,1.0,21.0,79,0.00,,,0.00,VWS V14.01,2014-02-23 05:35:00,
2014-02-23 00:36:00,19.4,14.0,29.90,SW,236,5.0,21.0,79,0.00,,,0.00,VWS V14.01,2014-02-23 05:36:00,
2014-02-23 00:37:00,19.4,14.0,29.90,WSW,240,5.0,21.0,79,0.00,,,0.00,VWS V14.01,2014-02-23 05:37:00,
2014-02-23 00:38:00,19.4,14.0,29.90,WNW,284,4.0,21.0,79,0.00,,,0.00,VWS V14.01,2014-02-23 05:38:00,
2014-02-23 00:39:00,19.4,14.0,29.90,WSW,252,2.0,21.0,79,0.00,,,0.00,VWS V14.01,2014-02-23 05:39:00,
2014-02-23 00:40:00,19.4,14.0,29.90,NW,311,0.0,21.0,79,0.00,,,0.00,VWS V14.01,2014-02-23 05:40:00,
2014-02-23 00:41:00,19.4,14.2,29.90,WSW,238,4.0,21.0,80,0.00,,,0.00,VWS V14.01,2014-02-23 05:41:00,
2014-02-23 00:42:00,19.3,13.9,29.90,NW,323,0.0,21.0,79,0.00,,,0.00,VWS V14.01,2014-02-23 05:42:00,
2014-02-23 00:43:00,19.3,13.9,29.90,SW,225,5.0,21.0,79,0.00,,,0.00,VWS V14.01,2014-02-23 05:43:00,
2014-02-23 00:44:00,19.3,13.9,29.90,SW,225,5.0,21.0,79,0.00,,,0.00,VWS V14.01,2014-02-23 05:44:00,
2014-02-23 00:45:00,19.3,14.1,29.90,West,273,0.0,21.0,80,0.00,,,0.00,VWS V14.01,2014-02-23 05:45:00,
2014-02-23 00:46:00,19.3,14.1,29.90,WSW,238,9.0,21.0,80,0.00,,,0.00,VWS V14.01,2014-02-23 05:46:00,
2014-02-23 00:47:00,19.3,14.1,29.90,WSW,257,1.0,21.0,80,0.00,,,0.00,VWS V14.01,2014-02-23 05:47:00,
2014-02-23 00:48:00,19.3,14.1,29.90,WSW,243,0.0,21.0,80,0.00,,,0.00,VWS V14.01,2014-02-23 05:48:00,
2014-02-23 00:49:00,19.3,14.1,29.90,WSW,243,0.0,21.0,80,0.00,,,0.00,VWS V14.01,2014-02-23 05:49:00,
2014-02-23 00:50:00,19.3,14.1,29.90,WSW,242,0.0,21.0,80,0.00,,,0.00,VWS V14.01,2014-02-23 05:50:00,
2014-02-23 00:51:00,19.2,14.1,29.90,West,261,10.0,21.0,80,0.00,,,0.00,VWS V14.01,2014-02-23 05:51:00,
2014-02-23 00:52:00,19.2,14.1,29.90,West,268,1.0,21.0,80,0.00,,,0.00,VWS V14.01,2014-02-23 05:52:00,
2014-02-23 00:53:00,19.2,13.8,29.90,SW,215,0.0,21.0,79,0.00,,,0.00,VWS V14.01,2014-02-23 05:53:00,
2014-02-23 00:54:00,19.2,13.8,29.90,SW,215,0.0,21.0,79,0.00,,,0.00,VWS V14.01,2014-02-23 05:54:00,
2014-02-23 00:55:00,19.2,13.8,29.90,West,275,0.0,21.0,79,0.00,,,0.00,VWS V14.01,2014-02-23 05:55:00,
2014-02-23 00:56:00,19.2,14.1,29.90,WSW,243,9.0,21.0,80,0.00,,,0.00,VWS V14.01,2014-02-23 05:56:00,
2014-02-23 00:57:00,19.2,13.8,29.90,West,261,0.0,21.0,79,0.00,,,0.00,VWS V14.01,2014-02-23 05:57:00,
2014-02-23 00:58:00,19.2,14.1,29.90,WSW,258,4.0,21.0,80,0.00,,,0.00,VWS V14.01,2014-02-23 05:58:00,
2014-02-23 00:59:00,19.2,14.1,29.90,WSW,258,4.0,21.0,80,0.00,,,0.00,VWS V14.01,2014-02-23 05:59:00,
2014-02-23 01:00:00,19.2,14.1,29.90,WSW,254,0.0,21.0,80,0.00,,,0.00,VWS V14.01,2014-02-23 06:00:00,
2014-02-23 01:01:00,19.2,13.8,29.90,West,273,0.0,21.0,79,0.00,,,0.00,VWS V14.01,2014-02-23 06:01:00,
2014-02-23 01:02:00,19.2,14.1,29.90,SSW,202,0.0,21.0,80,0.00,,,0.00,VWS V14.01,2014-02-23 06:02:00,
2014-02-23 01:03:00,19.1,14.0,29.90,SW,231,1.0,21.0,80,0.00,,,0.00,VWS V14.01,2014-02-23 06:03:00,
2014-02-23 01:04:00,19.1,14.0,29.90,WSW,241,0.0,21.0,80,0.00,,,0.00,VWS V14.01,2014-02-23 06:04:00,
2014-02-23 01:05:00,19.1,13.7,29.90,WSW,250,0.0,21.0,79,0.00,,,0.00,VWS V14.01,2014-02-23 06:05:00,
2014-02-23 01:06:00,19.1,14.0,29.90,West,271,9.0,21.0,80,0.00,,,0.00,VWS V14.01,2014-02-23 06:06:00,
2014-02-23 01:07:00,19.1,14.0,29.90,West,263,0.0,21.0,80,0.00,,,0.00,VWS V14.01,2014-02-23 06:07:00,
2014-02-23 01:08:00,19.1,14.0,29.90,SW,215,0.0,21.0,80,0.00,,,0.00,VWS V14.01,2014-02-23 06:08:00,
2014-02-23 01:09:00,19.1,14.0,29.90,West,273,0.0,21.0,80,0.00,,,0.00,VWS V14.01,2014-02-23 06:09:00,
2014-02-23 01:10:00,19.1,14.0,29.90,WSW,245,2.0,21.0,80,0.00,,,0.00,VWS V14.01,2014-02-23 06:10:00,
2014-02-23 01:11:00,19.1,14.0,29.90,SSW,196,4.0,21.0,80,0.00,,,0.00,VWS V14.01,2014-02-23 06:11:00,
2014-02-23 01:12:00,19.0,13.9,29.90,West,269,8.0,21.0,80,0.00,,,0.00,VWS V14.01,2014-02-23 06:12:00,
2014-02-23 01:13:00,19.0,13.9,29.90,SW,227,0.0,21.0,80,0.00,,,0.00,VWS V14.01,2014-02-23 06:13:00,
2014-02-23 01:14:00,19.0,13.9,29.90,West,268,0.0,21.0,80,0.00,,,0.00,VWS V14.01,2014-02-23 06:14:00,
2014-02-23 01:15:00,19.0,13.9,29.90,SSW,211,6.0,21.0,80,0.00,,,0.00,VWS V14.01,2014-02-23 06:15:00,
2014-02-23 01:16:00,19.0,13.9,29.90,WSW,244,3.0,21.0,80,0.00,,,0.00,VWS V14.01,2014-02-23 06:16:00,
2014-02-23 01:17:00,19.0,13.6,29.90,SW,224,0.0,21.0,79,0.00,,,0.00,VWS V14.01,2014-02-23 06:17:00,
2014-02-23 01:18:00,19.0,13.9,29.90,West,270,0.0,21.0,80,0.00,,,0.00,VWS V14.01,2014-02-23 06:18:00,
2014-02-23 01:19:00,18.9,13.8,29.90,SW,232,0.0,21.0,80,0.00,,,0.00,VWS V14.01,2014-02-23 06:19:00,
2014-02-23 01:20:00,19.0,13.9,29.90,NW,316,0.0,21.0,80,0.00,,,0.00,VWS V14.01,2014-02-23 06:20:00,
2014-02-23 01:21:00,18.9,13.8,29.90,SW,217,2.0,21.0,80,0.00,,,0.00,VWS V14.01,2014-02-23 06:21:00,
2014-02-23 01:22:00,18.9,13.5,29.90,SW,216,0.0,21.0,79,0.00,,,0.00,VWS V14.01,2014-02-23 06:22:00,
2014-02-23 01:23:00,18.9,13.5,29.90,West,268,3.0,21.0,79,0.00,,,0.00,VWS V14.01,2014-02-23 06:23:00,
2014-02-23 01:24:00,18.9,13.5,29.90,WSW,252,2.0,21.0,79,0.00,,,0.00,VWS V14.01,2014-02-23 06:24:00,
2014-02-23 01:25:00,18.9,13.5,29.90,WSW,241,0.0,21.0,79,0.00,,,0.00,VWS V14.01,2014-02-23 06:25:00,
2014-02-23 01:26:00,18.9,13.8,29.90,SSW,211,0.0,21.0,80,0.00,,,0.00,VWS V14.01,2014-02-23 06:26:00,
2014-02-23 01:27:00,18.8,13.7,29.90,WSW,248,3.0,21.0,80,0.00,,,0.00,VWS V14.01,2014-02-23 06:27:00,
2014-02-23 01:28:00,18.8,13.7,29.90,West,279,1.0,21.0,80,0.00,,,0.00,VWS V14.01,2014-02-23 06:28:00,
2014-02-23 01:29:00,18.8,13.7,29.90,WNW,284,6.0,21.0,80,0.00,,,0.00,VWS V14.01,2014-02-23 06:29:00,
2014-02-23 01:30:00,18.8,13.7,29.90,West,259,0.0,21.0,80,0.00,,,0.00,VWS V14.01,2014-02-23 06:30:00,
2014-02-23 01:31:00,18.8,13.7,29.90,WSW,250,9.0,21.0,80,0.00,,,0.00,VWS V14.01,2014-02-23 06:31:00,
2014-02-23 01:32:00,18.8,13.7,29.90,WNW,283,6.0,21.0,80,0.00,,,0.00,VWS V14.01,2014-02-23 06:32:00,
2014-02-23 01:33:00,18.7,13.6,29.90,SSW,205,2.0,21.0,80,0.00,,,0.00,VWS V14.01,2014-02-23 06:33:00,
2014-02-23 01:34:00,18.8,13.7,29.90,West,273,1.0,21.0,80,0.00,,,0.00,VWS V14.01,2014-02-23 06:34:00,
2014-02-23 01:35:00,18.8,13.4,29.90,WSW,244,11.0,21.0,79,0.00,,,0.00,VWS V14.01,2014-02-23 06:35:00,
2014-02-23 01:36:00,18.7,13.3,29.90,West,272,2.0,21.0,79,0.00,,,0.00,VWS V14.01,2014-02-23 06:36:00,
2014-02-23 01:37:00,18.7,13.3,29.90,SW,215,0.0,21.0,79,0.00,,,0.00,VWS V14.01,2014-02-23 06:37:00,
2014-02-23 01:38:00,18.7,13.9,29.90,SSW,207,0.0,21.0,81,0.00,,,0.00,VWS V14.01,2014-02-23 06:38:00,
2014-02-23 01:39:00,18.7,13.9,29.90,SW,224,0.0,21.0,81,0.00,,,0.00,VWS V14.01,2014-02-23 06:39:00,
2014-02-23 01:40:00,18.7,13.9,29.90,SW,226,1.0,21.0,81,0.00,,,0.00,VWS V14.01,2014-02-23 06:40:00,
2014-02-23 01:41:00,18.7,13.6,29.90,WSW,238,4.0,21.0,80,0.00,,,0.00,VWS V14.01,2014-02-23 06:41:00,
2014-02-23 01:42:00,18.7,13.6,29.90,SW,227,10.0,21.0,80,0.00,,,0.00,VWS V14.01,2014-02-23 06:42:00,
2014-02-23 01:43:00,18.6,13.5,29.90,WNW,302,0.0,21.0,80,0.00,,,0.00,VWS V14.01,2014-02-23 06:43:00,
2014-02-23 01:44:00,18.6,13.5,29.90,West,280,0.0,21.0,80,0.00,,,0.00,VWS V14.01,2014-02-23 06:44:00,
2014-02-23 01:45:00,18.6,13.5,29.90,SW,229,0.0,21.0,80,0.00,,,0.00,VWS V14.01,2014-02-23 06:45:00,
2014-02-23 01:46:00,18.6,13.5,29.90,SW,221,8.0,21.0,80,0.00,,,0.00,VWS V14.01,2014-02-23 06:46:00,
2014-02-23 01:47:00,18.6,13.5,29.90,SW,216,4.0,21.0,80,0.00,,,0.00,VWS V14.01,2014-02-23 06:47:00,
2014-02-23 01:48:00,18.6,13.5,29.90,SW,232,3.0,21.0,80,0.00,,,0.00,VWS V14.01,2014-02-23 06:48:00,
2014-02-23 01:49:00,18.5,13.4,29.90,WSW,238,0.0,21.0,80,0.00,,,0.00,VWS V14.01,2014-02-23 06:49:00,
2014-02-23 01:50:00,18.5,13.4,29.90,WSW,248,0.0,21.0,80,0.00,,,0.00,VWS V14.01,2014-02-23 06:50:00,
2014-02-23 01:51:00,18.5,13.4,29.90,WNW,295,0.0,21.0,80,0.00,,,0.00,VWS V14.01,2014-02-23 06:51:00,
2014-02-23 01:52:00,18.5,13.6,29.90,West,275,4.0,21.0,81,0.00,,,0.00,VWS V14.01,2014-02-23 06:52:00,
2014-02-23 01:53:00,18.5,13.6,29.91,SW,234,2.0,21.0,81,0.00,,,0.00,VWS V14.01,2014-02-23 06:53:00,
2014-02-23 01:54:00,18.5,13.4,29.90,WSW,240,0.0,21.0,80,0.00,,,0.00,VWS V14.01,2014-02-23 06:54:00,
2014-02-23 01:55:00,18.5,13.4,29.90,WSW,240,0.0,21.0,80,0.00,,,0.00,VWS V14.01,2014-02-23 06:55:00,
2014-02-23 01:56:00,18.5,13.6,29.90,West,259,11.0,21.0,81,0.00,,,0.00,VWS V14.01,2014-02-23 06:56:00,
2014-02-23 01:57:00,18.5,13.6,29.91,SW,225,0.0,21.0,81,0.00,,,0.00,VWS V14.01,2014-02-23 06:57:00,
2014-02-23 01:58:00,18.5,13.6,29.90,WNW,300,3.0,21.0,81,0.00,,,0.00,VWS V14.01,2014-02-23 06:58:00,
2014-02-23 01:59:00,18.4,13.6,29.90,WSW,250,7.0,21.0,81,0.00,,,0.00,VWS V14.01,2014-02-23 06:59:00,
2014-02-23 02:00:00,18.4,13.6,29.90,WSW,250,7.0,21.0,81,0.00,,,0.00,VWS V14.01,2014-02-23 07:00:00,
2014-02-23 02:01:00,18.4,13.6,29.91,WSW,243,3.0,21.0,81,0.00,,,0.00,VWS V14.01,2014-02-23 07:01:00,
2014-02-23 02:02:00,18.4,13.6,29.90,SW,219,4.0,21.0,81,0.00,,,0.00,VWS V14.01,2014-02-23 07:02:00,
2014-02-23 02:03:00,18.4,13.6,29.90,SSW,192,0.0,21.0,81,0.00,,,0.00,VWS V14.01,2014-02-23 07:03:00,
2014-02-23 02:04:00,18.4,13.6,29.90,West,281,3.0,21.0,81,0.00,,,0.00,VWS V14.01,2014-02-23 07:04:00,
2014-02-23 02:05:00,18.4,13.6,29.90,WSW,237,4.0,21.0,81,0.00,,,0.00,VWS V14.01,2014-02-23 07:05:00,
2014-02-23 02:06:00,18.4,13.6,29.90,SW,235,0.0,21.0,81,0.00,,,0.00,VWS V14.01,2014-02-23 07:06:00,
2014-02-23 02:07:00,18.3,13.5,29.91,SW,225,3.0,21.0,81,0.00,,,0.00,VWS V14.01,2014-02-23 07:07:00,
2014-02-23 02:08:00,18.3,13.5,29.91,WSW,237,0.0,21.0,81,0.00,,,0.00,VWS V14.01,2014-02-23 07:08:00,
2014-02-23 02:09:00,18.3,13.5,29.90,SW,221,0.0,21.0,81,0.00,,,0.00,VWS V14.01,2014-02-23 07:09:00,
2014-02-23 02:10:00,18.3,13.5,29.91,SW,221,0.0,21.0,81,0.00,,,0.00,VWS V14.01,2014-02-23 07:10:00,
2014-02-23 02:11:00,18.3,13.5,29.90,SW,235,0.0,21.0,81,0.00,,,0.00,VWS V14.01,2014-02-23 07:11:00,
2014-02-23 02:12:00,18.3,13.5,29.91,WSW,240,0.0,21.0,81,0.00,,,0.00,VWS V14.01,2014-02-23 07:12:00,
2014-02-23 02:13:00,18.3,13.5,29.91,West,264,0.0,21.0,81,0.00,,,0.00,VWS V14.01,2014-02-23 07:13:00,
2014-02-23 02:14:00,18.3,13.5,29.91,WSW,254,14.0,21.0,81,0.00,,,0.00,VWS V14.01,2014-02-23 07:14:00,
2014-02-23 02:15:00,18.3,13.5,29.91,WSW,244,0.0,21.0,81,0.00,,,0.00,VWS V14.01,2014-02-23 07:15:00,
2014-02-23 02:16:00,18.3,13.5,29.91,SW,224,6.0,21.0,81,0.00,,,0.00,VWS V14.01,2014-02-23 07:16:00,
2014-02-23 02:17:00,18.3,13.5,29.91,SSW,200,6.0,21.0,81,0.00,,,0.00,VWS V14.01,2014-02-23 07:17:00,
2014-02-23 02:18:00,18.3,13.5,29.91,West,269,0.0,21.0,81,0.00,,,0.00,VWS V14.01,2014-02-23 07:18:00,
2014-02-23 02:19:00,18.3,13.5,29.91,SW,215,0.0,21.0,81,0.00,,,0.00,VWS V14.01,2014-02-23 07:19:00,
2014-02-23 02:20:00,18.3,13.5,29.91,West,271,1.0,21.0,81,0.00,,,0.00,VWS V14.01,2014-02-23 07:20:00,
2014-02-23 02:21:00,18.3,13.5,29.91,West,267,0.0,21.0,81,0.00,,,0.00,VWS V14.01,2014-02-23 07:21:00,
2014-02-23 02:22:00,18.3,13.5,29.91,WNW,296,0.0,21.0,81,0.00,,,0.00,VWS V14.01,2014-02-23 07:22:00,
2014-02-23 02:23:00,18.3,13.5,29.91,SW,221,0.0,21.0,81,0.00,,,0.00,VWS V14.01,2014-02-23 07:23:00,
2014-02-23 02:24:00,18.3,13.5,29.91,SW,221,2.0,21.0,81,0.00,,,0.00,VWS V14.01,2014-02-23 07:24:00,
2014-02-23 02:25:00,18.2,13.6,29.91,SW,220,0.0,21.0,82,0.00,,,0.00,VWS V14.01,2014-02-23 07:25:00,
2014-02-23 02:26:00,18.3,13.5,29.91,SW,215,1.0,21.0,81,0.00,,,0.00,VWS V14.01,2014-02-23 07:26:00,
2014-02-23 02:27:00,18.2,13.4,29.91,West,268,2.0,21.0,81,0.00,,,0.00,VWS V14.01,2014-02-23 07:27:00,
2014-02-23 02:28:00,18.2,13.4,29.91,SW,230,2.0,21.0,81,0.00,,,0.00,VWS V14.01,2014-02-23 07:28:00,
2014-02-23 02:29:00,18.3,13.5,29.91,SW,234,18.0,21.0,81,0.00,,,0.00,VWS V14.01,2014-02-23 07:29:00,
2014-02-23 02:30:00,18.2,13.4,29.91,South,186,2.0,21.0,81,0.00,,,0.00,VWS V14.01,2014-02-23 07:30:00,
2014-02-23 02:31:00,18.2,13.4,29.91,WSW,258,6.0,21.0,81,0.00,,,0.00,VWS V14.01,2014-02-23 07:31:00,
2014-02-23 02:32:00,18.2,13.4,29.91,West,266,7.0,21.0,81,0.00,,,0.00,VWS V14.01,2014-02-23 07:32:00,
2014-02-23 02:33:00,18.2,13.4,29.91,SW,229,1.0,21.0,81,0.00,,,0.00,VWS V14.01,2014-02-23 07:33:00,
2014-02-23 02:34:00,18.2,13.6,29.91,West,267,0.0,21.0,82,0.00,,,0.00,VWS V14.01,2014-02-23 07:34:00,
2014-02-23 02:35:00,18.2,13.4,29.91,SSW,208,0.0,21.0,81,0.00,,,0.00,VWS V14.01,2014-02-23 07:35:00,
2014-02-23 02:36:00,18.2,13.6,29.91,West,273,0.0,21.0,82,0.00,,,0.00,VWS V14.01,2014-02-23 07:36:00,
2014-02-23 02:37:00,18.2,13.6,29.91,WSW,242,0.0,21.0,82,0.00,,,0.00,VWS V14.01,2014-02-23 07:37:00,
2014-02-23 02:38:00,18.2,13.6,29.91,SW,219,6.0,21.0,82,0.00,,,0.00,VWS V14.01,2014-02-23 07:38:00,
2014-02-23 02:39:00,18.1,13.3,29.91,WNW,290,0.0,21.0,81,0.00,,,0.00,VWS V14.01,2014-02-23 07:39:00,
2014-02-23 02:40:00,18.1,13.3,29.91,WSW,252,0.0,21.0,81,0.00,,,0.00,VWS V14.01,2014-02-23 07:40:00,
2014-02-23 02:41:00,18.1,13.3,29.91,SSW,205,0.0,21.0,81,0.00,,,0.00,VWS V14.01,2014-02-23 07:41:00,
2014-02-23 02:42:00,18.1,13.3,29.91,SW,226,3.0,21.0,81,0.00,,,0.00,VWS V14.01,2014-02-23 07:42:00,
2014-02-23 02:43:00,18.1,13.3,29.91,SSW,192,11.0,21.0,81,0.00,,,0.00,VWS V14.01,2014-02-23 07:43:00,
2014-02-23 02:44:00,18.1,13.3,29.91,SSW,205,0.0,21.0,81,0.00,,,0.00,VWS V14.01,2014-02-23 07:44:00,
2014-02-23 02:45:00,18.0,13.2,29.91,WSW,252,4.0,21.0,81,0.00,,,0.00,VWS V14.01,2014-02-23 07:45:00,
2014-02-23 02:46:00,18.0,13.2,29.91,SSW,209,5.0,21.0,81,0.00,,,0.00,VWS V14.01,2014-02-23 07:46:00,
2014-02-23 02:47:00,18.0,13.2,29.91,SW,221,8.0,21.0,81,0.00,,,0.00,VWS V14.01,2014-02-23 07:47:00,
2014-02-23 02:48:00,18.0,13.2,29.91,SW,236,3.0,21.0,81,0.00,,,0.00,VWS V14.01,2014-02-23 07:48:00,
2014-02-23 02:49:00,18.0,13.2,29.91,SW,225,4.0,21.0,81,0.00,,,0.00,VWS V14.01,2014-02-23 07:49:00,
2014-02-23 02:50:00,18.0,13.2,29.91,West,279,10.0,21.0,81,0.00,,,0.00,VWS V14.01,2014-02-23 07:50:00,
2014-02-23 02:51:00,18.0,13.2,29.91,West,279,10.0,21.0,81,0.00,,,0.00,VWS V14.01,2014-02-23 07:51:00,
2014-02-23 02:52:00,17.9,13.1,29.91,WSW,238,0.0,21.0,81,0.00,,,0.00,VWS V14.01,2014-02-23 07:52:00,
2014-02-23 02:53:00,17.9,13.1,29.91,SSW,201,6.0,21.0,81,0.00,,,0.00,VWS V14.01,2014-02-23 07:53:00,
2014-02-23 02:54:00,17.9,13.1,29.91,NW,307,2.0,21.0,81,0.00,,,0.00,VWS V14.01,2014-02-23 07:54:00,
2014-02-23 02:55:00,17.9,13.1,29.91,SW,227,5.0,21.0,81,0.00,,,0.00,VWS V14.01,2014-02-23 07:55:00,
2014-02-23 02:56:00,17.9,13.1,29.91,SW,227,5.0,21.0,81,0.00,,,0.00,VWS V14.01,2014-02-23 07:56:00,
2014-02-23 02:57:00,17.9,13.1,29.91,WSW,252,9.0,21.0,81,0.00,,,0.00,VWS V14.01,2014-02-23 07:57:00,
2014-02-23 02:58:00,17.9,13.4,29.91,West,269,8.0,21.0,82,0.00,,,0.00,VWS V14.01,2014-02-23 07:58:00,
2014-02-23 02:59:00,17.8,13.0,29.91,SW,225,5.0,21.0,81,0.00,,,0.00,VWS V14.01,2014-02-23 07:59:00,
2014-02-23 03:00:00,17.8,13.0,29.91,WSW,238,10.0,21.0,81,0.00,,,0.00,VWS V14.01,2014-02-23 08:00:00,
2014-02-23 03:01:00,17.8,13.0,29.91,WSW,238,10.0,21.0,81,0.00,,,0.00,VWS V14.01,2014-02-23 08:01:00,
2014-02-23 03:02:00,17.8,13.0,29.91,SW,215,0.0,21.0,81,0.00,,,0.00,VWS V14.01,2014-02-23 08:02:00,
2014-02-23 03:03:00,17.8,13.0,29.91,SW,236,9.0,21.0,81,0.00,,,0.00,VWS V14.01,2014-02-23 08:03:00,
2014-02-23 03:04:00,17.7,13.1,29.91,West,261,4.0,21.0,82,0.00,,,0.00,VWS V14.01,2014-02-23 08:04:00,
2014-02-23 03:05:00,17.7,13.1,29.91,WSW,251,7.0,21.0,82,0.00,,,0.00,VWS V14.01,2014-02-23 08:05:00,
2014-02-23 03:06:00,17.7,13.1,29.91,WSW,251,7.0,21.0,82,0.00,,,0.00,VWS V14.01,2014-02-23 08:06:00,
2014-02-23 03:07:00,17.7,13.1,29.91,SSW,203,1.0,21.0,82,0.00,,,0.00,VWS V14.01,2014-02-23 08:07:00,
2014-02-23 03:08:00,17.7,13.1,29.91,SW,220,4.0,21.0,82,0.00,,,0.00,VWS V14.01,2014-02-23 08:08:00,
2014-02-23 03:09:00,17.7,13.1,29.91,WSW,241,5.0,21.0,82,0.00,,,0.00,VWS V14.01,2014-02-23 08:09:00,
2014-02-23 03:10:00,17.7,13.1,29.91,WSW,247,10.0,21.0,82,0.00,,,0.00,VWS V14.01,2014-02-23 08:10:00,
2014-02-23 03:11:00,17.7,13.1,29.91,WSW,247,10.0,21.0,82,0.00,,,0.00,VWS V14.01,2014-02-23 08:11:00,
2014-02-23 03:12:00,17.7,13.1,29.91,West,267,6.0,21.0,82,0.00,,,0.00,VWS V14.01,2014-02-23 08:12:00,
2014-02-23 03:13:00,17.7,13.1,29.91,West,259,9.0,21.0,82,0.00,,,0.00,VWS V14.01,2014-02-23 08:13:00,
2014-02-23 03:14:00,17.7,13.1,29.91,West,271,7.0,21.0,82,0.00,,,0.00,VWS V14.01,2014-02-23 08:14:00,
2014-02-23 03:15:00,17.7,12.9,29.91,West,267,2.0,21.0,81,0.00,,,0.00,VWS V14.01,2014-02-23 08:15:00,
2014-02-23 03:16:00,17.7,12.9,29.91,West,267,2.0,21.0,81,0.00,,,0.00,VWS V14.01,2014-02-23 08:16:00,
2014-02-23 03:17:00,17.6,12.8,29.91,WSW,251,5.0,21.0,81,0.00,,,0.00,VWS V14.01,2014-02-23 08:17:00,
2014-02-23 03:18:00,17.6,12.8,29.91,WSW,258,14.0,21.0,81,0.00,,,0.00,VWS V14.01,2014-02-23 08:18:00,
2014-02-23 03:19:00,17.6,12.8,29.92,WNW,303,11.0,21.0,81,0.00,,,0.00,VWS V14.01,2014-02-23 08:19:00,
2014-02-23 03:20:00,17.6,13.1,29.91,SSW,205,4.0,21.0,82,0.00,,,0.00,VWS V14.01,2014-02-23 08:20:00,
2014-02-23 03:21:00,17.6,13.1,29.91,WSW,238,3.0,21.0,82,0.00,,,0.00,VWS V14.01,2014-02-23 08:21:00,
2014-02-23 03:22:00,17.6,13.1,29.91,SSW,202,10.0,21.0,82,0.00,,,0.00,VWS V14.01,2014-02-23 08:22:00,
2014-02-23 03:23:00,17.6,13.1,29.91,West,269,8.0,21.0,82,0.00,,,0.00,VWS V14.01,2014-02-23 08:23:00,
2014-02-23 03:24:00,17.6,13.1,29.91,SW,231,10.0,21.0,82,0.00,,,0.00,VWS V14.01,2014-02-23 08:24:00,
2014-02-23 03:25:00,17.5,12.7,29.91,West,276,12.0,21.0,81,0.00,,,0.00,VWS V14.01,2014-02-23 08:25:00,
2014-02-23 03:26:00,17.6,12.8,29.91,SW,219,8.0,21.0,81,0.00,,,0.00,VWS V14.01,2014-02-23 08:26:00,
2014-02-23 03:27:00,17.6,12.8,29.91,SW,217,2.0,21.0,81,0.00,,,0.00,VWS V14.01,2014-02-23 08:27:00,
2014-02-23 03:28:00,17.6,13.1,29.91,WSW,242,1.0,21.0,82,0.00,,,0.00,VWS V14.01,2014-02-23 08:28:00,
2014-02-23 03:29:00,17.5,12.9,29.91,SSW,206,8.0,21.0,82,0.00,,,0.00,VWS V14.01,2014-02-23 08:29:00,
2014-02-23 03:30:00,17.5,12.7,29.91,WSW,244,8.0,21.0,81,0.00,,,0.00,VWS V14.01,2014-02-23 08:30:00,
2014-02-23 03:31:00,17.5,12.7,29.91,West,269,9.0,21.0,81,0.00,,,0.00,VWS V14.01,2014-02-23 08:31:00,
2014-02-23 03:32:00,17.5,12.7,29.91,WNW,290,8.0,21.0,81,0.00,,,0.00,VWS V14.01,2014-02-23 08:32:00,
2014-02-23 03:33:00,17.5,12.7,29.91,West,261,0.0,21.0,81,0.00,,,0.00,VWS V14.01,2014-02-23 08:33:00,
2014-02-23 03:34:00,17.5,12.7,29.91,SW,219,2.0,21.0,81,0.00,,,0.00,VWS V14.01,2014-02-23 08:34:00,
2014-02-23 03:35:00,17.4,12.6,29.91,WSW,253,1.0,21.0,81,0.00,,,0.00,VWS V14.01,2014-02-23 08:35:00,
2014-02-23 03:36:00,17.5,12.7,29.91,SSW,198,6.0,21.0,81,0.00,,,0.00,VWS V14.01,2014-02-23 08:36:00,
2014-02-23 03:37:00,17.4,12.6,29.91,WSW,239,0.0,21.0,81,0.00,,,0.00,VWS V14.01,2014-02-23 08:37:00,
2014-02-23 03:38:00,17.4,12.9,29.91,West,272,0.0,21.0,82,0.00,,,0.00,VWS V14.01,2014-02-23 08:38:00,
2014-02-23 03:39:00,17.4,12.9,29.91,West,266,0.0,21.0,82,0.00,,,0.00,VWS V14.01,2014-02-23 08:39:00,
2014-02-23 03:40:00,17.3,12.8,29.91,WSW,248,3.0,21.0,82,0.00,,,0.00,VWS V14.01,2014-02-23 08:40:00,
2014-02-23 03:41:00,17.4,12.9,29.91,South,190,9.0,21.0,82,0.00,,,0.00,VWS V14.01,2014-02-23 08:41:00,
2014-02-23 03:42:00,17.4,12.9,29.91,West,273,1.0,21.0,82,0.00,,,0.00,VWS V14.01,2014-02-23 08:42:00,
2014-02-23 03:43:00,17.4,12.9,29.91,SW,234,9.0,21.0,82,0.00,,,0.00,VWS V14.01,2014-02-23 08:43:00,
2014-02-23 03:44:00,17.4,12.6,29.91,SW,218,5.0,21.0,81,0.00,,,0.00,VWS V14.01,2014-02-23 08:44:00,
2014-02-23 03:45:00,17.3,12.5,29.91,SW,233,6.0,21.0,81,0.00,,,0.00,VWS V14.01,2014-02-23 08:45:00,
2014-02-23 03:46:00,17.3,12.5,29.91,SW,236,11.0,21.0,81,0.00,,,0.00,VWS V14.01,2014-02-23 08:46:00,
2014-02-23 03:47:00,17.3,12.5,29.91,West,259,0.0,21.0,81,0.00,,,0.00,VWS V14.01,2014-02-23 08:47:00,
2014-02-23 03:48:00,17.3,12.5,29.91,WSW,257,1.0,21.0,81,0.00,,,0.00,VWS V14.01,2014-02-23 08:48:00,
2014-02-23 03:49:00,17.3,12.5,29.91,SSW,195,0.0,21.0,81,0.00,,,0.00,VWS V14.01,2014-02-23 08:49:00,
2014-02-23 03:50:00,17.3,12.8,29.91,SSW,209,0.0,21.0,82,0.00,,,0.00,VWS V14.01,2014-02-23 08:50:00,
2014-02-23 03:51:00,17.3,12.5,29.91,West,273,0.0,21.0,81,0.00,,,0.00,VWS V14.01,2014-02-23 08:51:00,
2014-02-23 03:52:00,17.3,12.8,29.91,SSW,200,0.0,21.0,82,0.00,,,0.00,VWS V14.01,2014-02-23 08:52:00,
2014-02-23 03:53:00,17.3,12.5,29.91,West,275,1.0,21.0,81,0.00,,,0.00,VWS V14.01,2014-02-23 08:53:00,
2014-02-23 03:54:00,17.3,12.5,29.91,WNW,295,0.0,21.0,81,0.00,,,0.00,VWS V14.01,2014-02-23 08:54:00,
2014-02-23 03:55:00,17.3,12.8,29.91,WSW,242,0.0,21.0,82,0.00,,,0.00,VWS V14.01,2014-02-23 08:55:00,
2014-02-23 03:56:00,17.3,12.8,29.91,SW,228,0.0,21.0,82,0.00,,,0.00,VWS V14.01,2014-02-23 08:56:00,
2014-02-23 03:57:00,17.3,12.8,29.91,SSW,209,11.0,21.0,82,0.00,,,0.00,VWS V14.01,2014-02-23 08:57:00,
2014-02-23 03:58:00,17.3,12.8,29.91,SSW,213,0.0,21.0,82,0.00,,,0.00,VWS V14.01,2014-02-23 08:58:00,
2014-02-23 03:59:00,17.3,12.8,29.91,SW,231,0.0,21.0,82,0.00,,,0.00,VWS V14.01,2014-02-23 08:59:00,
2014-02-23 04:00:00,17.3,12.8,29.91,SW,223,6.0,21.0,82,0.00,,,0.00,VWS V14.01,2014-02-23 09:00:00,
2014-02-23 04:01:00,17.3,12.8,29.91,WSW,241,3.0,21.0,82,0.00,,,0.00,VWS V14.01,2014-02-23 09:01:00,
2014-02-23 04:02:00,17.2,12.7,29.91,SSW,211,8.0,21.0,82,0.00,,,0.00,VWS V14.01,2014-02-23 09:02:00,
2014-02-23 04:03:00,17.3,12.8,29.91,SW,215,8.0,21.0,82,0.00,,,0.00,VWS V14.01,2014-02-23 09:03:00,
2014-02-23 04:04:00,17.3,12.8,29.91,WSW,245,2.0,21.0,82,0.00,,,0.00,VWS V14.01,2014-02-23 09:04:00,
2014-02-23 04:05:00,17.3,12.8,29.91,SW,231,3.0,21.0,82,0.00,,,0.00,VWS V14.01,2014-02-23 09:05:00,
2014-02-23 04:06:00,17.2,12.7,29.91,SSW,205,0.0,21.0,82,0.00,,,0.00,VWS V14.01,2014-02-23 09:06:00,
2014-02-23 04:07:00,17.2,12.7,29.91,SSW,205,0.0,21.0,82,0.00,,,0.00,VWS V14.01,2014-02-23 09:07:00,
2014-02-23 04:08:00,17.2,12.7,29.91,SW,234,0.0,21.0,82,0.00,,,0.00,VWS V14.01,2014-02-23 09:08:00,
2014-02-23 04:09:00,17.2,12.7,29.91,SW,230,7.0,21.0,82,0.00,,,0.00,VWS V14.01,2014-02-23 09:09:00,
2014-02-23 04:10:00,17.2,12.7,29.91,South,184,4.0,21.0,82,0.00,,,0.00,VWS V14.01,2014-02-23 09:10:00,
2014-02-23 04:11:00,17.2,12.7,29.91,WSW,256,3.0,21.0,82,0.00,,,0.00,VWS V14.01,2014-02-23 09:11:00,
2014-02-23 04:12:00,17.2,12.7,29.91,WSW,248,3.0,21.0,82,0.00,,,0.00,VWS V14.01,2014-02-23 09:12:00,
2014-02-23 04:13:00,17.2,12.7,29.91,SSW,207,13.0,21.0,82,0.00,,,0.00,VWS V14.01,2014-02-23 09:13:00,
2014-02-23 04:14:00,17.2,12.7,29.91,SSW,202,6.0,21.0,82,0.00,,,0.00,VWS V14.01,2014-02-23 09:14:00,
2014-02-23 04:15:00,17.2,12.7,29.91,WSW,250,1.0,21.0,82,0.00,,,0.00,VWS V14.01,2014-02-23 09:15:00,
2014-02-23 04:16:00,17.2,12.7,29.91,West,281,0.0,21.0,82,0.00,,,0.00,VWS V14.01,2014-02-23 09:16:00,
2014-02-23 04:17:00,17.2,12.7,29.91,West,281,0.0,21.0,82,0.00,,,0.00,VWS V14.01,2014-02-23 09:17:00,
2014-02-23 04:18:00,17.2,12.7,29.91,SSW,210,1.0,21.0,82,0.00,,,0.00,VWS V14.01,2014-02-23 09:18:00,
2014-02-23 04:19:00,17.2,12.7,29.91,WSW,256,3.0,21.0,82,0.00,,,0.00,VWS V14.01,2014-02-23 09:19:00,
2014-02-23 04:20:00,17.2,12.7,29.91,SW,230,5.0,21.0,82,0.00,,,0.00,VWS V14.01,2014-02-23 09:20:00,
2014-02-23 04:21:00,17.2,12.7,29.91,WSW,248,5.0,21.0,82,0.00,,,0.00,VWS V14.01,2014-02-23 09:21:00,
2014-02-23 04:22:00,17.2,12.7,29.91,WSW,240,9.0,21.0,82,0.00,,,0.00,VWS V14.01,2014-02-23 09:22:00,
2014-02-23 04:23:00,17.2,12.7,29.91,West,271,7.0,21.0,82,0.00,,,0.00,VWS V14.01,2014-02-23 09:23:00,
2014-02-23 04:24:00,17.2,12.7,29.91,WSW,246,4.0,21.0,82,0.00,,,0.00,VWS V14.01,2014-02-23 09:24:00,
2014-02-23 04:25:00,17.1,12.6,29.91,West,275,4.0,21.0,82,0.00,,,0.00,VWS V14.01,2014-02-23 09:25:00,
2014-02-23 04:26:00,17.1,12.8,29.91,WSW,253,3.0,21.0,83,0.00,,,0.00,VWS V14.01,2014-02-23 09:26:00,
2014-02-23 04:27:00,17.1,12.8,29.91,WNW,285,2.0,21.0,83,0.00,,,0.00,VWS V14.01,2014-02-23 09:27:00,
2014-02-23 04:28:00,17.1,12.6,29.91,SW,228,8.0,21.0,82,0.00,,,0.00,VWS V14.01,2014-02-23 09:28:00,
2014-02-23 04:29:00,17.1,12.8,29.91,WSW,249,4.0,21.0,83,0.00,,,0.00,VWS V14.01,2014-02-23 09:29:00,
2014-02-23 04:30:00,17.1,12.8,29.91,West,268,8.0,21.0,83,0.00,,,0.00,VWS V14.01,2014-02-23 09:30:00,
2014-02-23 04:31:00,17.1,12.6,29.91,West,279,6.0,21.0,82,0.00,,,0.00,VWS V14.01,2014-02-23 09:31:00,
2014-02-23 04:32:00,17.1,12.6,29.91,SW,216,11.0,21.0,82,0.00,,,0.00,VWS V14.01,2014-02-23 09:32:00,
2014-02-23 04:33:00,17.1,12.6,29.91,WSW,252,0.0,21.0,82,0.00,,,0.00,VWS V14.01,2014-02-23 09:33:00,
2014-02-23 04:34:00,17.1,12.6,29.91,WSW,239,4.0,21.0,82,0.00,,,0.00,VWS V14.01,2014-02-23 09:34:00,
2014-02-23 04:35:00,17.1,12.6,29.91,West,271,0.0,21.0,82,0.00,,,0.00,VWS V14.01,2014-02-23 09:35:00,
2014-02-23 04:36:00,17.1,12.8,29.91,SW,232,3.0,21.0,83,0.00,,,0.00,VWS V14.01,2014-02-23 09:36:00,
2014-02-23 04:37:00,17.0,12.7,29.91,SW,223,2.0,21.0,83,0.00,,,0.00,VWS V14.01,2014-02-23 09:37:00,
2014-02-23 04:38:00,17.1,12.8,29.91,WNW,298,0.0,21.0,83,0.00,,,0.00,VWS V14.01,2014-02-23 09:38:00,
2014-02-23 04:39:00,17.0,12.7,29.91,WSW,242,10.0,21.0,83,0.00,,,0.00,VWS V14.01,2014-02-23 09:39:00,
2014-02-23 04:40:00,17.0,12.7,29.91,SW,232,1.0,21.0,83,0.00,,,0.00,VWS V14.01,2014-02-23 09:40:00,
2014-02-23 04:41:00,17.0,12.7,29.91,SW,219,11.0,21.0,83,0.00,,,0.00,VWS V14.01,2014-02-23 09:41:00,
2014-02-23 04:42:00,17.0,12.7,29.91,SSW,202,5.0,21.0,83,0.00,,,0.00,VWS V14.01,2014-02-23 09:42:00,
2014-02-23 04:43:00,17.0,12.7,29.91,WSW,247,4.0,21.0,83,0.00,,,0.00,VWS V14.01,2014-02-23 09:43:00,
2014-02-23 04:44:00,17.0,12.7,29.91,West,261,9.0,21.0,83,0.00,,,0.00,VWS V14.01,2014-02-23 09:44:00,
2014-02-23 04:45:00,17.0,12.7,29.91,WSW,249,14.0,21.0,83,0.00,,,0.00,VWS V14.01,2014-02-23 09:45:00,
2014-02-23 04:46:00,17.0,12.7,29.91,SW,217,2.0,21.0,83,0.00,,,0.00,VWS V14.01,2014-02-23 09:46:00,
2014-02-23 04:47:00,17.0,12.7,29.91,WNW,285,0.0,21.0,83,0.00,,,0.00,VWS V14.01,2014-02-23 09:47:00,
2014-02-23 04:48:00,17.0,12.7,29.91,SW,225,9.0,21.0,83,0.00,,,0.00,VWS V14.01,2014-02-23 09:48:00,
2014-02-23 04:49:00,16.9,12.6,29.91,SW,220,0.0,21.0,83,0.00,,,0.00,VWS V14.01,2014-02-23 09:49:00,
2014-02-23 04:50:00,17.0,12.7,29.91,WSW,237,0.0,21.0,83,0.00,,,0.00,VWS V14.01,2014-02-23 09:50:00,
2014-02-23 04:51:00,16.9,12.6,29.91,WSW,251,7.0,21.0,83,0.00,,,0.00,VWS V14.01,2014-02-23 09:51:00,
2014-02-23 04:52:00,16.9,12.6,29.91,SW,227,0.0,21.0,83,0.00,,,0.00,VWS V14.01,2014-02-23 09:52:00,
2014-02-23 04:53:00,16.9,12.6,29.91,SW,230,6.0,21.0,83,0.00,,,0.00,VWS V14.01,2014-02-23 09:53:00,
2014-02-23 04:54:00,16.9,12.6,29.91,SW,219,5.0,21.0,83,0.00,,,0.00,VWS V14.01,2014-02-23 09:54:00,
2014-02-23 04:55:00,16.9,12.6,29.91,SW,228,4.0,21.0,83,0.00,,,0.00,VWS V14.01,2014-02-23 09:55:00,
2014-02-23 04:56:00,16.9,12.6,29.91,West,259,0.0,21.0,83,0.00,,,0.00,VWS V14.01,2014-02-23 09:56:00,
2014-02-23 04:57:00,16.8,12.5,29.91,WSW,251,0.0,21.0,83,0.00,,,0.00,VWS V14.01,2014-02-23 09:57:00,
2014-02-23 04:58:00,16.9,12.6,29.91,SW,223,0.0,21.0,83,0.00,,,0.00,VWS V14.01,2014-02-23 09:58:00,
2014-02-23 04:59:00,16.9,12.6,29.91,SW,223,3.0,21.0,83,0.00,,,0.00,VWS V14.01,2014-02-23 09:59:00,
2014-02-23 05:00:00,16.9,12.6,29.91,WSW,249,13.0,21.0,83,0.00,,,0.00,VWS V14.01,2014-02-23 10:00:00,
2014-02-23 05:01:00,16.9,12.6,29.91,South,187,4.0,21.0,83,0.00,,,0.00,VWS V14.01,2014-02-23 10:01:00,
2014-02-23 05:02:00,16.8,12.5,29.91,SW,223,6.0,21.0,83,0.00,,,0.00,VWS V14.01,2014-02-23 10:02:00,
2014-02-23 05:03:00,16.8,12.5,29.91,SW,221,9.0,21.0,83,0.00,,,0.00,VWS V14.01,2014-02-23 10:03:00,
2014-02-23 05:04:00,16.9,12.6,29.91,SW,222,6.0,21.0,83,0.00,,,0.00,VWS V14.01,2014-02-23 10:04:00,
2014-02-23 05:05:00,16.8,12.5,29.92,WSW,241,0.0,21.0,83,0.00,,,0.00,VWS V14.01,2014-02-23 10:05:00,
2014-02-23 05:06:00,16.8,12.5,29.91,SSW,199,8.0,21.0,83,0.00,,,0.00,VWS V14.01,2014-02-23 10:06:00,
2014-02-23 05:07:00,16.8,12.5,29.91,West,281,2.0,21.0,83,0.00,,,0.00,VWS V14.01,2014-02-23 10:07:00,
2014-02-23 05:08:00,16.8,12.5,29.91,SW,229,7.0,21.0,83,0.00,,,0.00,VWS V14.01,2014-02-23 10:08:00,
2014-02-23 05:09:00,16.8,12.5,29.91,West,279,2.0,21.0,83,0.00,,,0.00,VWS V14.01,2014-02-23 10:09:00,
2014-02-23 05:10:00,16.8,12.5,29.92,West,278,8.0,21.0,83,0.00,,,0.00,VWS V14.01,2014-02-23 10:10:00,
2014-02-23 05:11:00,16.8,12.5,29.92,WSW,248,10.0,21.0,83,0.00,,,0.00,VWS V14.01,2014-02-23 10:11:00,
2014-02-23 05:12:00,16.8,12.5,29.92,West,279,0.0,21.0,83,0.00,,,0.00,VWS V14.01,2014-02-23 10:12:00,
2014-02-23 05:13:00,16.8,12.5,29.92,SW,235,6.0,21.0,83,0.00,,,0.00,VWS V14.01,2014-02-23 10:13:00,
2014-02-23 05:14:00,16.7,12.4,29.91,SW,229,4.0,21.0,83,0.00,,,0.00,VWS V14.01,2014-02-23 10:14:00,
2014-02-23 05:15:00,16.8,12.5,29.92,West,269,1.0,21.0,83,0.00,,,0.00,VWS V14.01,2014-02-23 10:15:00,
2014-02-23 05:16:00,16.7,12.4,29.92,WSW,243,2.0,21.0,83,0.00,,,0.00,VWS V14.01,2014-02-23 10:16:00,
2014-02-23 05:17:00,16.7,12.4,29.92,SSW,194,5.0,21.0,83,0.00,,,0.00,VWS V14.01,2014-02-23 10:17:00,
2014-02-23 05:18:00,16.7,12.4,29.92,SW,219,16.0,21.0,83,0.00,,,0.00,VWS V14.01,2014-02-23 10:18:00,
2014-02-23 05:19:00,16.7,12.4,29.92,SW,229,9.0,21.0,83,0.00,,,0.00,VWS V14.01,2014-02-23 10:19:00,
2014-02-23 05:20:00,16.7,12.4,29.92,SW,235,9.0,21.0,83,0.00,,,0.00,VWS V14.01,2014-02-23 10:20:00,
2014-02-23 05:21:00,16.7,12.4,29.92,NW,304,10.0,21.0,83,0.00,,,0.00,VWS V14.01,2014-02-23 10:21:00,
2014-02-23 05:22:00,16.6,12.1,29.92,SW,214,9.0,21.0,82,0.00,,,0.00,VWS V14.01,2014-02-23 10:22:00,
2014-02-23 05:23:00,16.6,12.1,29.92,SW,214,9.0,21.0,82,0.00,,,0.00,VWS V14.01,2014-02-23 10:23:00,
2014-02-23 05:24:00,16.6,12.4,29.92,WSW,239,4.0,21.0,83,0.00,,,0.00,VWS V14.01,2014-02-23 10:24:00,
2014-02-23 05:25:00,16.6,12.4,29.92,SW,230,0.0,21.0,83,0.00,,,0.00,VWS V14.01,2014-02-23 10:25:00,
2014-02-23 05:26:00,16.6,12.4,29.92,West,275,0.0,21.0,83,0.00,,,0.00,VWS V14.01,2014-02-23 10:26:00,
2014-02-23 05:27:00,16.6,12.4,29.92,West,259,9.0,21.0,83,0.00,,,0.00,VWS V14.01,2014-02-23 10:27:00,
2014-02-23 05:28:00,16.6,12.4,29.92,West,259,9.0,21.0,83,0.00,,,0.00,VWS V14.01,2014-02-23 10:28:00,
2014-02-23 05:29:00,16.6,12.4,29.92,SSW,205,6.0,21.0,83,0.00,,,0.00,VWS V14.01,2014-02-23 10:29:00,
2014-02-23 05:30:00,16.6,12.4,29.92,SW,228,9.0,21.0,83,0.00,,,0.00,VWS V14.01,2014-02-23 10:30:00,
2014-02-23 05:31:00,16.5,12.2,29.92,SW,216,4.0,21.0,83,0.00,,,0.00,VWS V14.01,2014-02-23 10:31:00,
2014-02-23 05:32:00,16.5,12.5,29.92,SSW,206,4.0,21.0,84,0.00,,,0.00,VWS V14.01,2014-02-23 10:32:00,
2014-02-23 05:33:00,16.5,12.5,29.92,SSW,206,4.0,21.0,84,0.00,,,0.00,VWS V14.01,2014-02-23 10:33:00,
2014-02-23 05:34:00,16.5,12.5,29.92,SW,219,7.0,21.0,84,0.00,,,0.00,VWS V14.01,2014-02-23 10:34:00,
2014-02-23 05:35:00,16.5,12.5,29.92,SSW,213,12.0,21.0,84,0.00,,,0.00,VWS V14.01,2014-02-23 10:35:00,
2014-02-23 05:36:00,16.4,12.4,29.92,SW,224,10.0,21.0,84,0.00,,,0.00,VWS V14.01,2014-02-23 10:36:00,
2014-02-23 05:37:00,16.4,12.4,29.92,West,269,12.0,21.0,84,0.00,,,0.00,VWS V14.01,2014-02-23 10:37:00,
2014-02-23 05:38:00,16.4,12.4,29.92,West,269,12.0,21.0,84,0.00,,,0.00,VWS V14.01,2014-02-23 10:38:00,
2014-02-23 05:39:00,16.4,12.4,29.92,SW,215,0.0,21.0,84,0.00,,,0.00,VWS V14.01,2014-02-23 10:39:00,
2014-02-23 05:40:00,16.4,12.4,29.92,SW,223,6.0,21.0,84,0.00,,,0.00,VWS V14.01,2014-02-23 10:40:00,
2014-02-23 05:41:00,16.4,12.4,29.92,SSW,205,10.0,21.0,84,0.00,,,0.00,VWS V14.01,2014-02-23 10:41:00,
2014-02-23 05:42:00,16.3,12.3,29.92,SSW,192,0.0,21.0,84,0.00,,,0.00,VWS V14.01,2014-02-23 10:42:00,
2014-02-23 05:43:00,16.3,12.3,29.92,SSW,193,0.0,21.0,84,0.00,,,0.00,VWS V14.01,2014-02-23 10:43:00,
2014-02-23 05:44:00,16.3,12.3,29.92,SW,225,0.0,21.0,84,0.00,,,0.00,VWS V14.01,2014-02-23 10:44:00,
2014-02-23 05:45:00,16.3,12.3,29.92,SW,225,5.0,21.0,84,0.00,,,0.00,VWS V14.01,2014-02-23 10:45:00,
2014-02-23 05:46:00,16.3,12.3,29.92,South,179,3.0,21.0,84,0.00,,,0.00,VWS V14.01,2014-02-23 10:46:00,
2014-02-23 05:47:00,16.3,12.3,29.92,WSW,245,3.0,21.0,84,0.00,,,0.00,VWS V14.01,2014-02-23 10:47:00,
2014-02-23 05:48:00,16.3,12.3,29.92,SW,215,6.0,21.0,84,0.00,,,0.00,VWS V14.01,2014-02-23 10:48:00,
2014-02-23 05:49:00,16.3,12.3,29.92,West,259,0.0,21.0,84,0.00,,,0.00,VWS V14.01,2014-02-23 10:49:00,
2014-02-23 05:50:00,16.3,12.3,29.92,WSW,252,12.0,21.0,84,0.00,,,0.00,VWS V14.01,2014-02-23 10:50:00,
2014-02-23 05:51:00,16.2,12.2,29.92,WSW,258,6.0,21.0,84,0.00,,,0.00,VWS V14.01,2014-02-23 10:51:00,
2014-02-23 05:52:00,16.2,12.2,29.92,South,190,0.0,21.0,84,0.00,,,0.00,VWS V14.01,2014-02-23 10:52:00,
2014-02-23 05:53:00,16.2,12.2,29.92,SW,227,0.0,21.0,84,0.00,,,0.00,VWS V14.01,2014-02-23 10:53:00,
2014-02-23 05:54:00,16.2,12.2,29.92,SW,228,0.0,21.0,84,0.00,,,0.00,VWS V14.01,2014-02-23 10:54:00,
2014-02-23 05:55:00,16.2,12.2,29.92,SSW,209,8.0,21.0,84,0.00,,,0.00,VWS V14.01,2014-02-23 10:55:00,
2014-02-23 05:56:00,16.2,12.2,29.92,SW,229,6.0,21.0,84,0.00,,,0.00,VWS V14.01,2014-02-23 10:56:00,
2014-02-23 05:57:00,16.2,12.5,29.92,WNW,300,11.0,21.0,85,0.00,,,0.00,VWS V14.01,2014-02-23 10:57:00,
2014-02-23 05:58:00,16.2,12.5,29.92,SW,221,2.0,21.0,85,0.00,,,0.00,VWS V14.01,2014-02-23 10:58:00,
2014-02-23 05:59:00,16.2,12.2,29.92,WSW,254,4.0,21.0,84,0.00,,,0.00,VWS V14.01,2014-02-23 10:59:00,
2014-02-23 06:00:00,16.1,12.1,29.92,West,261,0.0,21.0,84,0.00,,,0.00,VWS V14.01,2014-02-23 11:00:00,
2014-02-23 06:01:00,16.1,12.1,29.92,SSW,213,8.0,21.0,84,0.00,,,0.00,VWS V14.01,2014-02-23 11:01:00,
2014-02-23 06:02:00,16.1,12.1,29.92,WSW,247,16.0,21.0,84,0.00,,,0.00,VWS V14.01,2014-02-23 11:02:00,
2014-02-23 06:03:00,16.1,12.1,29.92,SSW,211,8.0,21.0,84,0.00,,,0.00,VWS V14.01,2014-02-23 11:03:00,
2014-02-23 06:04:00,16.1,12.1,29.92,SW,219,9.0,21.0,84,0.00,,,0.00,VWS V14.01,2014-02-23 11:04:00,
2014-02-23 06:05:00,16.0,12.0,29.93,SW,234,10.0,21.0,84,0.00,,,0.00,VWS V14.01,2014-02-23 11:05:00,
2014-02-23 06:06:00,16.0,12.0,29.93,SW,218,3.0,21.0,84,0.00,,,0.00,VWS V14.01,2014-02-23 11:06:00,
2014-02-23 06:07:00,15.9,12.2,29.92,SW,229,4.0,21.0,85,0.00,,,0.00,VWS V14.01,2014-02-23 11:07:00,
2014-02-23 06:08:00,15.9,11.9,29.93,SW,230,4.0,21.0,84,0.00,,,0.00,VWS V14.01,2014-02-23 11:08:00,
2014-02-23 06:09:00,15.9,12.2,29.92,SSW,196,3.0,21.0,85,0.00,,,0.00,VWS V14.01,2014-02-23 11:09:00,
2014-02-23 06:10:00,15.9,12.2,29.92,SW,217,12.0,21.0,85,0.00,,,0.00,VWS V14.01,2014-02-23 11:10:00,
2014-02-23 06:11:00,15.9,12.2,29.92,WSW,238,5.0,21.0,85,0.00,,,0.00,VWS V14.01,2014-02-23 11:11:00,
2014-02-23 06:12:00,15.9,11.9,29.92,West,261,6.0,21.0,84,0.00,,,0.00,VWS V14.01,2014-02-23 11:12:00,
2014-02-23 06:13:00,15.9,11.9,29.92,West,275,4.0,21.0,84,0.00,,,0.00,VWS V14.01,2014-02-23 11:13:00,
2014-02-23 06:14:00,15.9,11.9,29.92,West,260,0.0,21.0,84,0.00,,,0.00,VWS V14.01,2014-02-23 11:14:00,
2014-02-23 06:15:00,15.9,12.2,29.93,West,267,2.0,21.0,85,0.00,,,0.00,VWS V14.01,2014-02-23 11:15:00,
2014-02-23 06:16:00,15.9,12.2,29.92,WSW,238,1.0,21.0,85,0.00,,,0.00,VWS V14.01,2014-02-23 11:16:00,
2014-02-23 06:17:00,15.9,11.9,29.92,SW,236,0.0,21.0,84,0.00,,,0.00,VWS V14.01,2014-02-23 11:17:00,
2014-02-23 06:18:00,15.9,11.9,29.92,WSW,249,0.0,21.0,84,0.00,,,0.00,VWS V14.01,2014-02-23 11:18:00,
2014-02-23 06:19:00,15.9,11.9,29.92,West,277,0.0,21.0,84,0.00,,,0.00,VWS V14.01,2014-02-23 11:19:00,
2014-02-23 06:20:00,15.9,11.9,29.93,NW,313,0.0,21.0,84,0.00,,,0.00,VWS V14.01,2014-02-23 11:20:00,
2014-02-23 06:21:00,15.9,11.9,29.93,West,264,1.0,21.0,84,0.00,,,0.00,VWS V14.01,2014-02-23 11:21:00,
2014-02-23 06:22:00,15.8,11.8,29.93,SSW,213,4.0,21.0,84,0.00,,,0.00,VWS V14.01,2014-02-23 11:22:00,
2014-02-23 06:23:00,15.9,11.9,29.93,WSW,254,11.0,21.0,84,0.00,,,0.00,VWS V14.01,2014-02-23 11:23:00,
2014-02-23 06:24:00,15.9,11.9,29.93,WSW,244,7.0,21.0,84,0.00,,,0.00,VWS V14.01,2014-02-23 11:24:00,
2014-02-23 06:25:00,15.9,11.9,29.93,West,277,0.0,21.0,84,0.00,,,0.00,VWS V14.01,2014-02-23 11:25:00,
2014-02-23 06:26:00,15.9,12.2,29.93,SW,226,8.0,21.0,85,0.00,,,0.00,VWS V14.01,2014-02-23 11:26:00,
2014-02-23 06:27:00,15.8,11.8,29.93,West,260,7.0,21.0,84,0.00,,,0.00,VWS V14.01,2014-02-23 11:27:00,
2014-02-23 06:28:00,15.9,11.9,29.93,SW,224,2.0,21.0,84,0.00,,,0.00,VWS V14.01,2014-02-23 11:28:00,
2014-02-23 06:29:00,15.9,11.9,29.93,WSW,253,4.0,21.0,84,0.00,,,0.00,VWS V14.01,2014-02-23 11:29:00,
2014-02-23 06:30:00,15.9,11.9,29.93,WNW,282,0.0,21.0,84,0.00,,,0.00,VWS V14.01,2014-02-23 11:30:00,
2014-02-23 06:31:00,15.9,11.9,29.93,SW,219,2.0,21.0,84,0.00,,,0.00,VWS V14.01,2014-02-23 11:31:00,
2014-02-23 06:32:00,15.8,11.8,29.93,WSW,256,0.0,21.0,84,0.00,,,0.00,VWS V14.01,2014-02-23 11:32:00,
2014-02-23 06:33:00,15.8,11.8,29.93,SW,228,0.0,21.0,84,0.00,,,0.00,VWS V14.01,2014-02-23 11:33:00,
2014-02-23 06:34:00,15.8,11.8,29.93,SW,227,0.0,21.0,84,0.00,,,0.00,VWS V14.01,2014-02-23 11:34:00,
2014-02-23 06:35:00,15.9,11.9,29.93,West,259,2.0,21.0,84,0.00,,,0.00,VWS V14.01,2014-02-23 11:35:00,
2014-02-23 06:36:00,15.8,11.8,29.93,SW,234,5.0,21.0,84,0.00,,,0.00,VWS V14.01,2014-02-23 11:36:00,
2014-02-23 06:37:00,15.8,11.8,29.93,SW,225,6.0,21.0,84,0.00,,,0.00,VWS V14.01,2014-02-23 11:37:00,
2014-02-23 06:38:00,15.8,11.8,29.93,WNW,282,3.0,21.0,84,0.00,,,0.00,VWS V14.01,2014-02-23 11:38:00,
2014-02-23 06:39:00,15.8,11.8,29.93,West,272,6.0,21.0,84,0.00,,,0.00,VWS V14.01,2014-02-23 11:39:00,
2014-02-23 06:40:00,15.8,11.8,29.93,WNW,289,8.0,21.0,84,0.00,,,0.00,VWS V14.01,2014-02-23 11:40:00,
2014-02-23 06:41:00,15.8,11.8,29.93,WSW,246,0.0,21.0,84,0.00,,,0.00,VWS V14.01,2014-02-23 11:41:00,
2014-02-23 06:42:00,15.7,11.7,29.93,WSW,238,1.0,21.0,84,0.00,,,0.00,VWS V14.01,2014-02-23 11:42:00,
2014-02-23 06:43:00,15.7,11.7,29.93,West,259,4.0,21.0,84,0.00,,,0.00,VWS V14.01,2014-02-23 11:43:00,
2014-02-23 06:44:00,15.7,11.7,29.93,West,259,4.0,21.0,84,0.00,,,0.00,VWS V14.01,2014-02-23 11:44:00,
2014-02-23 06:45:00,15.7,11.7,29.93,SW,232,7.0,21.0,84,0.00,,,0.00,VWS V14.01,2014-02-23 11:45:00,
2014-02-23 06:46:00,15.7,11.7,29.93,SW,221,4.0,21.0,84,0.00,,,0.00,VWS V14.01,2014-02-23 11:46:00,
2014-02-23 06:47:00,15.7,11.7,29.93,SW,219,0.0,21.0,84,0.00,,,0.00,VWS V14.01,2014-02-23 11:47:00,
2014-02-23 06:48:00,15.7,11.7,29.93,WSW,249,1.0,21.0,84,0.00,,,0.00,VWS V14.01,2014-02-23 11:48:00,
2014-02-23 06:49:00,15.7,11.7,29.93,WSW,249,1.0,21.0,84,0.00,,,0.00,VWS V14.01,2014-02-23 11:49:00,
2014-02-23 06:50:00,15.7,11.7,29.93,SSW,204,0.0,21.0,84,0.00,,,0.00,VWS V14.01,2014-02-23 11:50:00,
2014-02-23 06:51:00,15.7,11.7,29.93,WSW,244,0.0,21.0,84,0.00,,,0.00,VWS V14.01,2014-02-23 11:51:00,
2014-02-23 06:52:00,15.7,11.7,29.93,SSW,210,0.0,21.0,84,0.00,,,0.00,VWS V14.01,2014-02-23 11:52:00,
2014-02-23 06:53:00,15.6,11.6,29.94,WSW,241,4.0,21.0,84,0.00,,,0.00,VWS V14.01,2014-02-23 11:53:00,
2014-02-23 06:54:00,15.7,11.7,29.93,West,276,6.0,21.0,84,0.00,,,0.00,VWS V14.01,2014-02-23 11:54:00,
2014-02-23 06:55:00,15.6,11.6,29.94,WSW,256,7.0,21.0,84,0.00,,,0.00,VWS V14.01,2014-02-23 11:55:00,
2014-02-23 06:56:00,15.6,11.6,29.93,South,185,1.0,21.0,84,0.00,,,0.00,VWS V14.01,2014-02-23 11:56:00,
2014-02-23 06:57:00,15.6,11.6,29.94,SW,219,5.0,21.0,84,0.00,,,0.00,VWS V14.01,2014-02-23 11:57:00,
2014-02-23 06:58:00,15.6,11.6,29.94,SW,230,0.0,21.0,84,0.00,,,0.00,VWS V14.01,2014-02-23 11:58:00,
2014-02-23 06:59:00,15.6,11.6,29.94,West,278,0.0,21.0,84,0.00,,,0.00,VWS V14.01,2014-02-23 11:59:00,
2014-02-23 07:00:00,15.5,11.5,29.94,NW,311,0.0,21.0,84,0.00,,,0.00,VWS V14.01,2014-02-23 12:00:00,
2014-02-23 07:01:00,15.5,11.5,29.93,WSW,242,4.0,21.0,84,0.00,,,0.00,VWS V14.01,2014-02-23 12:01:00,
2014-02-23 07:02:00,15.5,11.5,29.94,WSW,241,9.0,21.0,84,0.00,,,0.00,VWS V14.01,2014-02-23 12:02:00,
2014-02-23 07:03:00,15.5,11.3,29.94,West,267,12.0,21.0,83,0.00,,,0.00,VWS V14.01,2014-02-23 12:03:00,
2014-02-23 07:04:00,15.5,11.3,29.94,WSW,246,5.0,21.0,83,0.00,,,0.00,VWS V14.01,2014-02-23 12:04:00,
2014-02-23 07:05:00,15.4,11.2,29.94,WSW,240,0.0,21.0,83,0.00,,,0.00,VWS V14.01,2014-02-23 12:05:00,
2014-02-23 07:06:00,15.4,11.2,29.94,WSW,242,5.0,21.0,83,0.00,,,0.00,VWS V14.01,2014-02-23 12:06:00,
2014-02-23 07:07:00,15.4,11.2,29.94,WSW,242,9.0,21.0,83,0.00,,,0.00,VWS V14.01,2014-02-23 12:07:00,
2014-02-23 07:08:00,15.3,11.3,29.94,NW,305,1.0,21.0,84,0.00,,,0.00,VWS V14.01,2014-02-23 12:08:00,
2014-02-23 07:09:00,15.3,11.3,29.94,West,271,9.0,21.0,84,0.00,,,0.00,VWS V14.01,2014-02-23 12:09:00,
2014-02-23 07:10:00,15.3,11.3,29.94,West,267,0.0,21.0,84,0.00,,,0.00,VWS V14.01,2014-02-23 12:10:00,
2014-02-23 07:11:00,15.3,11.3,29.94,SW,232,0.0,21.0,84,0.00,,,0.00,VWS V14.01,2014-02-23 12:11:00,
2014-02-23 07:12:00,15.3,11.3,29.94,WSW,252,2.0,21.0,84,0.00,,,0.00,VWS V14.01,2014-02-23 12:12:00,
2014-02-23 07:13:00,15.3,11.1,29.94,SSW,200,8.0,21.0,83,0.00,,,0.00,VWS V14.01,2014-02-23 12:13:00,
2014-02-23 07:14:00,15.3,11.1,29.94,WNW,293,0.0,21.0,83,0.00,,,0.00,VWS V14.01,2014-02-23 12:14:00,
2014-02-23 07:15:00,15.3,11.1,29.94,West,259,7.0,21.0,83,0.00,,,0.00,VWS V14.01,2014-02-23 12:15:00,
2014-02-23 07:16:00,15.2,11.0,29.94,WSW,244,14.0,21.0,83,0.00,,,0.00,VWS V14.01,2014-02-23 12:16:00,
2014-02-23 07:17:00,15.2,11.0,29.94,SW,215,4.0,21.0,83,0.00,,,0.00,VWS V14.01,2014-02-23 12:17:00,
2014-02-23 07:18:00,15.2,11.2,29.94,West,274,3.0,21.0,84,0.00,,,0.00,VWS V14.01,2014-02-23 12:18:00,
2014-02-23 07:19:00,15.2,11.2,29.94,SW,235,0.0,21.0,84,0.00,,,0.00,VWS V14.01,2014-02-23 12:19:00,
2014-02-23 07:20:00,15.2,11.2,29.94,SW,234,1.0,21.0,84,0.00,,,0.00,VWS V14.01,2014-02-23 12:20:00,
2014-02-23 07:21:00,15.2,11.2,29.94,West,261,0.0,21.0,84,0.00,,,0.00,VWS V14.01,2014-02-23 12:21:00,
2014-02-23 07:22:00,15.2,11.2,29.94,SW,219,7.0,21.0,84,0.00,,,0.00,VWS V14.01,2014-02-23 12:22:00,
2014-02-23 07:23:00,15.1,11.1,29.94,WSW,246,0.0,21.0,84,0.00,,,0.00,VWS V14.01,2014-02-23 12:23:00,
2014-02-23 07:24:00,15.1,11.1,29.94,SW,233,0.0,21.0,84,0.00,,,0.00,VWS V14.01,2014-02-23 12:24:00,
2014-02-23 07:25:00,15.1,11.1,29.94,WSW,243,0.0,21.0,84,0.00,,,0.00,VWS V14.01,2014-02-23 12:25:00,
2014-02-23 07:26:00,15.1,11.1,29.94,SSW,211,0.0,21.0,84,0.00,,,0.00,VWS V14.01,2014-02-23 12:26:00,
2014-02-23 07:27:00,15.1,11.1,29.94,NW,315,11.0,21.0,84,0.00,,,0.00,VWS V14.01,2014-02-23 12:27:00,
2014-02-23 07:28:00,15.1,11.1,29.95,WSW,252,0.0,21.0,84,0.00,,,0.00,VWS V14.01,2014-02-23 12:28:00,
2014-02-23 07:29:00,15.1,11.1,29.94,WSW,257,0.0,21.0,84,0.00,,,0.00,VWS V14.01,2014-02-23 12:29:00,
2014-02-23 07:30:00,15.1,11.1,29.95,SW,231,0.0,21.0,84,0.00,,,0.00,VWS V14.01,2014-02-23 12:30:00,
2014-02-23 07:31:00,15.1,11.1,29.95,West,277,1.0,21.0,84,0.00,,,0.00,VWS V14.01,2014-02-23 12:31:00,
2014-02-23 07:32:00,15.1,11.1,29.95,SSW,204,9.0,21.0,84,0.00,,,0.00,VWS V14.01,2014-02-23 12:32:00,
2014-02-23 07:33:00,15.1,11.1,29.95,SW,219,1.0,21.0,84,0.00,,,0.00,VWS V14.01,2014-02-23 12:33:00,
2014-02-23 07:34:00,15.0,11.1,29.95,SW,229,6.0,21.0,84,0.00,,,0.00,VWS V14.01,2014-02-23 12:34:00,
2014-02-23 07:35:00,15.0,11.1,29.95,WSW,240,3.0,21.0,84,0.00,,,0.00,VWS V14.01,2014-02-23 12:35:00,
2014-02-23 07:36:00,15.0,11.1,29.95,West,271,7.0,21.0,84,0.00,,,0.00,VWS V14.01,2014-02-23 12:36:00,
2014-02-23 07:37:00,15.0,11.1,29.95,SW,230,21.0,21.0,84,0.00,,,0.00,VWS V14.01,2014-02-23 12:37:00,
2014-02-23 07:38:00,14.9,10.9,29.95,West,264,8.0,21.0,84,0.00,,,0.00,VWS V14.01,2014-02-23 12:38:00,
2014-02-23 07:39:00,14.9,10.9,29.95,SW,236,0.0,21.0,84,0.00,,,0.00,VWS V14.01,2014-02-23 12:39:00,
2014-02-23 07:40:00,14.9,10.9,29.95,West,277,0.0,21.0,84,0.00,,,0.00,VWS V14.01,2014-02-23 12:40:00,
2014-02-23 07:41:00,14.9,10.9,29.95,SW,236,11.0,21.0,84,0.00,,,0.00,VWS V14.01,2014-02-23 12:41:00,
2014-02-23 07:42:00,14.9,10.9,29.95,WSW,257,1.0,21.0,84,0.00,,,0.00,VWS V14.01,2014-02-23 12:42:00,
2014-02-23 07:43:00,14.9,10.9,29.95,SSW,202,2.0,21.0,84,0.00,,,0.00,VWS V14.01,2014-02-23 12:43:00,
2014-02-23 07:44:00,14.8,10.9,29.95,South,178,6.0,21.0,84,0.00,,,0.00,VWS V14.01,2014-02-23 12:44:00,
2014-02-23 07:45:00,14.8,10.9,29.95,WSW,247,3.0,21.0,84,0.00,,,0.00,VWS V14.01,2014-02-23 12:45:00,
2014-02-23 07:46:00,14.8,10.9,29.95,WSW,238,0.0,21.0,84,0.00,,,0.00,VWS V14.01,2014-02-23 12:46:00,
2014-02-23 07:47:00,14.8,10.9,29.95,WSW,257,2.0,21.0,84,0.00,,,0.00,VWS V14.01,2014-02-23 12:47:00,
2014-02-23 07:48:00,14.8,10.9,29.95,SSW,196,6.0,21.0,84,0.00,,,0.00,VWS V14.01,2014-02-23 12:48:00,
2014-02-23 07:49:00,14.8,10.9,29.95,SW,231,6.0,21.0,84,0.00,,,0.00,VWS V14.01,2014-02-23 12:49:00,
2014-02-23 07:50:00,14.8,10.9,29.95,SW,231,6.0,21.0,84,0.00,,,0.00,VWS V14.01,2014-02-23 12:50:00,
2014-02-23 07:51:00,14.7,10.8,29.95,West,264,0.0,21.0,84,0.00,,,0.00,VWS V14.01,2014-02-23 12:51:00,
2014-02-23 07:52:00,14.7,10.8,29.95,WSW,243,10.0,21.0,84,0.00,,,0.00,VWS V14.01,2014-02-23 12:52:00,
2014-02-23 07:53:00,14.7,10.8,29.95,WSW,244,12.0,21.0,84,0.00,,,0.00,VWS V14.01,2014-02-23 12:53:00,
2014-02-23 07:54:00,14.7,11.0,29.95,WSW,249,3.0,21.0,85,0.00,,,0.00,VWS V14.01,2014-02-23 12:54:00,
2014-02-23 07:55:00,14.7,11.0,29.95,WSW,249,3.0,21.0,85,0.00,,,0.00,VWS V14.01,2014-02-23 12:55:00,
2014-02-23 07:56:00,14.7,11.0,29.95,West,277,6.0,21.0,85,0.00,,,0.00,VWS V14.01,2014-02-23 12:56:00,
2014-02-23 07:57:00,14.7,11.0,29.95,SW,222,0.0,21.0,85,0.00,,,0.00,VWS V14.01,2014-02-23 12:57:00,
2014-02-23 07:58:00,14.7,11.0,29.95,SW,236,11.0,21.0,85,0.00,,,0.00,VWS V14.01,2014-02-23 12:58:00,
2014-02-23 07:59:00,14.7,11.0,29.95,WSW,245,9.0,21.0,85,0.00,,,0.00,VWS V14.01,2014-02-23 12:59:00,
2014-02-23 08:00:00,14.7,11.0,29.95,WSW,245,9.0,21.0,85,0.00,,,0.00,VWS V14.01,2014-02-23 13:00:00,
2014-02-23 08:01:00,14.6,10.9,29.95,SW,223,4.0,21.0,85,0.00,,,0.00,VWS V14.01,2014-02-23 13:01:00,
2014-02-23 08:02:00,14.6,11.2,29.96,WSW,257,0.0,21.0,86,0.00,,,0.00,VWS V14.01,2014-02-23 13:02:00,
2014-02-23 08:03:00,14.6,11.2,29.95,SW,235,0.0,21.0,86,0.00,,,0.00,VWS V14.01,2014-02-23 13:03:00,
2014-02-23 08:04:00,14.6,11.2,29.96,SSW,209,1.0,21.0,86,0.00,,,0.00,VWS V14.01,2014-02-23 13:04:00,
2014-02-23 08:05:00,14.6,11.2,29.96,SSW,209,1.0,21.0,86,0.00,,,0.00,VWS V14.01,2014-02-23 13:05:00,
2014-02-23 08:06:00,14.6,11.2,29.96,SSW,202,8.0,21.0,86,0.00,,,0.00,VWS V14.01,2014-02-23 13:06:00,
2014-02-23 08:08:00,14.6,11.2,29.96,WSW,241,5.0,21.0,86,0.00,,,0.00,VWS V14.01,2014-02-23 13:08:00,
2014-02-23 08:09:00,14.5,10.8,29.96,SW,234,0.0,21.0,85,0.00,,,0.00,VWS V14.01,2014-02-23 13:09:00,
2014-02-23 08:10:00,14.5,10.8,29.96,WSW,257,0.0,21.0,85,0.00,,,0.00,VWS V14.01,2014-02-23 13:10:00,
2014-02-23 08:11:00,14.5,10.8,29.96,West,265,2.0,21.0,85,0.00,,,0.00,VWS V14.01,2014-02-23 13:11:00,
2014-02-23 08:12:00,14.5,10.8,29.96,SW,232,8.0,21.0,85,0.00,,,0.00,VWS V14.01,2014-02-23 13:12:00,
2014-02-23 08:13:00,14.5,10.8,29.96,SSW,202,2.0,21.0,85,0.00,,,0.00,VWS V14.01,2014-02-23 13:13:00,
2014-02-23 08:14:00,14.5,10.8,29.96,WSW,247,2.0,21.0,85,0.00,,,0.00,VWS V14.01,2014-02-23 13:14:00,
2014-02-23 08:15:00,14.5,10.8,29.96,SSW,203,6.0,21.0,85,0.00,,,0.00,VWS V14.01,2014-02-23 13:15:00,
2014-02-23 08:16:00,14.5,10.8,29.96,WSW,244,11.0,21.0,85,0.00,,,0.00,VWS V14.01,2014-02-23 13:16:00,
2014-02-23 08:17:00,14.4,11.0,29.96,WSW,248,5.0,21.0,86,0.00,,,0.00,VWS V14.01,2014-02-23 13:17:00,
2014-02-23 08:18:00,14.4,10.7,29.96,South,175,0.0,21.0,85,0.00,,,0.00,VWS V14.01,2014-02-23 13:18:00,
2014-02-23 08:19:00,14.4,11.0,29.96,SW,218,4.0,21.0,86,0.00,,,0.00,VWS V14.01,2014-02-23 13:19:00,
2014-02-23 08:20:00,14.4,11.0,29.96,South,190,5.0,21.0,86,0.00,,,0.00,VWS V14.01,2014-02-23 13:20:00,
2014-02-23 08:21:00,14.4,11.0,29.96,WSW,253,3.0,21.0,86,0.00,,,0.00,VWS V14.01,2014-02-23 13:21:00,
2014-02-23 08:22:00,14.4,11.0,29.96,SSW,213,2.0,21.0,86,0.00,,,0.00,VWS V14.01,2014-02-23 13:22:00,
2014-02-23 08:23:00,14.4,11.0,29.96,WSW,250,8.0,21.0,86,0.00,,,0.00,VWS V14.01,2014-02-23 13:23:00,
2014-02-23 08:24:00,14.4,11.0,29.97,WNW,292,0.0,21.0,86,0.00,,,0.00,VWS V14.01,2014-02-23 13:24:00,
2014-02-23 08:25:00,14.4,11.0,29.97,West,264,6.0,21.0,86,0.00,,,0.00,VWS V14.01,2014-02-23 13:25:00,
2014-02-23 08:26:00,14.4,11.0,29.97,West,262,9.0,21.0,86,0.00,,,0.00,VWS V14.01,2014-02-23 13:26:00,
2014-02-23 08:27:00,14.3,11.1,29.97,SSW,212,4.0,21.0,87,0.00,,,0.00,VWS V14.01,2014-02-23 13:27:00,
2014-02-23 08:28:00,14.3,11.1,29.97,West,273,9.0,21.0,87,0.00,,,0.00,VWS V14.01,2014-02-23 13:28:00,
2014-02-23 08:29:00,14.3,10.9,29.97,SW,230,0.0,21.0,86,0.00,,,0.00,VWS V14.01,2014-02-23 13:29:00,
2014-02-23 08:30:00,14.3,11.1,29.97,West,281,0.0,21.0,87,0.00,,,0.00,VWS V14.01,2014-02-23 13:30:00,
2014-02-23 08:31:00,14.3,10.9,29.97,West,259,0.0,21.0,86,0.00,,,0.00,VWS V14.01,2014-02-23 13:31:00,
2014-02-23 08:32:00,14.3,10.9,29.97,WSW,238,0.0,21.0,86,0.00,,,0.00,VWS V14.01,2014-02-23 13:32:00,
2014-02-23 08:33:00,14.3,11.1,29.97,SW,227,5.0,21.0,87,0.00,,,0.00,VWS V14.01,2014-02-23 13:33:00,
2014-02-23 08:34:00,14.3,10.9,29.97,WNW,290,7.0,21.0,86,0.00,,,0.00,VWS V14.01,2014-02-23 13:34:00,
2014-02-23 08:35:00,14.3,11.1,29.97,NNW,342,0.0,21.0,87,0.00,,,0.00,VWS V14.01,2014-02-23 13:35:00,
2014-02-23 08:36:00,14.3,10.9,29.97,SW,232,0.0,21.0,86,0.00,,,0.00,VWS V14.01,2014-02-23 13:36:00,
2014-02-23 08:37:00,14.3,10.9,29.97,SW,221,0.0,21.0,86,0.00,,,0.00,VWS V14.01,2014-02-23 13:37:00,
2014-02-23 08:38:00,14.3,10.9,29.97,WSW,240,5.0,21.0,86,0.00,,,0.00,VWS V14.01,2014-02-23 13:38:00,
2014-02-23 08:39:00,14.3,10.9,29.97,SSW,208,5.0,21.0,86,0.00,,,0.00,VWS V14.01,2014-02-23 13:39:00,
2014-02-23 08:40:00,14.3,10.9,29.97,West,274,4.0,21.0,86,0.00,,,0.00,VWS V14.01,2014-02-23 13:40:00,
2014-02-23 08:41:00,14.2,10.8,29.97,West,268,11.0,21.0,86,0.00,,,0.00,VWS V14.01,2014-02-23 13:41:00,
2014-02-23 08:42:00,14.2,10.8,29.97,West,270,0.0,21.0,86,0.00,,,0.00,VWS V14.01,2014-02-23 13:42:00,
2014-02-23 08:43:00,14.3,10.9,29.98,SW,228,0.0,21.0,86,0.00,,,0.00,VWS V14.01,2014-02-23 13:43:00,
2014-02-23 08:44:00,14.2,10.5,29.97,West,267,2.0,21.0,85,0.00,,,0.00,VWS V14.01,2014-02-23 13:44:00,
2014-02-23 08:45:00,14.2,10.5,29.97,WNW,294,0.0,21.0,85,0.00,,,0.00,VWS V14.01,2014-02-23 13:45:00,
2014-02-23 08:46:00,14.2,10.5,29.97,WSW,240,11.0,21.0,85,0.00,,,0.00,VWS V14.01,2014-02-23 13:46:00,
2014-02-23 08:47:00,14.3,10.6,29.98,WSW,247,5.0,21.0,85,0.00,,,0.00,VWS V14.01,2014-02-23 13:47:00,
2014-02-23 08:48:00,14.2,10.5,29.98,SSW,200,0.0,21.0,85,0.00,,,0.00,VWS V14.01,2014-02-23 13:48:00,
2014-02-23 08:49:00,14.2,10.5,29.98,SSW,209,0.0,21.0,85,0.00,,,0.00,VWS V14.01,2014-02-23 13:49:00,
2014-02-23 08:50:00,14.2,10.5,29.98,SW,216,4.0,21.0,85,0.00,,,0.00,VWS V14.01,2014-02-23 13:50:00,
2014-02-23 08:51:00,14.2,10.5,29.98,WSW,255,5.0,21.0,85,0.00,,,0.00,VWS V14.01,2014-02-23 13:51:00,
2014-02-23 08:52:00,14.2,10.5,29.98,WNW,284,8.0,21.0,85,0.00,,,0.00,VWS V14.01,2014-02-23 13:52:00,
2014-02-23 08:53:00,14.2,10.5,29.97,West,277,0.0,21.0,85,0.00,,,0.00,VWS V14.01,2014-02-23 13:53:00,
2014-02-23 08:54:00,14.2,10.5,29.98,West,279,1.0,21.0,85,0.00,,,0.00,VWS V14.01,2014-02-23 13:54:00,
2014-02-23 08:55:00,14.2,10.5,29.98,West,277,0.0,21.0,85,0.00,,,0.00,VWS V14.01,2014-02-23 13:55:00,
2014-02-23 08:56:00,14.2,10.5,29.98,WSW,240,12.0,21.0,85,0.00,,,0.00,VWS V14.01,2014-02-23 13:56:00,
2014-02-23 08:57:00,14.2,10.5,29.98,SW,218,0.0,21.0,85,0.00,,,0.00,VWS V14.01,2014-02-23 13:57:00,
2014-02-23 08:58:00,14.2,10.5,29.98,West,259,0.0,21.0,85,0.00,,,0.00,VWS V14.01,2014-02-23 13:58:00,
2014-02-23 08:59:00,14.2,10.5,29.98,NW,315,0.0,21.0,85,0.00,,,0.00,VWS V14.01,2014-02-23 13:59:00,
2014-02-23 09:00:00,14.2,10.5,29.98,SW,232,5.0,21.0,85,0.00,,,0.00,VWS V14.01,2014-02-23 14:00:00,
2014-02-23 09:01:00,14.2,10.5,29.98,SW,217,5.0,21.0,85,0.00,,,0.00,VWS V14.01,2014-02-23 14:01:00,
2014-02-23 09:02:00,14.2,10.5,29.98,SW,222,6.0,21.0,85,0.00,,,0.00,VWS V14.01,2014-02-23 14:02:00,
2014-02-23 09:03:00,14.2,10.5,29.98,WSW,256,2.0,21.0,85,0.00,,,0.00,VWS V14.01,2014-02-23 14:03:00,
2014-02-23 09:04:00,14.2,10.5,29.98,WSW,253,0.0,21.0,85,0.00,,,0.00,VWS V14.01,2014-02-23 14:04:00,
2014-02-23 09:05:00,14.2,10.3,29.98,SW,230,0.0,21.0,84,0.00,,,0.00,VWS V14.01,2014-02-23 14:05:00,
2014-02-23 09:06:00,14.2,10.3,29.98,SW,230,0.0,21.0,84,0.00,,,0.00,VWS V14.01,2014-02-23 14:06:00,
2014-02-23 09:07:00,14.2,10.5,29.98,SW,217,3.0,21.0,85,0.00,,,0.00,VWS V14.01,2014-02-23 14:07:00,
2014-02-23 09:08:00,14.2,10.5,29.98,SW,227,1.0,21.0,85,0.00,,,0.00,VWS V14.01,2014-02-23 14:08:00,
2014-02-23 09:09:00,14.2,10.3,29.98,SSW,192,0.0,21.0,84,0.00,,,0.00,VWS V14.01,2014-02-23 14:09:00,
2014-02-23 09:10:00,14.3,10.4,29.98,ENE,70,1.0,21.0,84,0.00,,,0.00,VWS V14.01,2014-02-23 14:10:00,
2014-02-23 09:11:00,14.3,10.4,29.98,ENE,70,1.0,21.0,84,0.00,,,0.00,VWS V14.01,2014-02-23 14:11:00,
2014-02-23 09:12:00,14.3,10.4,29.98,West,268,6.0,21.0,84,0.00,,,0.00,VWS V14.01,2014-02-23 14:12:00,
2014-02-23 09:13:00,14.3,10.4,29.98,WNW,300,0.0,21.0,84,0.00,,,0.00,VWS V14.01,2014-02-23 14:13:00,
2014-02-23 09:14:00,14.3,10.4,29.98,West,277,6.0,21.0,84,0.00,,,0.00,VWS V14.01,2014-02-23 14:14:00,
2014-02-23 09:15:00,14.2,10.0,29.98,West,267,0.0,21.0,83,0.00,,,0.00,VWS V14.01,2014-02-23 14:15:00,
2014-02-23 09:16:00,14.2,10.0,29.98,West,267,0.0,21.0,83,0.00,,,0.00,VWS V14.01,2014-02-23 14:16:00,
2014-02-23 09:17:00,14.3,10.4,29.98,SW,231,0.0,21.0,84,0.00,,,0.00,VWS V14.01,2014-02-23 14:17:00,
2014-02-23 09:18:00,14.3,10.4,29.98,SW,216,1.0,21.0,84,0.00,,,0.00,VWS V14.01,2014-02-23 14:18:00,
2014-02-23 09:19:00,14.3,10.4,29.98,West,279,0.0,21.0,84,0.00,,,0.00,VWS V14.01,2014-02-23 14:19:00,
2014-02-23 09:20:00,14.3,10.4,29.98,SSW,208,0.0,21.0,84,0.00,,,0.00,VWS V14.01,2014-02-23 14:20:00,
2014-02-23 09:21:00,14.3,10.4,29.98,SSW,208,0.0,21.0,84,0.00,,,0.00,VWS V14.01,2014-02-23 14:21:00,
2014-02-23 09:22:00,14.3,10.4,29.98,West,276,0.0,21.0,84,0.00,,,0.00,VWS V14.01,2014-02-23 14:22:00,
2014-02-23 09:23:00,14.3,10.1,29.98,WSW,244,0.0,21.0,83,0.00,,,0.00,VWS V14.01,2014-02-23 14:23:00,
2014-02-23 09:24:00,14.2,10.0,29.98,WSW,242,0.0,21.0,83,0.00,,,0.00,VWS V14.01,2014-02-23 14:24:00,
2014-02-23 09:25:00,14.2,10.3,29.98,SSW,211,2.0,21.0,84,0.00,,,0.00,VWS V14.01,2014-02-23 14:25:00,
2014-02-23 09:26:00,14.2,10.3,29.98,SSW,211,2.0,21.0,84,0.00,,,0.00,VWS V14.01,2014-02-23 14:26:00,
2014-02-23 09:27:00,14.3,10.4,29.98,WSW,247,8.0,21.0,84,0.00,,,0.00,VWS V14.01,2014-02-23 14:27:00,
2014-02-23 09:28:00,14.3,10.4,29.98,West,274,4.0,21.0,84,0.00,,,0.00,VWS V14.01,2014-02-23 14:28:00,
2014-02-23 09:29:00,14.3,10.4,29.98,SSW,210,3.0,21.0,84,0.00,,,0.00,VWS V14.01,2014-02-23 14:29:00,
2014-02-23 09:30:00,14.3,10.6,29.98,SSW,198,7.0,21.0,85,0.00,,,0.00,VWS V14.01,2014-02-23 14:30:00,
2014-02-23 09:31:00,14.3,10.6,29.98,SSW,198,7.0,21.0,85,0.00,,,0.00,VWS V14.01,2014-02-23 14:31:00,
2014-02-23 09:32:00,14.3,10.4,29.98,SW,227,5.0,21.0,84,0.00,,,0.00,VWS V14.01,2014-02-23 14:32:00,
2014-02-23 09:33:00,14.3,10.4,29.98,WSW,240,8.0,21.0,84,0.00,,,0.00,VWS V14.01,2014-02-23 14:33:00,
2014-02-23 09:34:00,14.4,10.5,29.98,WSW,253,7.0,21.0,84,0.00,,,0.00,VWS V14.01,2014-02-23 14:34:00,
2014-02-23 09:35:00,14.4,10.5,29.99,West,281,6.0,21.0,84,0.00,,,0.00,VWS V14.01,2014-02-23 14:35:00,
2014-02-23 09:36:00,14.4,10.5,29.99,West,281,6.0,21.0,84,0.00,,,0.00,VWS V14.01,2014-02-23 14:36:00,
2014-02-23 09:37:00,14.4,10.5,29.99,SW,232,11.0,21.0,84,0.00,,,0.00,VWS V14.01,2014-02-23 14:37:00,
2014-02-23 09:38:00,14.4,10.5,29.99,NW,306,4.0,21.0,84,0.00,,,0.00,VWS V14.01,2014-02-23 14:38:00,
2014-02-23 09:39:00,14.4,10.5,29.99,West,273,7.0,21.0,84,0.00,,,0.00,VWS V14.01,2014-02-23 14:39:00,
2014-02-23 09:40:00,14.4,10.2,29.98,WSW,253,5.0,21.0,83,0.00,,,0.00,VWS V14.01,2014-02-23 14:40:00,
2014-02-23 09:41:00,14.4,10.2,29.98,WSW,253,5.0,21.0,83,0.00,,,0.00,VWS V14.01,2014-02-23 14:41:00,
2014-02-23 09:42:00,14.4,10.2,29.98,WSW,248,9.0,21.0,83,0.00,,,0.00,VWS V14.01,2014-02-23 14:42:00,
2014-02-23 09:43:00,14.4,10.2,29.98,SSW,208,3.0,21.0,83,0.00,,,0.00,VWS V14.01,2014-02-23 14:43:00,
2014-02-23 09:44:00,14.4,9.9,29.99,West,270,0.0,21.0,82,0.00,,,0.00,VWS V14.01,2014-02-23 14:44:00,
2014-02-23 09:45:00,14.4,10.2,29.98,SW,214,4.0,21.0,83,0.00,,,0.00,VWS V14.01,2014-02-23 14:45:00,
2014-02-23 09:46:00,14.4,10.2,29.99,WSW,240,12.0,21.0,83,0.00,,,0.00,VWS V14.01,2014-02-23 14:46:00,
2014-02-23 09:47:00,14.4,10.2,29.98,West,274,1.0,21.0,83,0.00,,,0.00,VWS V14.01,2014-02-23 14:47:00,
2014-02-23 09:48:00,14.4,10.2,29.99,West,264,8.0,21.0,83,0.00,,,0.00,VWS V14.01,2014-02-23 14:48:00,
2014-02-23 09:49:00,14.4,10.2,29.98,SW,217,12.0,21.0,83,0.00,,,0.00,VWS V14.01,2014-02-23 14:49:00,
2014-02-23 09:50:00,14.4,10.2,29.99,WSW,250,7.0,21.0,83,0.00,,,0.00,VWS V14.01,2014-02-23 14:50:00,
2014-02-23 09:51:00,14.4,10.2,29.98,WSW,245,17.0,21.0,83,0.00,,,0.00,VWS V14.01,2014-02-23 14:51:00,
2014-02-23 09:52:00,14.4,10.2,29.99,SW,235,4.0,21.0,83,0.00,,,0.00,VWS V14.01,2014-02-23 14:52:00,
2014-02-23 09:53:00,14.4,10.2,29.99,SW,229,4.0,21.0,83,0.00,,,0.00,VWS V14.01,2014-02-23 14:53:00,
2014-02-23 09:54:00,14.4,10.2,29.99,West,266,3.0,21.0,83,0.00,,,0.00,VWS V14.01,2014-02-23 14:54:00,
2014-02-23 09:55:00,14.4,9.9,29.99,WSW,238,8.0,21.0,82,0.00,,,0.00,VWS V14.01,2014-02-23 14:55:00,
2014-02-23 09:56:00,14.4,9.9,29.98,SW,227,4.0,21.0,82,0.00,,,0.00,VWS V14.01,2014-02-23 14:56:00,
2014-02-23 09:57:00,14.4,9.9,29.99,West,263,4.0,21.0,82,0.00,,,0.00,VWS V14.01,2014-02-23 14:57:00,
2014-02-23 09:58:00,14.4,10.2,29.98,NNW,331,5.0,21.0,83,0.00,,,0.00,VWS V14.01,2014-02-23 14:58:00,
2014-02-23 10:00:00,14.5,10.3,29.99,West,276,3.0,21.0,83,0.00,,,0.00,VWS V14.01,2014-02-23 15:00:00,
2014-02-23 10:01:00,14.5,10.3,29.98,WSW,249,2.0,21.0,83,0.00,,,0.00,VWS V14.01,2014-02-23 15:01:00,
2014-02-23 10:02:00,14.5,10.3,29.99,SSW,205,5.0,21.0,83,0.00,,,0.00,VWS V14.01,2014-02-23 15:02:00,
2014-02-23 10:03:00,14.5,10.3,29.98,SSW,205,0.0,21.0,83,0.00,,,0.00,VWS V14.01,2014-02-23 15:03:00,
2014-02-23 10:04:00,14.6,10.1,29.98,South,178,0.0,21.0,82,0.00,,,0.00,VWS V14.01,2014-02-23 15:04:00,
2014-02-23 10:05:00,14.6,10.1,29.98,WSW,247,0.0,21.0,82,0.00,,,0.00,VWS V14.01,2014-02-23 15:05:00,
2014-02-23 10:06:00,14.6,10.1,29.98,WSW,253,0.0,21.0,82,0.00,,,0.00,VWS V14.01,2014-02-23 15:06:00,
2014-02-23 10:07:00,14.6,10.1,29.98,NW,310,7.0,21.0,82,0.00,,,0.00,VWS V14.01,2014-02-23 15:07:00,
2014-02-23 10:08:00,14.6,10.1,29.98,NW,314,9.0,21.0,82,0.00,,,0.00,VWS V14.01,2014-02-23 15:08:00,
2014-02-23 10:09:00,14.7,10.5,29.98,West,281,0.0,21.0,83,0.00,,,0.00,VWS V14.01,2014-02-23 15:09:00,
2014-02-23 10:10:00,14.7,10.2,29.99,SW,234,0.0,21.0,82,0.00,,,0.00,VWS V14.01,2014-02-23 15:10:00,
2014-02-23 10:11:00,14.7,10.2,29.99,SW,230,0.0,21.0,82,0.00,,,0.00,VWS V14.01,2014-02-23 15:11:00,
2014-02-23 10:12:00,14.7,10.2,29.99,SW,216,0.0,21.0,82,0.00,,,0.00,VWS V14.01,2014-02-23 15:12:00,
2014-02-23 10:13:00,14.7,10.2,29.99,WNW,298,9.0,21.0,82,0.00,,,0.00,VWS V14.01,2014-02-23 15:13:00,
2014-02-23 10:14:00,14.7,10.2,29.98,WSW,238,6.0,21.0,82,0.00,,,0.00,VWS V14.01,2014-02-23 15:14:00,
2014-02-23 10:15:00,14.8,10.3,29.99,WSW,242,4.0,21.0,82,0.00,,,0.00,VWS V14.01,2014-02-23 15:15:00,
2014-02-23 10:16:00,14.8,10.3,29.99,SW,219,0.0,21.0,82,0.00,,,0.00,VWS V14.01,2014-02-23 15:16:00,
2014-02-23 10:17:00,14.8,10.3,29.99,WSW,238,1.0,21.0,82,0.00,,,0.00,VWS V14.01,2014-02-23 15:17:00,
2014-02-23 10:18:00,14.8,10.3,29.99,SW,215,5.0,21.0,82,0.00,,,0.00,VWS V14.01,2014-02-23 15:18:00,
2014-02-23 10:19:00,14.8,10.0,29.99,West,272,14.0,21.0,81,0.00,,,0.00,VWS V14.01,2014-02-23 15:19:00,
2014-02-23 10:20:00,14.8,10.0,29.99,SW,236,0.0,21.0,81,0.00,,,0.00,VWS V14.01,2014-02-23 15:20:00,
2014-02-23 10:21:00,14.8,10.0,29.99,WNW,286,0.0,21.0,81,0.00,,,0.00,VWS V14.01,2014-02-23 15:21:00,
2014-02-23 10:22:00,14.8,10.0,29.99,West,267,0.0,21.0,81,0.00,,,0.00,VWS V14.01,2014-02-23 15:22:00,
2014-02-23 10:23:00,14.8,10.0,29.99,West,268,1.0,21.0,81,0.00,,,0.00,VWS V14.01,2014-02-23 15:23:00,
2014-02-23 10:24:00,14.8,10.0,29.99,WNW,285,6.0,21.0,81,0.00,,,0.00,VWS V14.01,2014-02-23 15:24:00,
2014-02-23 10:25:00,14.8,10.0,29.99,WSW,248,0.0,21.0,81,0.00,,,0.00,VWS V14.01,2014-02-23 15:25:00,
2014-02-23 10:26:00,14.8,10.3,29.99,West,273,7.0,21.0,82,0.00,,,0.00,VWS V14.01,2014-02-23 15:26:00,
2014-02-23 10:27:00,14.8,10.3,29.99,WSW,254,8.0,21.0,82,0.00,,,0.00,VWS V14.01,2014-02-23 15:27:00,
2014-02-23 10:28:00,14.8,10.3,29.99,WSW,239,14.0,21.0,82,0.00,,,0.00,VWS V14.01,2014-02-23 15:28:00,
2014-02-23 10:29:00,14.8,10.3,29.99,South,186,4.0,21.0,82,0.00,,,0.00,VWS V14.01,2014-02-23 15:29:00,
2014-02-23 10:30:00,14.8,10.3,29.99,South,189,6.0,21.0,82,0.00,,,0.00,VWS V14.01,2014-02-23 15:30:00,
2014-02-23 10:31:00,14.8,10.3,29.99,SW,227,14.0,21.0,82,0.00,,,0.00,VWS V14.01,2014-02-23 15:31:00,
2014-02-23 10:32:00,14.8,10.3,29.99,SW,227,8.0,21.0,82,0.00,,,0.00,VWS V14.01,2014-02-23 15:32:00,
2014-02-23 10:33:00,14.8,10.0,29.99,WSW,245,2.0,21.0,81,0.00,,,0.00,VWS V14.01,2014-02-23 15:33:00,
2014-02-23 10:34:00,14.8,10.0,29.99,WNW,302,0.0,21.0,81,0.00,,,0.00,VWS V14.01,2014-02-23 15:34:00,
2014-02-23 10:35:00,14.9,10.4,29.99,SSW,209,11.0,21.0,82,0.00,,,0.00,VWS V14.01,2014-02-23 15:35:00,
2014-02-23 10:36:00,14.9,10.4,29.99,WSW,239,3.0,21.0,82,0.00,,,0.00,VWS V14.01,2014-02-23 15:36:00,
2014-02-23 10:37:00,14.9,10.4,29.99,WSW,239,3.0,21.0,82,0.00,,,0.00,VWS V14.01,2014-02-23 15:37:00,
2014-02-23 10:38:00,14.9,10.4,29.99,SW,225,2.0,21.0,82,0.00,,,0.00,VWS V14.01,2014-02-23 15:38:00,
2014-02-23 10:39:00,15.0,10.5,29.99,WSW,250,10.0,21.0,82,0.00,,,0.00,VWS V14.01,2014-02-23 15:39:00,
2014-02-23 10:40:00,15.0,10.2,29.99,SSW,204,4.0,21.0,81,0.00,,,0.00,VWS V14.01,2014-02-23 15:40:00,
2014-02-23 10:41:00,15.0,10.2,29.99,WSW,253,7.0,21.0,81,0.00,,,0.00,VWS V14.01,2014-02-23 15:41:00,
2014-02-23 10:42:00,15.0,10.2,29.99,WSW,253,7.0,21.0,81,0.00,,,0.00,VWS V14.01,2014-02-23 15:42:00,
2014-02-23 10:43:00,15.0,10.2,29.99,SSW,205,13.0,21.0,81,0.00,,,0.00,VWS V14.01,2014-02-23 15:43:00,
2014-02-23 10:44:00,15.0,10.5,29.99,SW,224,11.0,21.0,82,0.00,,,0.00,VWS V14.01,2014-02-23 15:44:00,
2014-02-23 10:45:00,14.9,10.4,29.99,West,274,7.0,21.0,82,0.00,,,0.00,VWS V14.01,2014-02-23 15:45:00,
2014-02-23 10:46:00,14.9,10.4,29.99,West,268,0.0,21.0,82,0.00,,,0.00,VWS V14.01,2014-02-23 15:46:00,
2014-02-23 10:47:00,14.9,10.4,29.99,West,268,0.0,21.0,82,0.00,,,0.00,VWS V14.01,2014-02-23 15:47:00,
2014-02-23 10:48:00,14.9,10.4,29.99,SW,228,6.0,21.0,82,0.00,,,0.00,VWS V14.01,2014-02-23 15:48:00,
2014-02-23 10:49:00,14.9,10.7,29.99,SW,225,6.0,21.0,83,0.00,,,0.00,VWS V14.01,2014-02-23 15:49:00,
2014-02-23 10:50:00,14.9,10.7,29.99,West,264,3.0,21.0,83,0.00,,,0.00,VWS V14.01,2014-02-23 15:50:00,
2014-02-23 10:51:00,14.9,10.7,29.99,WSW,243,8.0,21.0,83,0.00,,,0.00,VWS V14.01,2014-02-23 15:51:00,
2014-02-23 10:52:00,14.9,10.7,29.98,SW,217,7.0,21.0,83,0.00,,,0.00,VWS V14.01,2014-02-23 15:52:00,
2014-02-23 10:53:00,14.9,10.7,29.99,WSW,258,8.0,21.0,83,0.00,,,0.00,VWS V14.01,2014-02-23 15:53:00,
2014-02-23 10:54:00,14.9,10.7,29.99,SW,233,5.0,21.0,83,0.00,,,0.00,VWS V14.01,2014-02-23 15:54:00,
2014-02-23 10:55:00,15.0,10.8,29.99,SSW,209,4.0,21.0,83,0.00,,,0.00,VWS V14.01,2014-02-23 15:55:00,
2014-02-23 10:56:00,15.0,10.8,29.98,West,269,3.0,21.0,83,0.00,,,0.00,VWS V14.01,2014-02-23 15:56:00,
2014-02-23 10:57:00,15.0,10.8,29.99,SW,225,11.0,21.0,83,0.00,,,0.00,VWS V14.01,2014-02-23 15:57:00,
2014-02-23 10:58:00,15.1,10.9,29.98,South,190,6.0,21.0,83,0.00,,,0.00,VWS V14.01,2014-02-23 15:58:00,
2014-02-23 10:59:00,15.1,10.9,29.99,SW,234,7.0,21.0,83,0.00,,,0.00,VWS V14.01,2014-02-23 15:59:00,
2014-02-23 11:00:00,15.1,10.9,29.98,SW,228,0.0,21.0,83,0.00,,,0.00,VWS V14.01,2014-02-23 16:00:00,
2014-02-23 11:01:00,15.1,10.9,29.98,SW,225,7.0,21.0,83,0.00,,,0.00,VWS V14.01,2014-02-23 16:01:00,
2014-02-23 11:02:00,15.1,10.9,29.98,WSW,238,3.0,21.0,83,0.00,,,0.00,VWS V14.01,2014-02-23 16:02:00,
2014-02-23 11:03:00,15.1,10.9,29.98,SW,224,9.0,21.0,83,0.00,,,0.00,VWS V14.01,2014-02-23 16:03:00,
2014-02-23 11:04:00,15.1,10.9,29.98,SW,217,9.0,21.0,83,0.00,,,0.00,VWS V14.01,2014-02-23 16:04:00,
2014-02-23 11:05:00,15.1,10.9,29.99,SW,214,7.0,21.0,83,0.00,,,0.00,VWS V14.01,2014-02-23 16:05:00,
2014-02-23 11:06:00,15.0,10.8,29.98,SSW,205,8.0,21.0,83,0.00,,,0.00,VWS V14.01,2014-02-23 16:06:00,
2014-02-23 11:07:00,15.0,10.8,29.98,West,277,3.0,21.0,83,0.00,,,0.00,VWS V14.01,2014-02-23 16:07:00,
2014-02-23 11:08:00,15.0,10.8,29.98,South,184,5.0,21.0,83,0.00,,,0.00,VWS V14.01,2014-02-23 16:08:00,
2014-02-23 11:09:00,15.1,11.1,29.98,SW,234,3.0,21.0,84,0.00,,,0.00,VWS V14.01,2014-02-23 16:09:00,
2014-02-23 11:10:00,15.1,11.1,29.98,SSW,213,4.0,21.0,84,0.00,,,0.00,VWS V14.01,2014-02-23 16:10:00,
2014-02-23 11:11:00,15.2,11.2,29.98,West,279,6.0,21.0,84,0.00,,,0.00,VWS V14.01,2014-02-23 16:11:00,
2014-02-23 11:12:00,15.2,11.2,29.98,SW,231,7.0,21.0,84,0.00,,,0.00,VWS V14.01,2014-02-23 16:12:00,
2014-02-23 11:13:00,15.2,11.2,29.98,West,261,4.0,21.0,84,0.00,,,0.00,VWS V14.01,2014-02-23 16:13:00,
2014-02-23 11:14:00,15.3,11.1,29.98,WSW,257,3.0,21.0,83,0.00,,,0.00,VWS V14.01,2014-02-23 16:14:00,
2014-02-23 11:15:00,15.3,11.1,29.98,West,260,0.0,21.0,83,0.00,,,0.00,VWS V14.01,2014-02-23 16:15:00,
2014-02-23 11:16:00,15.4,11.2,29.99,WSW,243,8.0,21.0,83,0.00,,,0.00,VWS V14.01,2014-02-23 16:16:00,
2014-02-23 11:17:00,15.4,11.2,29.98,SW,230,14.0,21.0,83,0.00,,,0.00,VWS V14.01,2014-02-23 16:17:00,
2014-02-23 11:18:00,15.5,11.3,29.99,SW,221,5.0,21.0,83,0.00,,,0.00,VWS V14.01,2014-02-23 16:18:00,
2014-02-23 11:19:00,15.4,10.9,29.98,WSW,248,0.0,21.0,82,0.00,,,0.00,VWS V14.01,2014-02-23 16:19:00,
2014-02-23 11:20:00,15.5,11.0,29.98,SW,226,13.0,21.0,82,0.00,,,0.00,VWS V14.01,2014-02-23 16:20:00,
2014-02-23 11:21:00,15.5,11.0,29.98,SSW,212,8.0,21.0,82,0.00,,,0.00,VWS V14.01,2014-02-23 16:21:00,
2014-02-23 11:22:00,15.5,11.0,29.98,SW,217,6.0,21.0,82,0.00,,,0.00,VWS V14.01,2014-02-23 16:22:00,
2014-02-23 11:23:00,15.4,10.9,29.98,SW,226,7.0,21.0,82,0.00,,,0.00,VWS V14.01,2014-02-23 16:23:00,
2014-02-23 11:24:00,15.5,11.0,29.98,SW,227,0.0,21.0,82,0.00,,,0.00,VWS V14.01,2014-02-23 16:24:00,
2014-02-23 11:25:00,15.5,11.0,29.98,WSW,248,10.0,21.0,82,0.00,,,0.00,VWS V14.01,2014-02-23 16:25:00,
2014-02-23 11:26:00,15.5,11.0,29.98,West,277,3.0,21.0,82,0.00,,,0.00,VWS V14.01,2014-02-23 16:26:00,
2014-02-23 11:27:00,15.5,11.0,29.98,SW,221,5.0,21.0,82,0.00,,,0.00,VWS V14.01,2014-02-23 16:27:00,
2014-02-23 11:28:00,15.6,11.1,29.98,SSW,207,11.0,21.0,82,0.00,,,0.00,VWS V14.01,2014-02-23 16:28:00,
2014-02-23 11:29:00,15.6,10.8,29.98,West,273,7.0,21.0,81,0.00,,,0.00,VWS V14.01,2014-02-23 16:29:00,
2014-02-23 11:30:00,15.7,10.9,29.98,WSW,244,0.0,21.0,81,0.00,,,0.00,VWS V14.01,2014-02-23 16:30:00,
2014-02-23 11:31:00,15.7,10.9,29.98,WSW,257,1.0,21.0,81,0.00,,,0.00,VWS V14.01,2014-02-23 16:31:00,
2014-02-23 11:32:00,15.8,11.0,29.98,SW,235,7.0,21.0,81,0.00,,,0.00,VWS V14.01,2014-02-23 16:32:00,
2014-02-23 11:33:00,15.8,11.0,29.98,SSW,197,5.0,21.0,81,0.00,,,0.00,VWS V14.01,2014-02-23 16:33:00,
2014-02-23 11:34:00,15.7,10.9,29.98,SW,216,7.0,21.0,81,0.00,,,0.00,VWS V14.01,2014-02-23 16:34:00,
2014-02-23 11:35:00,15.8,11.0,29.98,West,259,6.0,21.0,81,0.00,,,0.00,VWS V14.01,2014-02-23 16:35:00,
2014-02-23 11:36:00,15.8,11.0,29.98,SSW,211,5.0,21.0,81,0.00,,,0.00,VWS V14.01,2014-02-23 16:36:00,
2014-02-23 11:37:00,15.8,11.0,29.98,SSW,212,5.0,21.0,81,0.00,,,0.00,VWS V14.01,2014-02-23 16:37:00,
2014-02-23 11:38:00,15.8,11.0,29.98,SSW,208,6.0,21.0,81,0.00,,,0.00,VWS V14.01,2014-02-23 16:38:00,
2014-02-23 11:39:00,15.8,11.0,29.98,South,187,4.0,21.0,81,0.00,,,0.00,VWS V14.01,2014-02-23 16:39:00,
2014-02-23 11:40:00,15.8,11.3,29.98,SW,215,7.0,21.0,82,0.00,,,0.00,VWS V14.01,2014-02-23 16:40:00,
2014-02-23 11:41:00,15.8,11.3,29.98,SSW,207,5.0,21.0,82,0.00,,,0.00,VWS V14.01,2014-02-23 16:41:00,
2014-02-23 11:42:00,15.8,11.3,29.98,West,273,4.0,21.0,82,0.00,,,0.00,VWS V14.01,2014-02-23 16:42:00,
2014-02-23 11:43:00,15.8,11.3,29.98,West,273,4.0,21.0,82,0.00,,,0.00,VWS V14.01,2014-02-23 16:43:00,
2014-02-23 11:44:00,15.8,11.3,29.98,SSW,206,2.0,21.0,82,0.00,,,0.00,VWS V14.01,2014-02-23 16:44:00,
2014-02-23 11:45:00,15.8,11.3,29.98,WSW,245,2.0,21.0,82,0.00,,,0.00,VWS V14.01,2014-02-23 16:45:00,
2014-02-23 11:46:00,15.8,11.3,29.98,SW,232,0.0,21.0,82,0.00,,,0.00,VWS V14.01,2014-02-23 16:46:00,
2014-02-23 11:47:00,15.8,11.3,29.98,SW,222,2.0,21.0,82,0.00,,,0.00,VWS V14.01,2014-02-23 16:47:00,
2014-02-23 11:48:00,15.8,11.3,29.98,SW,222,2.0,21.0,82,0.00,,,0.00,VWS V14.01,2014-02-23 16:48:00,
2014-02-23 11:49:00,15.8,11.6,29.98,WSW,251,0.0,21.0,83,0.00,,,0.00,VWS V14.01,2014-02-23 16:49:00,
2014-02-23 11:50:00,15.9,11.4,29.98,NNE,20,0.0,21.0,82,0.00,,,0.00,VWS V14.01,2014-02-23 16:50:00,
2014-02-23 11:51:00,15.9,11.4,29.98,SSW,211,0.0,21.0,82,0.00,,,0.00,VWS V14.01,2014-02-23 16:51:00,
2014-02-23 11:52:00,15.9,11.7,29.98,WSW,243,4.0,21.0,83,0.00,,,0.00,VWS V14.01,2014-02-23 16:52:00,
2014-02-23 11:53:00,15.9,11.7,29.98,WSW,243,4.0,21.0,83,0.00,,,0.00,VWS V14.01,2014-02-23 16:53:00,
2014-02-23 11:54:00,15.9,11.7,29.98,SW,215,4.0,21.0,83,0.00,,,0.00,VWS V14.01,2014-02-23 16:54:00,
2014-02-23 11:55:00,16.0,11.8,29.98,SSW,201,3.0,21.0,83,0.00,,,0.00,VWS V14.01,2014-02-23 16:55:00,
2014-02-23 11:56:00,16.0,11.8,29.98,SW,215,0.0,21.0,83,0.00,,,0.00,VWS V14.01,2014-02-23 16:56:00,
2014-02-23 11:57:00,16.0,11.5,29.99,WSW,240,14.0,21.0,82,0.00,,,0.00,VWS V14.01,2014-02-23 16:57:00,
2014-02-23 11:58:00,16.0,11.5,29.98,West,263,8.0,21.0,82,0.00,,,0.00,VWS V14.01,2014-02-23 16:58:00,
2014-02-23 11:59:00,15.9,11.7,29.99,SW,215,9.0,21.0,83,0.00,,,0.00,VWS V14.01,2014-02-23 16:59:00,
2014-02-23 12:00:00,15.9,11.4,29.99,SW,215,6.0,21.0,82,0.00,,,0.00,VWS V14.01,2014-02-23 17:00:00,
2014-02-23 12:01:00,15.8,11.3,29.99,SW,214,7.0,21.0,82,0.00,,,0.00,VWS V14.01,2014-02-23 17:01:00,
2014-02-23 12:02:00,15.8,11.3,29.98,SSW,205,5.0,21.0,82,0.00,,,0.00,VWS V14.01,2014-02-23 17:02:00,
2014-02-23 12:03:00,15.7,11.2,29.99,West,271,6.0,21.0,82,0.00,,,0.00,VWS V14.01,2014-02-23 17:03:00,
2014-02-23 12:04:00,15.7,11.2,29.98,SW,232,6.0,21.0,82,0.00,,,0.00,VWS V14.01,2014-02-23 17:04:00,
2014-02-23 12:05:00,15.7,11.2,29.98,SSW,208,6.0,21.0,82,0.00,,,0.00,VWS V14.01,2014-02-23 17:05:00,
2014-02-23 12:06:00,15.7,11.2,29.98,West,261,0.0,21.0,82,0.00,,,0.00,VWS V14.01,2014-02-23 17:06:00,
2014-02-23 12:07:00,15.8,11.3,29.98,SW,229,11.0,21.0,82,0.00,,,0.00,VWS V14.01,2014-02-23 17:07:00,
2014-02-23 12:08:00,15.7,11.2,29.98,SW,232,11.0,21.0,82,0.00,,,0.00,VWS V14.01,2014-02-23 17:08:00,
2014-02-23 12:09:00,15.8,11.3,29.98,SW,221,3.0,21.0,82,0.00,,,0.00,VWS V14.01,2014-02-23 17:09:00,
2014-02-23 12:10:00,15.8,11.3,29.98,SW,231,11.0,21.0,82,0.00,,,0.00,VWS V14.01,2014-02-23 17:10:00,
2014-02-23 12:11:00,15.7,11.2,29.98,SSE,148,0.0,21.0,82,0.00,,,0.00,VWS V14.01,2014-02-23 17:11:00,
2014-02-23 12:12:00,15.6,11.1,29.98,WSW,248,11.0,21.0,82,0.00,,,0.00,VWS V14.01,2014-02-23 17:12:00,
2014-02-23 12:13:00,15.7,11.2,29.98,West,265,0.0,21.0,82,0.00,,,0.00,VWS V14.01,2014-02-23 17:13:00,
2014-02-23 12:14:00,15.7,11.2,29.98,SSW,204,4.0,21.0,82,0.00,,,0.00,VWS V14.01,2014-02-23 17:14:00,
2014-02-23 12:15:00,15.7,11.2,29.98,WSW,243,9.0,21.0,82,0.00,,,0.00,VWS V14.01,2014-02-23 17:15:00,
2014-02-23 12:16:00,15.7,11.5,29.98,WSW,240,8.0,21.0,83,0.00,,,0.00,VWS V14.01,2014-02-23 17:16:00,
2014-02-23 12:17:00,15.8,11.3,29.98,SW,230,9.0,21.0,82,0.00,,,0.00,VWS V14.01,2014-02-23 17:17:00,
2014-02-23 12:18:00,15.7,11.2,29.98,South,190,11.0,21.0,82,0.00,,,0.00,VWS V14.01,2014-02-23 17:18:00,
2014-02-23 12:19:00,15.8,11.3,29.98,SSW,201,6.0,21.0,82,0.00,,,0.00,VWS V14.01,2014-02-23 17:19:00,
2014-02-23 12:20:00,15.8,11.3,29.98,SSW,211,11.0,21.0,82,0.00,,,0.00,VWS V14.01,2014-02-23 17:20:00,
2014-02-23 12:21:00,15.9,11.4,29.98,SW,233,14.0,21.0,82,0.00,,,0.00,VWS V14.01,2014-02-23 17:21:00,
2014-02-23 12:22:00,15.9,11.4,29.98,SSW,200,1.0,21.0,82,0.00,,,0.00,VWS V14.01,2014-02-23 17:22:00,
2014-02-23 12:23:00,15.9,11.4,29.98,SW,232,1.0,21.0,82,0.00,,,0.00,VWS V14.01,2014-02-23 17:23:00,
2014-02-23 12:24:00,15.9,11.4,29.98,SW,225,7.0,21.0,82,0.00,,,0.00,VWS V14.01,2014-02-23 17:24:00,
2014-02-23 12:25:00,16.0,11.5,29.98,SW,221,5.0,21.0,82,0.00,,,0.00,VWS V14.01,2014-02-23 17:25:00,
2014-02-23 12:26:00,16.0,11.5,29.98,SW,224,5.0,21.0,82,0.00,,,0.00,VWS V14.01,2014-02-23 17:26:00,
2014-02-23 12:27:00,16.1,11.6,29.98,WSW,245,7.0,21.0,82,0.00,,,0.00,VWS V14.01,2014-02-23 17:27:00,
2014-02-23 12:28:00,16.1,11.6,29.98,SSW,209,9.0,21.0,82,0.00,,,0.00,VWS V14.01,2014-02-23 17:28:00,
2014-02-23 12:29:00,16.1,11.6,29.98,SSW,210,8.0,21.0,82,0.00,,,0.00,VWS V14.01,2014-02-23 17:29:00,
2014-02-23 12:30:00,16.1,11.6,29.98,SW,230,9.0,21.0,82,0.00,,,0.00,VWS V14.01,2014-02-23 17:30:00,
2014-02-23 12:31:00,16.1,11.3,29.98,SSW,200,10.0,21.0,81,0.00,,,0.00,VWS V14.01,2014-02-23 17:31:00,
2014-02-23 12:32:00,15.9,11.4,29.98,SW,218,5.0,21.0,82,0.00,,,0.00,VWS V14.01,2014-02-23 17:32:00,
2014-02-23 12:33:00,16.0,11.5,29.98,SW,223,7.0,21.0,82,0.00,,,0.00,VWS V14.01,2014-02-23 17:33:00,
2014-02-23 12:34:00,15.9,11.4,29.98,SW,228,7.0,21.0,82,0.00,,,0.00,VWS V14.01,2014-02-23 17:34:00,
2014-02-23 12:35:00,15.9,11.4,29.98,SW,215,8.0,21.0,82,0.00,,,0.00,VWS V14.01,2014-02-23 17:35:00,
2014-02-23 12:36:00,15.9,11.1,29.98,WNW,283,0.0,21.0,81,0.00,,,0.00,VWS V14.01,2014-02-23 17:36:00,
2014-02-23 12:37:00,15.8,11.3,29.98,WSW,246,2.0,21.0,82,0.00,,,0.00,VWS V14.01,2014-02-23 17:37:00,
2014-02-23 12:38:00,15.9,11.4,29.98,South,182,0.0,21.0,82,0.00,,,0.00,VWS V14.01,2014-02-23 17:38:00,
2014-02-23 12:39:00,15.9,11.4,29.98,SSE,153,8.0,21.0,82,0.00,,,0.00,VWS V14.01,2014-02-23 17:39:00,
2014-02-23 12:40:00,15.9,11.4,29.98,SW,222,6.0,21.0,82,0.00,,,0.00,VWS V14.01,2014-02-23 17:40:00,
2014-02-23 12:41:00,15.9,11.4,29.98,SSW,201,0.0,21.0,82,0.00,,,0.00,VWS V14.01,2014-02-23 17:41:00,
2014-02-23 12:42:00,15.9,11.4,29.98,SW,214,10.0,21.0,82,0.00,,,0.00,VWS V14.01,2014-02-23 17:42:00,
2014-02-23 12:43:00,16.0,11.5,29.98,SW,223,4.0,21.0,82,0.00,,,0.00,VWS V14.01,2014-02-23 17:43:00,
2014-02-23 12:44:00,16.0,11.5,29.98,WSW,244,8.0,21.0,82,0.00,,,0.00,VWS V14.01,2014-02-23 17:44:00,
2014-02-23 12:45:00,16.0,11.5,29.98,West,267,0.0,21.0,82,0.00,,,0.00,VWS V14.01,2014-02-23 17:45:00,
2014-02-23 12:46:00,16.0,11.5,29.98,SW,232,12.0,21.0,82,0.00,,,0.00,VWS V14.01,2014-02-23 17:46:00,
2014-02-23 12:47:00,16.1,11.6,29.98,SSW,206,6.0,21.0,82,0.00,,,0.00,VWS V14.01,2014-02-23 17:47:00,
2014-02-23 12:48:00,16.2,11.7,29.98,WSW,242,6.0,21.0,82,0.00,,,0.00,VWS V14.01,2014-02-23 17:48:00,
2014-02-23 12:49:00,16.2,11.7,29.98,WSW,256,8.0,21.0,82,0.00,,,0.00,VWS V14.01,2014-02-23 17:49:00,
2014-02-23 12:50:00,16.2,11.7,29.98,SSW,211,2.0,21.0,82,0.00,,,0.00,VWS V14.01,2014-02-23 17:50:00,
2014-02-23 12:51:00,16.3,12.1,29.98,SW,218,8.0,21.0,83,0.00,,,0.00,VWS V14.01,2014-02-23 17:51:00,
2014-02-23 12:52:00,16.3,12.1,29.97,West,259,8.0,21.0,83,0.00,,,0.00,VWS V14.01,2014-02-23 17:52:00,
2014-02-23 12:53:00,16.4,11.9,29.97,South,184,5.0,21.0,82,0.00,,,0.00,VWS V14.01,2014-02-23 17:53:00,
2014-02-23 12:54:00,16.4,11.9,29.97,South,184,5.0,21.0,82,0.00,,,0.00,VWS V14.01,2014-02-23 17:54:00,
2014-02-23 12:55:00,16.4,11.9,29.97,SW,231,3.0,21.0,82,0.00,,,0.00,VWS V14.01,2014-02-23 17:55:00,
2014-02-23 12:56:00,16.5,12.0,29.97,WSW,240,9.0,21.0,82,0.00,,,0.00,VWS V14.01,2014-02-23 17:56:00,
2014-02-23 12:57:00,16.5,12.0,29.97,West,270,2.0,21.0,82,0.00,,,0.00,VWS V14.01,2014-02-23 17:57:00,
2014-02-23 12:58:00,16.6,12.1,29.97,SW,217,7.0,21.0,82,0.00,,,0.00,VWS V14.01,2014-02-23 17:58:00,
2014-02-23 12:59:00,16.6,12.1,29.97,SW,219,4.0,21.0,82,0.00,,,0.00,VWS V14.01,2014-02-23 17:59:00,
2014-02-23 13:00:00,16.7,12.2,29.97,WSW,252,11.0,21.0,82,0.00,,,0.00,VWS V14.01,2014-02-23 18:00:00,
2014-02-23 13:01:00,16.7,12.2,29.97,WSW,248,4.0,21.0,82,0.00,,,0.00,VWS V14.01,2014-02-23 18:01:00,
2014-02-23 13:02:00,16.7,12.2,29.97,WSW,239,8.0,21.0,82,0.00,,,0.00,VWS V14.01,2014-02-23 18:02:00,
2014-02-23 13:03:00,16.7,11.9,29.97,West,264,6.0,21.0,81,0.00,,,0.00,VWS V14.01,2014-02-23 18:03:00,
2014-02-23 13:04:00,16.7,11.9,29.97,SSW,196,5.0,21.0,81,0.00,,,0.00,VWS V14.01,2014-02-23 18:04:00,
2014-02-23 13:05:00,16.7,12.2,29.97,SW,221,8.0,21.0,82,0.00,,,0.00,VWS V14.01,2014-02-23 18:05:00,
2014-02-23 13:06:00,16.6,11.8,29.97,SW,226,11.0,21.0,81,0.00,,,0.00,VWS V14.01,2014-02-23 18:06:00,
2014-02-23 13:07:00,16.6,12.1,29.97,WNW,296,4.0,21.0,82,0.00,,,0.00,VWS V14.01,2014-02-23 18:07:00,
2014-02-23 13:08:00,16.6,12.1,29.97,West,281,0.0,21.0,82,0.00,,,0.00,VWS V14.01,2014-02-23 18:08:00,
2014-02-23 13:09:00,16.6,12.1,29.97,SW,215,0.0,21.0,82,0.00,,,0.00,VWS V14.01,2014-02-23 18:09:00,
2014-02-23 13:10:00,16.6,12.1,29.97,WNW,298,5.0,21.0,82,0.00,,,0.00,VWS V14.01,2014-02-23 18:10:00,
2014-02-23 13:11:00,16.6,12.1,29.97,WSW,238,6.0,21.0,82,0.00,,,0.00,VWS V14.01,2014-02-23 18:11:00,
2014-02-23 13:12:00,16.6,12.1,29.97,South,190,0.0,21.0,82,0.00,,,0.00,VWS V14.01,2014-02-23 18:12:00,
2014-02-23 13:13:00,16.6,12.4,29.97,SW,225,3.0,21.0,83,0.00,,,0.00,VWS V14.01,2014-02-23 18:13:00,
2014-02-23 13:14:00,16.6,12.4,29.97,WSW,242,6.0,21.0,83,0.00,,,0.00,VWS V14.01,2014-02-23 18:14:00,
2014-02-23 13:15:00,16.6,12.4,29.97,WSW,257,15.0,21.0,83,0.00,,,0.00,VWS V14.01,2014-02-23 18:15:00,
2014-02-23 13:16:00,16.6,12.4,29.97,WSW,250,7.0,21.0,83,0.00,,,0.00,VWS V14.01,2014-02-23 18:16:00,
2014-02-23 13:17:00,16.6,12.1,29.97,SW,228,8.0,21.0,82,0.00,,,0.00,VWS V14.01,2014-02-23 18:17:00,
2014-02-23 13:18:00,16.6,12.4,29.97,SSW,196,10.0,21.0,83,0.00,,,0.00,VWS V14.01,2014-02-23 18:18:00,
2014-02-23 13:19:00,16.6,12.4,29.97,SSW,194,12.0,21.0,83,0.00,,,0.00,VWS V14.01,2014-02-23 18:19:00,
2014-02-23 13:20:00,16.6,12.4,29.97,SW,219,11.0,21.0,83,0.00,,,0.00,VWS V14.01,2014-02-23 18:20:00,
2014-02-23 13:21:00,16.6,12.4,29.97,SW,217,11.0,21.0,83,0.00,,,0.00,VWS V14.01,2014-02-23 18:21:00,
2014-02-23 13:22:00,16.6,12.4,29.97,SSW,205,11.0,21.0,83,0.00,,,0.00,VWS V14.01,2014-02-23 18:22:00,
2014-02-23 13:23:00,16.5,12.2,29.97,WNW,283,4.0,21.0,83,0.00,,,0.00,VWS V14.01,2014-02-23 18:23:00,
2014-02-23 13:24:00,16.5,12.2,29.97,SSE,157,11.0,21.0,83,0.00,,,0.00,VWS V14.01,2014-02-23 18:24:00,
2014-02-23 13:25:00,16.4,12.1,29.97,WNW,294,4.0,21.0,83,0.00,,,0.00,VWS V14.01,2014-02-23 18:25:00,
2014-02-23 13:26:00,16.4,12.1,29.97,WNW,290,2.0,21.0,83,0.00,,,0.00,VWS V14.01,2014-02-23 18:26:00,
2014-02-23 13:27:00,16.4,12.1,29.97,SW,227,2.0,21.0,83,0.00,,,0.00,VWS V14.01,2014-02-23 18:27:00,
2014-02-23 13:28:00,16.4,12.1,29.97,SW,229,11.0,21.0,83,0.00,,,0.00,VWS V14.01,2014-02-23 18:28:00,
2014-02-23 13:29:00,16.4,12.1,29.96,SW,227,1.0,21.0,83,0.00,,,0.00,VWS V14.01,2014-02-23 18:29:00,
2014-02-23 13:30:00,16.4,12.1,29.97,SW,225,8.0,13.0,83,0.00,,,0.00,VWS V14.01,2014-02-23 18:30:00,
2014-02-23 13:31:00,16.4,12.1,29.97,SSW,202,5.0,8.0,83,0.00,,,0.00,VWS V14.01,2014-02-23 18:31:00,
2014-02-23 13:32:00,16.5,12.2,29.97,SW,225,6.0,9.0,83,0.00,,,0.00,VWS V14.01,2014-02-23 18:32:00,
2014-02-23 13:33:00,16.5,12.2,29.97,SW,225,4.0,7.0,83,0.00,,,0.00,VWS V14.01,2014-02-23 18:33:00,
2014-02-23 13:34:00,16.5,12.2,29.97,WSW,248,6.0,11.0,83,0.00,,,0.00,VWS V14.01,2014-02-23 18:34:00,
2014-02-23 13:35:00,16.6,12.6,29.96,SW,225,3.0,7.0,84,0.00,,,0.00,VWS V14.01,2014-02-23 18:35:00,
2014-02-23 13:36:00,16.6,12.6,29.97,West,270,6.0,14.0,84,0.00,,,0.00,VWS V14.01,2014-02-23 18:36:00,
2014-02-23 13:37:00,16.6,12.4,29.97,WSW,248,3.0,9.0,83,0.00,,,0.00,VWS V14.01,2014-02-23 18:37:00,
2014-02-23 13:38:00,16.7,12.7,29.97,SW,225,7.0,14.0,84,0.00,,,0.00,VWS V14.01,2014-02-23 18:38:00,
2014-02-23 13:39:00,16.7,12.7,29.97,WSW,248,6.0,13.0,84,0.00,,,0.00,VWS V14.01,2014-02-23 18:39:00,
2014-02-23 13:40:00,16.7,12.7,29.97,WSW,238,4.0,13.0,84,0.00,,,0.00,VWS V14.01,2014-02-23 18:40:00,
2014-02-23 13:41:00,16.7,12.7,29.97,SW,221,8.0,13.0,84,0.00,,,0.00,VWS V14.01,2014-02-23 18:41:00,
2014-02-23 13:42:00,16.7,12.7,29.97,WSW,238,0.0,13.0,84,0.00,,,0.00,VWS V14.01,2014-02-23 18:42:00,
2014-02-23 13:43:00,16.8,12.8,29.97,West,261,7.0,13.0,84,0.00,,,0.00,VWS V14.01,2014-02-23 18:43:00,
2014-02-23 13:44:00,16.8,12.5,29.97,WNW,284,8.0,13.0,83,0.00,,,0.00,VWS V14.01,2014-02-23 18:44:00,
2014-02-23 13:45:00,16.8,12.8,29.96,WSW,237,2.0,13.0,84,0.00,,,0.00,VWS V14.01,2014-02-23 18:45:00,
2014-02-23 13:46:00,16.9,12.6,29.97,SW,221,3.0,13.0,83,0.00,,,0.00,VWS V14.01,2014-02-23 18:46:00,
2014-02-23 13:47:00,16.9,12.4,29.97,SW,217,4.0,13.0,82,0.00,,,0.00,VWS V14.01,2014-02-23 18:47:00,
2014-02-23 13:48:00,17.0,12.5,29.97,SSW,196,8.0,13.0,82,0.00,,,0.00,VWS V14.01,2014-02-23 18:48:00,
2014-02-23 13:49:00,17.1,12.6,29.96,SSW,205,2.0,13.0,82,0.00,,,0.00,VWS V14.01,2014-02-23 18:49:00,
2014-02-23 13:50:00,17.1,12.8,29.96,SSW,192,0.0,13.0,83,0.00,,,0.00,VWS V14.01,2014-02-23 18:50:00,
2014-02-23 13:51:00,17.1,12.6,29.96,WSW,241,1.0,13.0,82,0.00,,,0.00,VWS V14.01,2014-02-23 18:51:00,
2014-02-23 13:52:00,17.2,12.7,29.96,SW,215,0.0,13.0,82,0.00,,,0.00,VWS V14.01,2014-02-23 18:52:00,
2014-02-23 13:53:00,17.2,12.4,29.97,SSW,198,9.0,13.0,81,0.00,,,0.00,VWS V14.01,2014-02-23 18:53:00,
2014-02-23 13:54:00,17.2,12.4,29.96,SW,229,6.0,13.0,81,0.00,,,0.00,VWS V14.01,2014-02-23 18:54:00,
2014-02-23 13:55:00,17.2,12.4,29.96,SW,229,11.0,13.0,81,0.00,,,0.00,VWS V14.01,2014-02-23 18:55:00,
2014-02-23 13:56:00,17.2,12.4,29.96,WSW,238,4.0,13.0,81,0.00,,,0.00,VWS V14.01,2014-02-23 18:56:00,
2014-02-23 13:57:00,17.2,12.4,29.96,West,273,3.0,13.0,81,0.00,,,0.00,VWS V14.01,2014-02-23 18:57:00,
2014-02-23 13:58:00,17.3,12.5,29.96,SW,228,10.0,13.0,81,0.00,,,0.00,VWS V14.01,2014-02-23 18:58:00,
2014-02-23 13:59:00,17.3,12.5,29.96,SSW,202,5.0,13.0,81,0.00,,,0.00,VWS V14.01,2014-02-23 18:59:00,
2014-02-23 14:00:00,17.3,12.5,29.96,SW,231,10.0,13.0,81,0.00,,,0.00,VWS V14.01,2014-02-23 19:00:00,
2014-02-23 14:01:00,17.3,12.5,29.96,SSW,196,8.0,13.0,81,0.00,,,0.00,VWS V14.01,2014-02-23 19:01:00,
2014-02-23 14:02:00,17.3,12.5,29.96,SSW,205,5.0,13.0,81,0.00,,,0.00,VWS V14.01,2014-02-23 19:02:00,
2014-02-23 14:03:00,17.3,12.5,29.96,WSW,241,10.0,13.0,81,0.00,,,0.00,VWS V14.01,2014-02-23 19:03:00,
2014-02-23 14:04:00,17.3,12.5,29.96,South,176,5.0,13.0,81,0.00,,,0.00,VWS V14.01,2014-02-23 19:04:00,
2014-02-23 14:05:00,17.2,12.7,29.96,SW,226,13.0,13.0,82,0.00,,,0.00,VWS V14.01,2014-02-23 19:05:00,
2014-02-23 14:06:00,17.2,12.7,29.96,WSW,254,7.0,13.0,82,0.00,,,0.00,VWS V14.01,2014-02-23 19:06:00,
2014-02-23 14:07:00,17.2,12.7,29.96,SW,215,4.0,13.0,82,0.00,,,0.00,VWS V14.01,2014-02-23 19:07:00,
2014-02-23 14:08:00,17.2,12.9,29.96,SSW,202,9.0,13.0,83,0.00,,,0.00,VWS V14.01,2014-02-23 19:08:00,
2014-02-23 14:09:00,17.2,12.9,29.96,SSW,209,11.0,13.0,83,0.00,,,0.00,VWS V14.01,2014-02-23 19:09:00,
2014-02-23 14:10:00,17.1,12.8,29.96,SSW,211,5.0,13.0,83,0.00,,,0.00,VWS V14.01,2014-02-23 19:10:00,
2014-02-23 14:11:00,17.1,12.8,29.96,SW,219,10.0,13.0,83,0.00,,,0.00,VWS V14.01,2014-02-23 19:11:00,
2014-02-23 14:12:00,17.1,12.8,29.96,SW,222,4.0,13.0,83,0.00,,,0.00,VWS V14.01,2014-02-23 19:12:00,
2014-02-23 14:13:00,17.1,13.1,29.96,SW,233,1.0,13.0,84,0.00,,,0.00,VWS V14.01,2014-02-23 19:13:00,
2014-02-23 14:14:00,17.1,13.1,29.96,WSW,238,0.0,13.0,84,0.00,,,0.00,VWS V14.01,2014-02-23 19:14:00,
2014-02-23 14:15:00,17.2,13.2,29.96,SSW,209,0.0,13.0,84,0.00,,,0.00,VWS V14.01,2014-02-23 19:15:00,
2014-02-23 14:16:00,17.2,13.2,29.96,SSW,209,0.0,13.0,84,0.00,,,0.00,VWS V14.01,2014-02-23 19:16:00,
2014-02-23 14:17:00,17.2,13.5,29.96,South,180,6.0,13.0,85,0.00,,,0.00,VWS V14.01,2014-02-23 19:17:00,
2014-02-23 14:18:00,17.2,13.2,29.95,SW,229,8.0,13.0,84,0.00,,,0.00,VWS V14.01,2014-02-23 19:18:00,
2014-02-23 14:19:00,17.2,13.2,29.96,WSW,244,5.0,13.0,84,0.00,,,0.00,VWS V14.01,2014-02-23 19:19:00,
2014-02-23 14:20:00,17.3,13.3,29.96,SSW,207,8.0,13.0,84,0.00,,,0.00,VWS V14.01,2014-02-23 19:20:00,
2014-02-23 14:21:00,17.3,13.3,29.96,SSW,207,8.0,13.0,84,0.00,,,0.00,VWS V14.01,2014-02-23 19:21:00,
2014-02-23 14:22:00,17.3,13.3,29.96,West,262,10.0,13.0,84,0.00,,,0.00,VWS V14.01,2014-02-23 19:22:00,
2014-02-23 14:23:00,17.3,13.0,29.95,SSW,194,7.0,13.0,83,0.00,,,0.00,VWS V14.01,2014-02-23 19:23:00,
2014-02-23 14:24:00,17.3,13.0,29.95,SSW,194,5.0,13.0,83,0.00,,,0.00,VWS V14.01,2014-02-23 19:24:00,
2014-02-23 14:25:00,17.3,13.0,29.96,SW,216,7.0,13.0,83,0.00,,,0.00,VWS V14.01,2014-02-23 19:25:00,
2014-02-23 14:26:00,17.3,13.0,29.96,South,180,11.0,13.0,83,0.00,,,0.00,VWS V14.01,2014-02-23 19:26:00,
2014-02-23 14:27:00,17.3,12.8,29.96,WNW,289,7.0,13.0,82,0.00,,,0.00,VWS V14.01,2014-02-23 19:27:00,
2014-02-23 14:28:00,17.3,12.8,29.96,WSW,254,9.0,13.0,82,0.00,,,0.00,VWS V14.01,2014-02-23 19:28:00,
2014-02-23 14:29:00,17.2,12.7,29.96,SW,226,18.0,18.0,82,0.00,,,0.00,VWS V14.01,2014-02-23 19:29:00,
2014-02-23 14:30:00,17.1,12.8,29.96,SW,225,14.0,14.0,83,0.00,,,0.00,VWS V14.01,2014-02-23 19:30:00,
2014-02-23 14:31:00,17.1,12.8,29.96,WSW,244,19.0,19.0,83,0.00,,,0.00,VWS V14.01,2014-02-23 19:31:00,
2014-02-23 14:32:00,17.1,12.8,29.96,SSW,204,12.0,13.0,83,0.00,,,0.00,VWS V14.01,2014-02-23 19:32:00,
2014-02-23 14:33:00,17.0,12.7,29.96,SW,232,13.0,13.0,83,0.00,,,0.00,VWS V14.01,2014-02-23 19:33:00,
2014-02-23 14:34:00,17.0,12.7,29.96,WSW,254,4.0,13.0,83,0.00,,,0.00,VWS V14.01,2014-02-23 19:34:00,
2014-02-23 14:35:00,16.9,12.6,29.96,SSW,205,0.0,13.0,83,0.00,,,0.00,VWS V14.01,2014-02-23 19:35:00,
2014-02-23 14:36:00,16.9,12.6,29.96,SW,216,3.0,13.0,83,0.00,,,0.00,VWS V14.01,2014-02-23 19:36:00,
2014-02-23 14:37:00,16.9,12.6,29.96,SW,232,6.0,13.0,83,0.00,,,0.00,VWS V14.01,2014-02-23 19:37:00,
2014-02-23 14:38:00,16.8,12.5,29.96,SW,232,13.0,13.0,83,0.00,,,0.00,VWS V14.01,2014-02-23 19:38:00,
2014-02-23 14:39:00,16.7,12.7,29.96,WSW,238,6.0,13.0,84,0.00,,,0.00,VWS V14.01,2014-02-23 19:39:00,
2014-02-23 14:40:00,16.7,12.7,29.96,WNW,283,8.0,13.0,84,0.00,,,0.00,VWS V14.01,2014-02-23 19:40:00,
2014-02-23 14:41:00,16.7,12.7,29.96,WSW,238,8.0,13.0,84,0.00,,,0.00,VWS V14.01,2014-02-23 19:41:00,
2014-02-23 14:42:00,16.7,13.0,29.96,WSW,241,10.0,13.0,85,0.00,,,0.00,VWS V14.01,2014-02-23 19:42:00,
2014-02-23 14:43:00,16.6,12.6,29.96,SW,220,0.0,13.0,84,0.00,,,0.00,VWS V14.01,2014-02-23 19:43:00,
2014-02-23 14:44:00,16.6,12.6,29.96,SW,231,10.0,13.0,84,0.00,,,0.00,VWS V14.01,2014-02-23 19:44:00,
2014-02-23 14:45:00,16.6,12.6,29.96,WSW,248,10.0,13.0,84,0.00,,,0.00,VWS V14.01,2014-02-23 19:45:00,
2014-02-23 14:46:00,16.6,12.6,29.96,SW,219,10.0,13.0,84,0.00,,,0.00,VWS V14.01,2014-02-23 19:46:00,
2014-02-23 14:47:00,16.6,12.6,29.96,SSW,213,7.0,13.0,84,0.00,,,0.00,VWS V14.01,2014-02-23 19:47:00,
2014-02-23 14:48:00,16.6,12.6,29.96,SW,227,5.0,13.0,84,0.00,,,0.00,VWS V14.01,2014-02-23 19:48:00,
2014-02-23 14:49:00,16.6,12.6,29.96,WSW,255,5.0,13.0,84,0.00,,,0.00,VWS V14.01,2014-02-23 19:49:00,
2014-02-23 14:50:00,16.6,12.6,29.96,SW,219,11.0,13.0,84,0.00,,,0.00,VWS V14.01,2014-02-23 19:50:00,
2014-02-23 14:51:00,16.6,12.6,29.96,SW,236,14.0,14.0,84,0.00,,,0.00,VWS V14.01,2014-02-23 19:51:00,
2014-02-23 14:52:00,16.6,12.6,29.96,SSW,202,4.0,13.0,84,0.00,,,0.00,VWS V14.01,2014-02-23 19:52:00,
2014-02-23 14:53:00,16.6,12.6,29.96,SW,233,5.0,13.0,84,0.00,,,0.00,VWS V14.01,2014-02-23 19:53:00,
2014-02-23 14:54:00,16.6,12.6,29.96,SW,236,9.0,13.0,84,0.00,,,0.00,VWS V14.01,2014-02-23 19:54:00,
2014-02-23 14:55:00,16.5,12.5,29.96,SSW,197,7.0,13.0,84,0.00,,,0.00,VWS V14.01,2014-02-23 19:55:00,
2014-02-23 14:56:00,16.5,12.5,29.96,West,271,14.0,14.0,84,0.00,,,0.00,VWS V14.01,2014-02-23 19:56:00,
2014-02-23 14:57:00,16.5,12.2,29.96,SSW,213,4.0,13.0,83,0.00,,,0.00,VWS V14.01,2014-02-23 19:57:00,
2014-02-23 14:58:00,16.5,12.2,29.96,SW,223,4.0,13.0,83,0.00,,,0.00,VWS V14.01,2014-02-23 19:58:00,
2014-02-23 14:59:00,16.5,12.5,29.96,WSW,237,7.0,13.0,84,0.00,,,0.00,VWS V14.01,2014-02-23 19:59:00,
2014-02-23 15:00:00,16.5,12.2,29.96,West,267,1.0,13.0,83,0.00,,,0.00,VWS V14.01,2014-02-23 20:00:00,
2014-02-23 15:01:00,16.5,12.2,29.96,SW,215,5.0,13.0,83,0.00,,,0.00,VWS V14.01,2014-02-23 20:01:00,
2014-02-23 15:02:00,16.5,12.2,29.96,SW,217,4.0,13.0,83,0.00,,,0.00,VWS V14.01,2014-02-23 20:02:00,
2014-02-23 15:03:00,16.5,12.2,29.96,SSW,212,5.0,13.0,83,0.00,,,0.00,VWS V14.01,2014-02-23 20:03:00,
2014-02-23 15:04:00,16.5,12.0,29.96,SW,217,8.0,13.0,82,0.00,,,0.00,VWS V14.01,2014-02-23 20:04:00,
2014-02-23 15:05:00,16.5,12.0,29.96,WSW,240,10.0,13.0,82,0.00,,,0.00,VWS V14.01,2014-02-23 20:05:00,
2014-02-23 15:06:00,16.5,12.0,29.96,SW,233,10.0,13.0,82,0.00,,,0.00,VWS V14.01,2014-02-23 20:06:00,
2014-02-23 15:07:00,16.5,12.0,29.96,SW,223,12.0,13.0,82,0.00,,,0.00,VWS V14.01,2014-02-23 20:07:00,
2014-02-23 15:08:00,16.5,12.0,29.96,WSW,246,4.0,13.0,82,0.00,,,0.00,VWS V14.01,2014-02-23 20:08:00,
2014-02-23 15:09:00,16.5,12.0,29.96,SSW,198,5.0,13.0,82,0.00,,,0.00,VWS V14.01,2014-02-23 20:09:00,
2014-02-23 15:10:00,16.5,12.0,29.96,West,263,15.0,15.0,82,0.00,,,0.00,VWS V14.01,2014-02-23 20:10:00,
2014-02-23 15:11:00,16.5,12.0,29.96,SW,222,8.0,13.0,82,0.00,,,0.00,VWS V14.01,2014-02-23 20:11:00,
2014-02-23 15:12:00,16.5,12.0,29.96,SW,234,6.0,13.0,82,0.00,,,0.00,VWS V14.01,2014-02-23 20:12:00,
2014-02-23 15:13:00,16.5,11.7,29.96,South,184,2.0,13.0,81,0.00,,,0.00,VWS V14.01,2014-02-23 20:13:00,
2014-02-23 15:14:00,16.5,11.7,29.96,SW,219,5.0,13.0,81,0.00,,,0.00,VWS V14.01,2014-02-23 20:14:00,
2014-02-23 15:15:00,16.5,11.7,29.96,SW,229,9.0,13.0,81,0.00,,,0.00,VWS V14.01,2014-02-23 20:15:00,
2014-02-23 15:16:00,16.5,11.7,29.96,SSW,207,10.0,13.0,81,0.00,,,0.00,VWS V14.01,2014-02-23 20:16:00,
2014-02-23 15:17:00,16.5,11.7,29.96,SSW,207,10.0,13.0,81,0.00,,,0.00,VWS V14.01,2014-02-23 20:17:00,
2014-02-23 15:18:00,16.5,11.7,29.96,SW,220,6.0,13.0,81,0.00,,,0.00,VWS V14.01,2014-02-23 20:18:00,
2014-02-23 15:19:00,16.5,11.7,29.96,SW,234,7.0,13.0,81,0.00,,,0.00,VWS V14.01,2014-02-23 20:19:00,
2014-02-23 15:20:00,16.4,11.6,29.96,WSW,247,4.0,13.0,81,0.00,,,0.00,VWS V14.01,2014-02-23 20:20:00,
2014-02-23 15:21:00,16.4,11.9,29.96,WSW,248,8.0,13.0,82,0.00,,,0.00,VWS V14.01,2014-02-23 20:21:00,
2014-02-23 15:22:00,16.4,11.9,29.96,WSW,248,8.0,13.0,82,0.00,,,0.00,VWS V14.01,2014-02-23 20:22:00,
2014-02-23 15:23:00,16.4,11.9,29.96,SSW,197,5.0,13.0,82,0.00,,,0.00,VWS V14.01,2014-02-23 20:23:00,
2014-02-23 15:24:00,16.4,11.9,29.96,SW,219,7.0,13.0,82,0.00,,,0.00,VWS V14.01,2014-02-23 20:24:00,
2014-02-23 15:25:00,16.3,11.8,29.96,SSW,203,6.0,13.0,82,0.00,,,0.00,VWS V14.01,2014-02-23 20:25:00,
2014-02-23 15:26:00,16.3,11.8,29.96,SW,217,4.0,13.0,82,0.00,,,0.00,VWS V14.01,2014-02-23 20:26:00,
2014-02-23 15:27:00,16.3,11.8,29.96,WSW,245,7.0,13.0,82,0.00,,,0.00,VWS V14.01,2014-02-23 20:27:00,
2014-02-23 15:28:00,16.3,11.8,29.96,SSW,213,10.0,13.0,82,0.00,,,0.00,VWS V14.01,2014-02-23 20:28:00,
2014-02-23 15:29:00,16.3,11.8,29.96,WSW,250,5.0,13.0,82,0.00,,,0.00,VWS V14.01,2014-02-23 20:29:00,
2014-02-23 15:30:00,16.3,11.8,29.96,SW,219,4.0,13.0,82,0.00,,,0.00,VWS V14.01,2014-02-23 20:30:00,
2014-02-23 15:31:00,16.3,11.8,29.96,West,271,7.0,13.0,82,0.00,,,0.00,VWS V14.01,2014-02-23 20:31:00,
2014-02-23 15:32:00,16.3,11.8,29.96,West,271,7.0,13.0,82,0.00,,,0.00,VWS V14.01,2014-02-23 20:32:00,
2014-02-23 15:33:00,16.3,11.8,29.96,SW,218,4.0,13.0,82,0.00,,,0.00,VWS V14.01,2014-02-23 20:33:00,
2014-02-23 15:34:00,16.3,11.5,29.96,SW,214,5.0,13.0,81,0.00,,,0.00,VWS V14.01,2014-02-23 20:34:00,
2014-02-23 15:35:00,16.3,11.5,29.96,SW,229,6.0,13.0,81,0.00,,,0.00,VWS V14.01,2014-02-23 20:35:00,
2014-02-23 15:36:00,16.4,11.6,29.96,South,184,6.0,13.0,81,0.00,,,0.00,VWS V14.01,2014-02-23 20:36:00,
2014-02-23 15:37:00,16.4,11.6,29.96,SSW,212,3.0,13.0,81,0.00,,,0.00,VWS V14.01,2014-02-23 20:37:00,
2014-02-23 15:38:00,16.4,11.6,29.96,SSW,208,0.0,13.0,81,0.00,,,0.00,VWS V14.01,2014-02-23 20:38:00,
2014-02-23 15:39:00,16.4,11.6,29.96,SSW,207,6.0,13.0,81,0.00,,,0.00,VWS V14.01,2014-02-23 20:39:00,
2014-02-23 15:40:00,16.4,11.6,29.96,WSW,257,16.0,16.0,81,0.00,,,0.00,VWS V14.01,2014-02-23 20:40:00,
2014-02-23 15:41:00,16.5,11.4,29.96,SW,225,7.0,13.0,80,0.00,,,0.00,VWS V14.01,2014-02-23 20:41:00,
2014-02-23 15:42:00,16.5,11.4,29.96,WSW,250,4.0,13.0,80,0.00,,,0.00,VWS V14.01,2014-02-23 20:42:00,
2014-02-23 15:43:00,16.5,11.4,29.96,WSW,244,7.0,13.0,80,0.00,,,0.00,VWS V14.01,2014-02-23 20:43:00,
2014-02-23 15:44:00,16.5,11.4,29.96,SSW,211,3.0,13.0,80,0.00,,,0.00,VWS V14.01,2014-02-23 20:44:00,
2014-02-23 15:45:00,16.6,11.5,29.96,WSW,238,0.0,13.0,80,0.00,,,0.00,VWS V14.01,2014-02-23 20:45:00,
2014-02-23 15:46:00,16.6,11.5,29.96,SSW,205,14.0,14.0,80,0.00,,,0.00,VWS V14.01,2014-02-23 20:46:00,
2014-02-23 15:47:00,16.6,11.5,29.96,West,273,12.0,13.0,80,0.00,,,0.00,VWS V14.01,2014-02-23 20:47:00,
2014-02-23 15:48:00,16.6,11.5,29.96,SSW,210,14.0,14.0,80,0.00,,,0.00,VWS V14.01,2014-02-23 20:48:00,
2014-02-23 15:49:00,16.6,11.5,29.96,WSW,257,0.0,13.0,80,0.00,,,0.00,VWS V14.01,2014-02-23 20:49:00,
2014-02-23 15:50:00,16.6,11.8,29.96,SW,226,2.0,13.0,81,0.00,,,0.00,VWS V14.01,2014-02-23 20:50:00,
2014-02-23 15:51:00,16.6,11.8,29.96,South,173,7.0,13.0,81,0.00,,,0.00,VWS V14.01,2014-02-23 20:51:00,
2014-02-23 15:52:00,16.6,11.8,29.96,WNW,283,10.0,13.0,81,0.00,,,0.00,VWS V14.01,2014-02-23 20:52:00,
2014-02-23 15:53:00,16.6,11.5,29.96,SW,221,5.0,13.0,80,0.00,,,0.00,VWS V14.01,2014-02-23 20:53:00,
2014-02-23 15:54:00,16.6,11.8,29.96,WSW,240,0.0,13.0,81,0.00,,,0.00,VWS V14.01,2014-02-23 20:54:00,
2014-02-23 15:55:00,16.6,11.8,29.96,SW,225,0.0,13.0,81,0.00,,,0.00,VWS V14.01,2014-02-23 20:55:00,
2014-02-23 15:56:00,16.6,11.5,29.96,SSW,209,0.0,13.0,80,0.00,,,0.00,VWS V14.01,2014-02-23 20:56:00,
2014-02-23 15:57:00,16.6,11.5,29.96,SSW,204,0.0,13.0,80,0.00,,,0.00,VWS V14.01,2014-02-23 20:57:00,
2014-02-23 15:58:00,16.7,11.6,29.96,WSW,242,2.0,13.0,80,0.00,,,0.00,VWS V14.01,2014-02-23 20:58:00,
2014-02-23 15:59:00,16.7,11.6,29.96,WSW,252,13.0,13.0,80,0.00,,,0.00,VWS V14.01,2014-02-23 20:59:00,
2014-02-23 16:00:00,16.7,11.6,29.96,WNW,290,2.0,13.0,80,0.00,,,0.00,VWS V14.01,2014-02-23 21:00:00,
2014-02-23 16:01:00,16.7,11.3,29.96,SW,224,4.0,0.0,79,0.00,,,0.00,VWS V14.01,2014-02-23 21:01:00,
2014-02-23 16:03:00,16.7,11.3,29.96,WSW,240,12.0,0.0,79,0.00,,,0.00,VWS V14.01,2014-02-23 21:03:00,
2014-02-23 16:04:00,16.7,11.3,29.96,SW,228,12.0,0.0,79,0.00,,,0.00,VWS V14.01,2014-02-23 21:04:00,
2014-02-23 16:05:00,16.7,11.3,29.96,SW,225,4.0,0.0,79,0.00,,,0.00,VWS V14.01,2014-02-23 21:05:00,
2014-02-23 16:06:00,16.7,11.1,29.96,WSW,249,11.0,0.0,78,0.00,,,0.00,VWS V14.01,2014-02-23 21:06:00,
2014-02-23 16:07:00,16.7,11.1,29.96,SSW,205,5.0,0.0,78,0.00,,,0.00,VWS V14.01,2014-02-23 21:07:00,
2014-02-23 16:08:00,16.8,11.1,29.96,SW,228,15.0,0.0,78,0.00,,,0.00,VWS V14.01,2014-02-23 21:08:00,
2014-02-23 16:09:00,16.8,11.1,29.96,West,276,13.0,0.0,78,0.00,,,0.00,VWS V14.01,2014-02-23 21:09:00,
2014-02-23 16:10:00,16.8,11.1,29.96,South,177,7.0,0.0,78,0.00,,,0.00,VWS V14.01,2014-02-23 21:10:00,
2014-02-23 16:11:00,16.8,11.1,29.96,SW,219,0.0,0.0,78,0.00,,,0.00,VWS V14.01,2014-02-23 21:11:00,
2014-02-23 16:12:00,16.8,11.1,29.96,WSW,256,5.0,0.0,78,0.00,,,0.00,VWS V14.01,2014-02-23 21:12:00,
2014-02-23 16:13:00,16.8,11.1,29.96,WSW,246,10.0,0.0,78,0.00,,,0.00,VWS V14.01,2014-02-23 21:13:00,
2014-02-23 16:14:00,16.8,11.1,29.96,NW,325,11.0,0.0,78,0.00,,,0.00,VWS V14.01,2014-02-23 21:14:00,
2014-02-23 16:15:00,16.8,11.1,29.96,SW,225,12.0,0.0,78,0.00,,,0.00,VWS V14.01,2014-02-23 21:15:00,
2014-02-23 16:16:00,16.8,11.4,29.96,WSW,246,0.0,0.0,79,0.00,,,0.00,VWS V14.01,2014-02-23 21:16:00,
2014-02-23 16:17:00,16.8,11.4,29.96,SSE,154,6.0,0.0,79,0.00,,,0.00,VWS V14.01,2014-02-23 21:17:00,
2014-02-23 16:18:00,16.8,11.4,29.96,SW,232,11.0,0.0,79,0.00,,,0.00,VWS V14.01,2014-02-23 21:18:00,
2014-02-23 16:19:00,16.8,11.4,29.96,WNW,290,5.0,0.0,79,0.00,,,0.00,VWS V14.01,2014-02-23 21:19:00,
2014-02-23 16:20:00,16.8,11.1,29.96,SSW,211,5.0,0.0,78,0.00,,,0.00,VWS V14.01,2014-02-23 21:20:00,
2014-02-23 16:21:00,16.8,11.4,29.96,SSW,202,8.0,0.0,79,0.00,,,0.00,VWS V14.01,2014-02-23 21:21:00,
2014-02-23 16:22:00,16.8,11.4,29.96,SW,227,8.0,0.0,79,0.00,,,0.00,VWS V14.01,2014-02-23 21:22:00,
2014-02-23 16:23:00,16.8,11.4,29.96,SW,231,6.0,0.0,79,0.00,,,0.00,VWS V14.01,2014-02-23 21:23:00,
2014-02-23 16:24:00,16.8,11.4,29.96,SW,216,4.0,0.0,79,0.00,,,0.00,VWS V14.01,2014-02-23 21:24:00,
2014-02-23 16:25:00,16.8,11.4,29.96,WSW,255,5.0,0.0,79,0.00,,,0.00,VWS V14.01,2014-02-23 21:25:00,
2014-02-23 16:26:00,16.8,11.4,29.96,SW,223,5.0,0.0,79,0.00,,,0.00,VWS V14.01,2014-02-23 21:26:00,
2014-02-23 16:27:00,16.8,11.4,29.96,SSW,203,7.0,0.0,79,0.00,,,0.00,VWS V14.01,2014-02-23 21:27:00,
2014-02-23 16:28:00,16.8,11.4,29.96,SW,233,5.0,0.0,79,0.00,,,0.00,VWS V14.01,2014-02-23 21:28:00,
2014-02-23 16:29:00,16.8,11.4,29.96,SSW,196,0.0,0.0,79,0.00,,,0.00,VWS V14.01,2014-02-23 21:29:00,
2014-02-23 16:30:00,16.8,11.4,29.96,SSW,213,12.0,0.0,79,0.00,,,0.00,VWS V14.01,2014-02-23 21:30:00,
2014-02-23 16:31:00,16.8,11.4,29.96,SW,229,4.0,0.0,79,0.00,,,0.00,VWS V14.01,2014-02-23 21:31:00,
2014-02-23 16:32:00,16.8,11.4,29.96,SW,227,7.0,0.0,79,0.00,,,0.00,VWS V14.01,2014-02-23 21:32:00,
2014-02-23 16:33:00,16.8,11.4,29.96,South,180,8.0,0.0,79,0.00,,,0.00,VWS V14.01,2014-02-23 21:33:00,
2014-02-23 16:34:00,16.8,11.4,29.96,WSW,244,8.0,0.0,79,0.00,,,0.00,VWS V14.01,2014-02-23 21:34:00,
2014-02-23 16:35:00,16.8,11.4,29.96,SSW,192,10.0,0.0,79,0.00,,,0.00,VWS V14.01,2014-02-23 21:35:00,
2014-02-23 16:36:00,16.8,11.4,29.96,SSW,209,0.0,0.0,79,0.00,,,0.00,VWS V14.01,2014-02-23 21:36:00,
2014-02-23 16:37:00,16.8,11.4,29.96,WSW,246,1.0,0.0,79,0.00,,,0.00,VWS V14.01,2014-02-23 21:37:00,
2014-02-23 16:38:00,16.8,11.4,29.96,WSW,257,1.0,0.0,79,0.00,,,0.00,VWS V14.01,2014-02-23 21:38:00,
2014-02-23 16:39:00,16.8,11.4,29.96,SW,230,4.0,0.0,79,0.00,,,0.00,VWS V14.01,2014-02-23 21:39:00,
2014-02-23 16:40:00,16.8,11.4,29.96,WSW,253,0.0,0.0,79,0.00,,,0.00,VWS V14.01,2014-02-23 21:40:00,
2014-02-23 16:41:00,16.9,11.5,29.96,SW,227,0.0,0.0,79,0.00,,,0.00,VWS V14.01,2014-02-23 21:41:00,
2014-02-23 16:42:00,16.9,11.8,29.97,WSW,257,11.0,0.0,80,0.00,,,0.00,VWS V14.01,2014-02-23 21:42:00,
2014-02-23 16:44:00,16.9,11.5,29.96,West,267,4.0,0.0,79,0.00,,,0.00,VWS V14.01,2014-02-23 21:44:00,
2014-02-23 16:45:00,16.9,11.8,29.96,WSW,246,0.0,0.0,80,0.00,,,0.00,VWS V14.01,2014-02-23 21:45:00,
2014-02-23 16:46:00,16.9,11.8,29.96,SW,217,5.0,0.0,80,0.00,,,0.00,VWS V14.01,2014-02-23 21:46:00,
2014-02-23 16:47:00,16.9,11.8,29.96,SSW,201,9.0,0.0,80,0.00,,,0.00,VWS V14.01,2014-02-23 21:47:00,
2014-02-23 16:48:00,16.9,11.8,29.96,SSW,201,9.0,0.0,80,0.00,,,0.00,VWS V14.01,2014-02-23 21:48:00,
2014-02-23 16:49:00,17.0,11.9,29.96,SW,230,3.0,0.0,80,0.00,,,0.00,VWS V14.01,2014-02-23 21:49:00,
2014-02-23 16:50:00,17.0,11.9,29.96,SW,230,5.0,0.0,80,0.00,,,0.00,VWS V14.01,2014-02-23 21:50:00,
2014-02-23 16:51:00,17.0,11.9,29.96,SSW,196,10.0,0.0,80,0.00,,,0.00,VWS V14.01,2014-02-23 21:51:00,
2014-02-23 16:52:00,17.0,11.9,29.96,SW,236,5.0,0.0,80,0.00,,,0.00,VWS V14.01,2014-02-23 21:52:00,
2014-02-23 16:53:00,17.0,11.9,29.96,SW,236,5.0,0.0,80,0.00,,,0.00,VWS V14.01,2014-02-23 21:53:00,
2014-02-23 16:54:00,17.1,12.0,29.96,SW,228,9.0,0.0,80,0.00,,,0.00,VWS V14.01,2014-02-23 21:54:00,
2014-02-23 16:55:00,17.1,12.0,29.96,SW,236,4.0,0.0,80,0.00,,,0.00,VWS V14.01,2014-02-23 21:55:00,
2014-02-23 16:56:00,17.1,12.0,29.96,West,271,8.0,0.0,80,0.00,,,0.00,VWS V14.01,2014-02-23 21:56:00,
2014-02-23 16:57:00,17.1,12.0,29.96,West,259,6.0,0.0,80,0.00,,,0.00,VWS V14.01,2014-02-23 21:57:00,
2014-02-23 16:58:00,17.1,12.0,29.96,SW,215,5.0,0.0,80,0.00,,,0.00,VWS V14.01,2014-02-23 21:58:00,
2014-02-23 16:59:00,17.1,12.0,29.96,SW,230,9.0,0.0,80,0.00,,,0.00,VWS V14.01,2014-02-23 21:59:00,
2014-02-23 17:00:00,17.1,12.0,29.97,SW,220,12.0,0.0,80,0.00,,,0.00,VWS V14.01,2014-02-23 22:00:00,
2014-02-23 17:01:00,17.1,12.0,29.96,SSW,203,5.0,0.0,80,0.00,,,0.00,VWS V14.01,2014-02-23 22:01:00,
2014-02-23 17:02:00,17.1,12.0,29.97,WSW,250,14.0,0.0,80,0.00,,,0.00,VWS V14.01,2014-02-23 22:02:00,
2014-02-23 17:03:00,17.1,12.0,29.96,SW,221,10.0,0.0,80,0.00,,,0.00,VWS V14.01,2014-02-23 22:03:00,
2014-02-23 17:04:00,17.1,12.0,29.97,SW,221,10.0,0.0,80,0.00,,,0.00,VWS V14.01,2014-02-23 22:04:00,
2014-02-23 17:05:00,17.1,12.0,29.96,SSW,211,8.0,0.0,80,0.00,,,0.00,VWS V14.01,2014-02-23 22:05:00,
2014-02-23 17:06:00,17.1,12.0,29.96,SSW,209,8.0,0.0,80,0.00,,,0.00,VWS V14.01,2014-02-23 22:06:00,
2014-02-23 17:07:00,17.1,12.0,29.96,SSW,202,0.0,0.0,80,0.00,,,0.00,VWS V14.01,2014-02-23 22:07:00,
2014-02-23 17:08:00,17.1,12.0,29.96,SSW,198,0.0,0.0,80,0.00,,,0.00,VWS V14.01,2014-02-23 22:08:00,
2014-02-23 17:09:00,17.1,12.0,29.96,SSW,202,11.0,0.0,80,0.00,,,0.00,VWS V14.01,2014-02-23 22:09:00,
2014-02-23 17:10:00,17.1,12.0,29.96,WSW,254,4.0,0.0,80,0.00,,,0.00,VWS V14.01,2014-02-23 22:10:00,
2014-02-23 17:11:00,17.1,12.0,29.96,WSW,242,5.0,0.0,80,0.00,,,0.00,VWS V14.01,2014-02-23 22:11:00,
2014-02-23 17:12:00,17.2,12.1,29.96,SW,229,0.0,0.0,80,0.00,,,0.00,VWS V14.01,2014-02-23 22:12:00,
2014-02-23 17:13:00,17.1,12.0,29.96,SW,232,3.0,0.0,80,0.00,,,0.00,VWS V14.01,2014-02-23 22:13:00,
2014-02-23 17:14:00,17.2,12.1,29.96,SW,215,0.0,0.0,80,0.00,,,0.00,VWS V14.01,2014-02-23 22:14:00,
2014-02-23 17:15:00,17.2,12.1,29.96,SSW,211,0.0,0.0,80,0.00,,,0.00,VWS V14.01,2014-02-23 22:15:00,
2014-02-23 17:16:00,17.2,12.1,29.97,SSW,208,0.0,0.0,80,0.00,,,0.00,VWS V14.01,2014-02-23 22:16:00,
2014-02-23 17:17:00,17.3,11.9,29.96,SW,220,0.0,0.0,79,0.00,,,0.00,VWS V14.01,2014-02-23 22:17:00,
2014-02-23 17:18:00,17.3,11.9,29.96,SSW,207,0.0,0.0,79,0.00,,,0.00,VWS V14.01,2014-02-23 22:18:00,
2014-02-23 17:19:00,17.3,11.9,29.96,West,271,0.0,0.0,79,0.00,,,0.00,VWS V14.01,2014-02-23 22:19:00,
2014-02-23 17:20:00,17.3,11.9,29.96,SW,224,10.0,0.0,79,0.00,,,0.00,VWS V14.01,2014-02-23 22:20:00,
2014-02-23 17:21:00,17.3,11.9,29.96,SW,226,6.0,0.0,79,0.00,,,0.00,VWS V14.01,2014-02-23 22:21:00,
2014-02-23 17:22:00,17.4,11.7,29.96,SW,221,10.0,0.0,78,0.00,,,0.00,VWS V14.01,2014-02-23 22:22:00,
2014-02-23 17:23:00,17.4,12.0,29.96,WSW,241,4.0,0.0,79,0.00,,,0.00,VWS V14.01,2014-02-23 22:23:00,
2014-02-23 17:25:00,17.5,11.8,29.96,SW,227,0.0,0.0,78,0.00,,,0.00,VWS V14.01,2014-02-23 22:25:00,
2014-02-23 17:26:00,17.5,11.8,29.96,West,276,0.0,0.0,78,0.00,,,0.00,VWS V14.01,2014-02-23 22:26:00,
2014-02-23 17:27:00,17.6,12.2,29.96,SW,215,0.0,0.0,79,0.00,,,0.00,VWS V14.01,2014-02-23 22:27:00,
2014-02-23 17:28:00,17.6,12.2,29.96,SW,215,1.0,0.0,79,0.00,,,0.00,VWS V14.01,2014-02-23 22:28:00,
2014-02-23 17:29:00,17.6,12.2,29.96,SW,224,7.0,0.0,79,0.00,,,0.00,VWS V14.01,2014-02-23 22:29:00,
2014-02-23 17:31:00,17.6,11.9,29.96,South,184,0.0,0.0,78,0.00,,,0.00,VWS V14.01,2014-02-23 22:31:00,
2014-02-23 17:32:00,17.7,12.0,29.96,SW,219,0.0,0.0,78,0.00,,,0.00,VWS V14.01,2014-02-23 22:32:00,
2014-02-23 17:33:00,17.7,12.0,29.96,WSW,257,0.0,0.0,78,0.00,,,0.00,VWS V14.01,2014-02-23 22:33:00,
2014-02-23 17:34:00,17.7,12.0,29.96,WSW,246,0.0,0.0,78,0.00,,,0.00,VWS V14.01,2014-02-23 22:34:00,
2014-02-23 17:35:00,17.7,12.0,29.96,SW,229,0.0,0.0,78,0.00,,,0.00,VWS V14.01,2014-02-23 22:35:00,
2014-02-23 17:36:00,17.7,12.0,29.96,WSW,239,0.0,0.0,78,0.00,,,0.00,VWS V14.01,2014-02-23 22:36:00,
2014-02-23 17:37:00,17.8,12.1,29.96,West,259,0.0,0.0,78,0.00,,,0.00,VWS V14.01,2014-02-23 22:37:00,
2014-02-23 17:38:00,17.8,12.4,29.96,SW,233,0.0,0.0,79,0.00,,,0.00,VWS V14.01,2014-02-23 22:38:00,
2014-02-23 17:39:00,17.8,12.1,29.96,WSW,258,0.0,0.0,78,0.00,,,0.00,VWS V14.01,2014-02-23 22:39:00,
2014-02-23 17:40:00,17.8,12.1,29.96,SW,226,0.0,0.0,78,0.00,,,0.00,VWS V14.01,2014-02-23 22:40:00,
2014-02-23 17:41:00,17.8,12.1,29.96,WSW,240,0.0,0.0,78,0.00,,,0.00,VWS V14.01,2014-02-23 22:41:00,
2014-02-23 17:42:00,17.9,12.2,29.96,WSW,239,0.0,0.0,78,0.00,,,0.00,VWS V14.01,2014-02-23 22:42:00,
2014-02-23 17:43:00,17.9,12.2,29.96,West,261,0.0,0.0,78,0.00,,,0.00,VWS V14.01,2014-02-23 22:43:00,
2014-02-23 17:44:00,17.9,12.2,29.96,WSW,240,0.0,0.0,78,0.00,,,0.00,VWS V14.01,2014-02-23 22:44:00,
2014-02-23 17:45:00,17.9,12.2,29.96,WNW,286,0.0,0.0,78,0.00,,,0.00,VWS V14.01,2014-02-23 22:45:00,
2014-02-23 17:46:00,17.9,11.9,29.96,SSW,209,0.0,0.0,77,0.00,,,0.00,VWS V14.01,2014-02-23 22:46:00,
2014-02-23 17:47:00,17.9,11.9,29.96,South,188,0.0,0.0,77,0.00,,,0.00,VWS V14.01,2014-02-23 22:47:00,
2014-02-23 17:48:00,17.9,11.6,29.96,SSW,207,0.0,0.0,76,0.00,,,0.00,VWS V14.01,2014-02-23 22:48:00,
2014-02-23 17:49:00,18.0,11.7,29.96,WSW,246,0.0,0.0,76,0.00,,,0.00,VWS V14.01,2014-02-23 22:49:00,
2014-02-23 17:50:00,18.0,11.7,29.96,West,273,0.0,0.0,76,0.00,,,0.00,VWS V14.01,2014-02-23 22:50:00,
2014-02-23 17:51:00,18.0,12.0,29.96,WSW,257,0.0,0.0,77,0.00,,,0.00,VWS V14.01,2014-02-23 22:51:00,
2014-02-23 17:52:00,18.0,12.0,29.96,WSW,246,2.0,0.0,77,0.00,,,0.00,VWS V14.01,2014-02-23 22:52:00,
2014-02-23 17:53:00,18.0,11.7,29.96,WNW,290,0.0,0.0,76,0.00,,,0.00,VWS V14.01,2014-02-23 22:53:00,
2014-02-23 17:54:00,18.0,11.7,29.96,WSW,240,0.0,0.0,76,0.00,,,0.00,VWS V14.01,2014-02-23 22:54:00,
2014-02-23 17:55:00,18.0,11.7,29.96,West,277,0.0,0.0,76,0.00,,,0.00,VWS V14.01,2014-02-23 22:55:00,
2014-02-23 17:56:00,18.1,11.8,29.96,SW,220,0.0,0.0,76,0.00,,,0.00,VWS V14.01,2014-02-23 22:56:00,
2014-02-23 17:57:00,18.1,11.8,29.96,WSW,243,0.0,0.0,76,0.00,,,0.00,VWS V14.01,2014-02-23 22:57:00,
2014-02-23 17:58:00,18.1,11.8,29.96,West,259,10.0,0.0,76,0.00,,,0.00,VWS V14.01,2014-02-23 22:58:00,
2014-02-23 17:59:00,18.1,11.5,29.96,WSW,237,11.0,0.0,75,0.00,,,0.00,VWS V14.01,2014-02-23 22:59:00,
2014-02-23 18:00:00,18.1,11.5,29.96,SW,225,0.0,0.0,75,0.00,,,0.00,VWS V14.01,2014-02-23 23:00:00,
2014-02-23 18:01:00,18.1,11.8,29.96,SW,219,0.0,0.0,76,0.00,,,0.00,VWS V14.01,2014-02-23 23:01:00,
2014-02-23 18:02:00,18.2,11.9,29.96,SW,232,0.0,0.0,76,0.00,,,0.00,VWS V14.01,2014-02-23 23:02:00,
2014-02-23 18:03:00,18.2,11.6,29.96,WSW,257,0.0,0.0,75,0.00,,,0.00,VWS V14.01,2014-02-23 23:03:00,
2014-02-23 18:04:00,18.2,11.6,29.96,SSW,203,0.0,0.0,75,0.00,,,0.00,VWS V14.01,2014-02-23 23:04:00,
2014-02-23 18:05:00,18.2,11.9,29.96,West,280,0.0,0.0,76,0.00,,,0.00,VWS V14.01,2014-02-23 23:05:00,
2014-02-23 18:06:00,18.2,11.9,29.96,SW,217,3.0,0.0,76,0.00,,,0.00,VWS V14.01,2014-02-23 23:06:00,
2014-02-23 18:07:00,18.2,11.9,29.96,WSW,242,0.0,0.0,76,0.00,,,0.00,VWS V14.01,2014-02-23 23:07:00,
2014-02-23 18:08:00,18.2,11.9,29.96,WSW,242,0.0,0.0,76,0.00,,,0.00,VWS V14.01,2014-02-23 23:08:00,
2014-02-23 18:09:00,18.2,11.9,29.96,WSW,238,0.0,0.0,76,0.00,,,0.00,VWS V14.01,2014-02-23 23:09:00,
2014-02-23 18:10:00,18.3,11.7,29.96,SW,223,0.0,0.0,75,0.00,,,0.00,VWS V14.01,2014-02-23 23:10:00,
2014-02-23 18:11:00,18.3,12.0,29.96,SW,218,0.0,0.0,76,0.00,,,0.00,VWS V14.01,2014-02-23 23:11:00,
2014-02-23 18:12:00,18.3,12.3,29.96,NW,317,0.0,0.0,77,0.00,,,0.00,VWS V14.01,2014-02-23 23:12:00,
2014-02-23 18:13:00,18.3,12.0,29.96,WNW,282,0.0,0.0,76,0.00,,,0.00,VWS V14.01,2014-02-23 23:13:00,
2014-02-23 18:14:00,18.3,12.0,29.96,WNW,282,0.0,0.0,76,0.00,,,0.00,VWS V14.01,2014-02-23 23:14:00,
2014-02-23 18:15:00,18.3,12.0,29.96,WSW,238,0.0,0.0,76,0.00,,,0.00,VWS V14.01,2014-02-23 23:15:00,
2014-02-23 18:16:00,18.3,12.0,29.96,West,267,0.0,0.0,76,0.00,,,0.00,VWS V14.01,2014-02-23 23:16:00,
2014-02-23 18:17:00,18.3,12.0,29.96,West,269,0.0,0.0,76,0.00,,,0.00,VWS V14.01,2014-02-23 23:17:00,
2014-02-23 18:18:00,18.4,12.4,29.96,West,279,0.0,0.0,77,0.00,,,0.00,VWS V14.01,2014-02-23 23:18:00,
2014-02-23 18:19:00,18.4,12.4,29.96,West,279,0.0,0.0,77,0.00,,,0.00,VWS V14.01,2014-02-23 23:19:00,
2014-02-23 18:20:00,18.4,12.4,29.96,WNW,284,2.0,0.0,77,0.00,,,0.00,VWS V14.01,2014-02-23 23:20:00,
2014-02-23 18:21:00,18.4,12.1,29.96,WSW,246,0.0,0.0,76,0.00,,,0.00,VWS V14.01,2014-02-23 23:21:00,
2014-02-23 18:22:00,18.4,12.1,29.96,West,277,0.0,0.0,76,0.00,,,0.00,VWS V14.01,2014-02-23 23:22:00,
2014-02-23 18:23:00,18.4,12.4,29.96,WSW,258,0.0,0.0,77,0.00,,,0.00,VWS V14.01,2014-02-23 23:23:00,
2014-02-23 18:24:00,18.4,12.4,29.96,WSW,258,0.0,0.0,77,0.00,,,0.00,VWS V14.01,2014-02-23 23:24:00,
2014-02-23 18:25:00,18.4,12.4,29.96,West,276,0.0,0.0,77,0.00,,,0.00,VWS V14.01,2014-02-23 23:25:00,
2014-02-23 18:26:00,18.4,12.1,29.96,SSW,213,0.0,0.0,76,0.00,,,0.00,VWS V14.01,2014-02-23 23:26:00,
2014-02-23 18:27:00,18.4,12.1,29.96,WSW,249,0.0,0.0,76,0.00,,,0.00,VWS V14.01,2014-02-23 23:27:00,
2014-02-23 18:28:00,18.4,12.1,29.97,WNW,290,0.0,0.0,76,0.00,,,0.00,VWS V14.01,2014-02-23 23:28:00,
2014-02-23 18:29:00,18.4,12.1,29.97,WNW,290,0.0,0.0,76,0.00,,,0.00,VWS V14.01,2014-02-23 23:29:00,
2014-02-23 18:30:00,18.5,12.2,29.97,NW,306,0.0,0.0,76,0.00,,,0.00,VWS V14.01,2014-02-23 23:30:00,
2014-02-23 18:31:00,18.5,11.9,29.96,SW,217,0.0,0.0,75,0.00,,,0.00,VWS V14.01,2014-02-23 23:31:00,
2014-02-23 18:32:00,18.5,11.9,29.97,NNW,328,0.0,0.0,75,0.00,,,0.00,VWS V14.01,2014-02-23 23:32:00,
2014-02-23 18:33:00,18.5,11.9,29.97,WSW,256,0.0,0.0,75,0.00,,,0.00,VWS V14.01,2014-02-23 23:33:00,
2014-02-23 18:34:00,18.5,11.9,29.96,WSW,254,0.0,0.0,75,0.00,,,0.00,VWS V14.01,2014-02-23 23:34:00,
2014-02-23 18:35:00,18.5,11.9,29.97,SW,215,0.0,0.0,75,0.00,,,0.00,VWS V14.01,2014-02-23 23:35:00,
2014-02-23 18:36:00,18.5,11.9,29.97,West,269,0.0,0.0,75,0.00,,,0.00,VWS V14.01,2014-02-23 23:36:00,
2014-02-23 18:37:00,18.5,11.9,29.96,WNW,293,0.0,0.0,75,0.00,,,0.00,VWS V14.01,2014-02-23 23:37:00,
2014-02-23 18:38:00,18.6,12.0,29.97,WSW,245,0.0,0.0,75,0.00,,,0.00,VWS V14.01,2014-02-23 23:38:00,
2014-02-23 18:39:00,18.6,12.0,29.96,WSW,245,0.0,0.0,75,0.00,,,0.00,VWS V14.01,2014-02-23 23:39:00,
2014-02-23 18:40:00,18.6,12.0,29.97,WSW,242,0.0,0.0,75,0.00,,,0.00,VWS V14.01,2014-02-23 23:40:00,
2014-02-23 18:41:00,18.6,12.0,29.97,West,281,0.0,0.0,75,0.00,,,0.00,VWS V14.01,2014-02-23 23:41:00,
2014-02-23 18:42:00,18.6,12.0,29.96,WSW,245,0.0,0.0,75,0.00,,,0.00,VWS V14.01,2014-02-23 23:42:00,
2014-02-23 18:43:00,18.6,12.0,29.97,West,273,0.0,0.0,75,0.00,,,0.00,VWS V14.01,2014-02-23 23:43:00,
2014-02-23 18:44:00,18.6,12.0,29.97,West,277,0.0,0.0,75,0.00,,,0.00,VWS V14.01,2014-02-23 23:44:00,
2014-02-23 18:45:00,18.6,12.0,29.97,West,273,0.0,0.0,75,0.00,,,0.00,VWS V14.01,2014-02-23 23:45:00,
2014-02-23 18:46:00,18.6,12.0,29.97,West,278,0.0,0.0,75,0.00,,,0.00,VWS V14.01,2014-02-23 23:46:00,
2014-02-23 18:47:00,18.6,12.0,29.97,SW,219,0.0,0.0,75,0.00,,,0.00,VWS V14.01,2014-02-23 23:47:00,
2014-02-23 18:48:00,18.7,12.1,29.97,SW,233,0.0,0.0,75,0.00,,,0.00,VWS V14.01,2014-02-23 23:48:00,
2014-02-23 18:49:00,18.7,12.1,29.97,SW,233,0.0,0.0,75,0.00,,,0.00,VWS V14.01,2014-02-23 23:49:00,
2014-02-23 18:50:00,18.8,12.2,29.97,SSW,202,0.0,0.0,75,0.00,,,0.00,VWS V14.01,2014-02-23 23:50:00,
2014-02-23 18:51:00,18.7,11.8,29.97,NW,319,0.0,0.0,74,0.00,,,0.00,VWS V14.01,2014-02-23 23:51:00,
2014-02-23 18:52:00,18.8,11.9,29.97,West,276,0.0,0.0,74,0.00,,,0.00,VWS V14.01,2014-02-23 23:52:00,
2014-02-23 18:53:00,18.8,12.2,29.97,WSW,240,1.0,0.0,75,0.00,,,0.00,VWS V14.01,2014-02-23 23:53:00,
2014-02-23 18:54:00,18.8,12.2,29.97,West,272,0.0,0.0,75,0.00,,,0.00,VWS V14.01,2014-02-23 23:54:00,
2014-02-23 18:55:00,18.8,12.2,29.97,West,266,1.0,0.0,75,0.00,,,0.00,VWS V14.01,2014-02-23 23:55:00,
2014-02-23 18:56:00,18.8,11.9,29.97,West,261,0.0,0.0,74,0.00,,,0.00,VWS V14.01,2014-02-23 23:56:00,
2014-02-23 18:57:00,18.8,11.9,29.97,NW,313,0.0,0.0,74,0.00,,,0.00,VWS V14.01,2014-02-23 23:57:00,
2014-02-23 18:58:00,18.8,11.9,29.97,West,277,0.0,0.0,74,0.00,,,0.00,VWS V14.01,2014-02-23 23:58:00,
2014-02-23 18:59:00,18.8,11.9,29.97,SW,219,0.0,0.0,74,0.00,,,0.00,VWS V14.01,2014-02-23 23:59:00,
2014-02-23 19:00:00,18.8,11.9,29.97,NNW,329,0.0,0.0,74,0.00,,,0.00,VWS V14.01,2014-02-24 00:00:00,
2014-02-23 19:02:00,18.9,12.3,29.97,NW,318,8.0,0.0,75,0.00,,,0.00,VWS V14.01,2014-02-24 00:02:00,
2014-02-23 19:03:00,18.9,12.0,29.97,West,273,0.0,0.0,74,0.00,,,0.00,VWS V14.01,2014-02-24 00:03:00,
2014-02-23 19:04:00,18.9,12.0,29.97,WNW,302,0.0,0.0,74,0.00,,,0.00,VWS V14.01,2014-02-24 00:04:00,
2014-02-23 19:05:00,18.9,12.0,29.97,WNW,290,0.0,0.0,74,0.00,,,0.00,VWS V14.01,2014-02-24 00:05:00,
2014-02-23 19:06:00,18.9,12.3,29.97,WSW,254,0.0,0.0,75,0.00,,,0.00,VWS V14.01,2014-02-24 00:06:00,
2014-02-23 19:07:00,18.9,12.3,29.97,NW,324,0.0,0.0,75,0.00,,,0.00,VWS V14.01,2014-02-24 00:07:00,
2014-02-23 19:08:00,18.9,12.3,29.97,West,278,7.0,0.0,75,0.00,,,0.00,VWS V14.01,2014-02-24 00:08:00,
2014-02-23 19:09:00,18.8,12.2,29.97,NW,313,0.0,0.0,75,0.00,,,0.00,VWS V14.01,2014-02-24 00:09:00,
2014-02-23 19:10:00,18.8,12.5,29.97,NW,313,0.0,0.0,76,0.00,,,0.00,VWS V14.01,2014-02-24 00:10:00,
2014-02-23 19:11:00,18.8,12.8,29.97,WNW,291,0.0,0.0,77,0.00,,,0.00,VWS V14.01,2014-02-24 00:11:00,
2014-02-23 19:12:00,18.8,12.8,29.97,WNW,302,0.0,0.0,77,0.00,,,0.00,VWS V14.01,2014-02-24 00:12:00,
2014-02-23 19:13:00,18.8,12.5,29.97,West,269,0.0,0.0,76,0.00,,,0.00,VWS V14.01,2014-02-24 00:13:00,
2014-02-23 19:14:00,18.8,12.2,29.97,NW,309,0.0,0.0,75,0.00,,,0.00,VWS V14.01,2014-02-24 00:14:00,
2014-02-23 19:15:00,18.8,12.5,29.97,NNW,337,2.0,0.0,76,0.00,,,0.00,VWS V14.01,2014-02-24 00:15:00,
2014-02-23 19:16:00,18.8,12.5,29.97,West,274,0.0,0.0,76,0.00,,,0.00,VWS V14.01,2014-02-24 00:16:00,
2014-02-23 19:17:00,18.8,12.5,29.97,West,265,0.0,0.0,76,0.00,,,0.00,VWS V14.01,2014-02-24 00:17:00,
2014-02-23 19:18:00,18.8,12.5,29.97,WNW,298,0.0,0.0,76,0.00,,,0.00,VWS V14.01,2014-02-24 00:18:00,
2014-02-23 19:19:00,18.8,12.5,29.97,WNW,283,0.0,0.0,76,0.00,,,0.00,VWS V14.01,2014-02-24 00:19:00,
2014-02-23 19:20:00,18.8,12.5,29.97,WNW,295,0.0,0.0,76,0.00,,,0.00,VWS V14.01,2014-02-24 00:20:00,
2014-02-23 19:21:00,18.8,12.5,29.97,WNW,288,0.0,0.0,76,0.00,,,0.00,VWS V14.01,2014-02-24 00:21:00,
2014-02-23 19:22:00,18.8,12.8,29.97,West,260,0.0,0.0,77,0.00,,,0.00,VWS V14.01,2014-02-24 00:22:00,
2014-02-23 19:23:00,18.7,12.7,29.97,WNW,298,0.0,0.0,77,0.00,,,0.00,VWS V14.01,2014-02-24 00:23:00,
2014-02-23 19:24:00,18.7,12.4,29.97,NW,307,0.0,0.0,76,0.00,,,0.00,VWS V14.01,2014-02-24 00:24:00,
2014-02-23 19:25:00,18.7,12.4,29.97,NW,306,0.0,0.0,76,0.00,,,0.00,VWS V14.01,2014-02-24 00:25:00,
2014-02-23 19:26:00,18.7,12.4,29.97,NNW,331,0.0,0.0,76,0.00,,,0.00,VWS V14.01,2014-02-24 00:26:00,
2014-02-23 19:27:00,18.7,12.7,29.97,WNW,293,0.0,0.0,77,0.00,,,0.00,VWS V14.01,2014-02-24 00:27:00,
2014-02-23 19:28:00,18.7,12.7,29.97,West,269,0.0,0.0,77,0.00,,,0.00,VWS V14.01,2014-02-24 00:28:00,
2014-02-23 19:29:00,18.7,12.7,29.97,WNW,294,0.0,0.0,77,0.00,,,0.00,VWS V14.01,2014-02-24 00:29:00,
2014-02-23 19:31:00,18.7,12.7,29.97,NW,305,0.0,0.0,77,0.00,,,0.00,VWS V14.01,2014-02-24 00:31:00,
2014-02-23 19:32:00,18.7,12.7,29.97,WNW,303,0.0,0.0,77,0.00,,,0.00,VWS V14.01,2014-02-24 00:32:00,
2014-02-23 19:33:00,18.7,12.4,29.97,WNW,290,0.0,0.0,76,0.00,,,0.00,VWS V14.01,2014-02-24 00:33:00,
2014-02-23 19:34:00,18.6,12.3,29.97,West,259,0.0,0.0,76,0.00,,,0.00,VWS V14.01,2014-02-24 00:34:00,
2014-02-23 19:35:00,18.6,12.3,29.97,WSW,258,0.0,0.0,76,0.00,,,0.00,VWS V14.01,2014-02-24 00:35:00,
2014-02-23 19:36:00,18.6,12.3,29.97,West,273,0.0,0.0,76,0.00,,,0.00,VWS V14.01,2014-02-24 00:36:00,
2014-02-23 19:37:00,18.6,12.3,29.97,NW,304,0.0,0.0,76,0.00,,,0.00,VWS V14.01,2014-02-24 00:37:00,
2014-02-23 19:38:00,18.6,12.3,29.97,NW,304,0.0,0.0,76,0.00,,,0.00,VWS V14.01,2014-02-24 00:38:00,
2014-02-23 19:39:00,18.6,12.3,29.97,NW,312,0.0,0.0,76,0.00,,,0.00,VWS V14.01,2014-02-24 00:39:00,
2014-02-23 19:40:00,18.6,12.3,29.97,NW,311,0.0,0.0,76,0.00,,,0.00,VWS V14.01,2014-02-24 00:40:00,
2014-02-23 19:41:00,18.6,12.3,29.97,West,266,6.0,0.0,76,0.00,,,0.00,VWS V14.01,2014-02-24 00:41:00,
2014-02-23 19:42:00,18.6,12.0,29.97,WNW,296,3.0,0.0,75,0.00,,,0.00,VWS V14.01,2014-02-24 00:42:00,
2014-02-23 19:43:00,18.6,12.0,29.97,NW,312,0.0,0.0,75,0.00,,,0.00,VWS V14.01,2014-02-24 00:43:00,
2014-02-23 19:44:00,18.6,12.3,29.97,SSE,166,0.0,0.0,76,0.00,,,0.00,VWS V14.01,2014-02-24 00:44:00,
2014-02-23 19:45:00,18.6,12.3,29.97,NW,313,0.0,0.0,76,0.00,,,0.00,VWS V14.01,2014-02-24 00:45:00,
2014-02-23 19:46:00,18.6,12.3,29.97,NW,324,0.0,0.0,76,0.00,,,0.00,VWS V14.01,2014-02-24 00:46:00,
2014-02-23 19:47:00,18.5,11.9,29.97,WNW,292,0.0,0.0,75,0.00,,,0.00,VWS V14.01,2014-02-24 00:47:00,
2014-02-23 19:48:00,18.6,12.0,29.97,WNW,288,0.0,0.0,75,0.00,,,0.00,VWS V14.01,2014-02-24 00:48:00,
2014-02-23 19:49:00,18.6,12.0,29.97,West,281,0.0,0.0,75,0.00,,,0.00,VWS V14.01,2014-02-24 00:49:00,
2014-02-23 19:50:00,18.6,12.0,29.97,WSW,253,3.0,0.0,75,0.00,,,0.00,VWS V14.01,2014-02-24 00:50:00,
2014-02-23 19:51:00,18.6,12.0,29.97,West,277,0.0,0.0,75,0.00,,,0.00,VWS V14.01,2014-02-24 00:51:00,
2014-02-23 19:52:00,18.6,12.0,29.97,NW,325,0.0,0.0,75,0.00,,,0.00,VWS V14.01,2014-02-24 00:52:00,
2014-02-23 19:53:00,18.6,12.0,29.97,WNW,293,0.0,0.0,75,0.00,,,0.00,VWS V14.01,2014-02-24 00:53:00,
2014-02-23 19:54:00,18.5,11.9,29.97,West,277,0.0,0.0,75,0.00,,,0.00,VWS V14.01,2014-02-24 00:54:00,
2014-02-23 19:55:00,18.5,11.9,29.97,West,277,0.0,0.0,75,0.00,,,0.00,VWS V14.01,2014-02-24 00:55:00,
2014-02-23 19:56:00,18.6,12.0,29.97,WNW,288,0.0,0.0,75,0.00,,,0.00,VWS V14.01,2014-02-24 00:56:00,
2014-02-23 19:57:00,18.6,12.0,29.97,West,281,0.0,0.0,75,0.00,,,0.00,VWS V14.01,2014-02-24 00:57:00,
2014-02-23 19:58:00,18.6,12.0,29.97,NW,310,0.0,0.0,75,0.00,,,0.00,VWS V14.01,2014-02-24 00:58:00,
2014-02-23 19:59:00,18.5,11.9,29.97,WNW,285,0.0,0.0,75,0.00,,,0.00,VWS V14.01,2014-02-24 00:59:00,
2014-02-23 20:00:00,18.5,11.9,29.97,WNW,284,0.0,0.0,75,0.00,,,0.00,VWS V14.01,2014-02-24 01:00:00,
2014-02-23 20:01:00,18.6,11.7,29.97,WNW,290,0.0,0.0,74,0.00,,,0.00,VWS V14.01,2014-02-24 01:01:00,
2014-02-23 20:02:00,18.5,11.9,29.97,WNW,294,0.0,0.0,75,0.00,,,0.00,VWS V14.01,2014-02-24 01:02:00,
2014-02-23 20:03:00,18.6,11.7,29.97,North,360,0.0,0.0,74,0.00,,,0.00,VWS V14.01,2014-02-24 01:03:00,
2014-02-23 20:04:00,18.5,11.3,29.97,West,274,2.0,0.0,73,0.00,,,0.00,VWS V14.01,2014-02-24 01:04:00,
2014-02-23 20:05:00,18.5,11.3,29.97,West,280,0.0,0.0,73,0.00,,,0.00,VWS V14.01,2014-02-24 01:05:00,
2014-02-23 20:06:00,18.5,11.3,29.97,SSW,212,1.0,0.0,73,0.00,,,0.00,VWS V14.01,2014-02-24 01:06:00,
2014-02-23 20:07:00,18.6,11.4,29.97,NW,306,0.0,0.0,73,0.00,,,0.00,VWS V14.01,2014-02-24 01:07:00,
2014-02-23 20:08:00,18.6,11.4,29.97,WNW,286,0.0,0.0,73,0.00,,,0.00,VWS V14.01,2014-02-24 01:08:00,
2014-02-23 20:09:00,18.6,11.7,29.97,NW,316,0.0,0.0,74,0.00,,,0.00,VWS V14.01,2014-02-24 01:09:00,
2014-02-23 20:10:00,18.5,11.3,29.97,WNW,287,7.0,0.0,73,0.00,,,0.00,VWS V14.01,2014-02-24 01:10:00,
2014-02-23 20:11:00,18.6,11.7,29.97,NW,304,1.0,0.0,74,0.00,,,0.00,VWS V14.01,2014-02-24 01:11:00,
2014-02-23 20:12:00,18.6,11.4,29.97,SW,220,0.0,0.0,73,0.00,,,0.00,VWS V14.01,2014-02-24 01:12:00,
2014-02-23 20:13:00,18.6,11.4,29.97,West,270,1.0,0.0,73,0.00,,,0.00,VWS V14.01,2014-02-24 01:13:00,
2014-02-23 20:14:00,18.6,11.4,29.97,West,272,0.0,0.0,73,0.00,,,0.00,VWS V14.01,2014-02-24 01:14:00,
2014-02-23 20:15:00,18.6,11.4,29.97,North,360,0.0,0.0,73,0.00,,,0.00,VWS V14.01,2014-02-24 01:15:00,
2014-02-23 20:16:00,18.6,11.4,29.97,NW,310,2.0,0.0,73,0.00,,,0.00,VWS V14.01,2014-02-24 01:16:00,
2014-02-23 20:17:00,18.6,11.4,29.97,NNW,347,0.0,0.0,73,0.00,,,0.00,VWS V14.01,2014-02-24 01:17:00,
2014-02-23 20:18:00,18.6,11.1,29.97,West,266,1.0,0.0,72,0.00,,,0.00,VWS V14.01,2014-02-24 01:18:00,
2014-02-23 20:19:00,18.6,11.1,29.97,WNW,286,1.0,0.0,72,0.00,,,0.00,VWS V14.01,2014-02-24 01:19:00,
2014-02-23 20:20:00,18.6,11.4,29.98,West,272,9.0,0.0,73,0.00,,,0.00,VWS V14.01,2014-02-24 01:20:00,
2014-02-23 20:21:00,18.6,11.4,29.97,NW,312,0.0,0.0,73,0.00,,,0.00,VWS V14.01,2014-02-24 01:21:00,
2014-02-23 20:22:00,18.6,11.4,29.98,WNW,294,7.0,0.0,73,0.00,,,0.00,VWS V14.01,2014-02-24 01:22:00,
2014-02-23 20:23:00,18.5,11.6,29.98,NW,321,1.0,0.0,74,0.00,,,0.00,VWS V14.01,2014-02-24 01:23:00,
2014-02-23 20:24:00,18.5,11.3,29.98,NNW,340,0.0,0.0,73,0.00,,,0.00,VWS V14.01,2014-02-24 01:24:00,
2014-02-23 20:25:00,18.5,11.3,29.98,NW,304,1.0,0.0,73,0.00,,,0.00,VWS V14.01,2014-02-24 01:25:00,
2014-02-23 20:26:00,18.4,11.2,29.98,NNW,338,9.0,0.0,73,0.00,,,0.00,VWS V14.01,2014-02-24 01:26:00,
2014-02-23 20:27:00,18.4,11.2,29.98,WNW,296,7.0,0.0,73,0.00,,,0.00,VWS V14.01,2014-02-24 01:27:00,
2014-02-23 20:28:00,18.3,11.1,29.98,WNW,290,0.0,0.0,73,0.00,,,0.00,VWS V14.01,2014-02-24 01:28:00,
2014-02-23 20:29:00,18.2,11.0,29.98,NNE,18,0.0,0.0,73,0.00,,,0.00,VWS V14.01,2014-02-24 01:29:00,
2014-02-23 20:30:00,18.2,11.3,29.98,WNW,285,0.0,0.0,74,0.00,,,0.00,VWS V14.01,2014-02-24 01:30:00,
2014-02-23 20:31:00,18.1,11.5,29.98,NW,307,0.0,0.0,75,0.00,,,0.00,VWS V14.01,2014-02-24 01:31:00,
2014-02-23 20:32:00,18.1,11.5,29.98,NW,323,0.0,0.0,75,0.00,,,0.00,VWS V14.01,2014-02-24 01:32:00,
2014-02-23 20:33:00,18.0,11.7,29.98,NW,321,0.0,0.0,76,0.00,,,0.00,VWS V14.01,2014-02-24 01:33:00,
2014-02-23 20:34:00,18.0,11.7,29.99,NW,311,0.0,0.0,76,0.00,,,0.00,VWS V14.01,2014-02-24 01:34:00,
2014-02-23 20:35:00,17.8,11.8,29.99,NNW,329,0.0,0.0,77,0.00,,,0.00,VWS V14.01,2014-02-24 01:35:00,
2014-02-23 20:36:00,17.7,12.3,29.99,NNW,329,0.0,0.0,79,0.00,,,0.00,VWS V14.01,2014-02-24 01:36:00,
2014-02-23 20:37:00,17.6,12.5,29.99,NW,326,0.0,0.0,80,0.00,,,0.00,VWS V14.01,2014-02-24 01:37:00,
2014-02-23 20:38:00,17.5,12.4,29.99,NNW,327,8.0,0.0,80,0.00,,,0.00,VWS V14.01,2014-02-24 01:38:00,
2014-02-23 20:39:00,17.4,12.3,29.99,NW,311,6.0,0.0,80,0.00,,,0.00,VWS V14.01,2014-02-24 01:39:00,
2014-02-23 20:40:00,17.2,12.4,29.99,NW,323,0.0,0.0,81,0.00,,,0.00,VWS V14.01,2014-02-24 01:40:00,
2014-02-23 20:41:00,17.0,12.2,29.99,NNW,330,0.0,0.0,81,0.00,,,0.00,VWS V14.01,2014-02-24 01:41:00,
2014-02-23 20:42:00,17.0,12.2,29.99,NNE,28,0.0,0.0,81,0.00,,,0.00,VWS V14.01,2014-02-24 01:42:00,
2014-02-23 20:43:00,16.8,12.0,29.99,WNW,300,0.0,0.0,81,0.00,,,0.00,VWS V14.01,2014-02-24 01:43:00,
2014-02-23 20:44:00,16.7,12.2,29.99,WNW,292,11.0,0.0,82,0.00,,,0.00,VWS V14.01,2014-02-24 01:44:00,
2014-02-23 20:45:00,16.5,12.0,29.99,NNW,340,0.0,0.0,82,0.00,,,0.00,VWS V14.01,2014-02-24 01:45:00,
2014-02-23 20:46:00,16.3,11.5,30.00,NNW,346,0.0,0.0,81,0.00,,,0.00,VWS V14.01,2014-02-24 01:46:00,
2014-02-23 20:47:00,16.2,11.4,30.00,NNW,347,10.0,0.0,81,0.00,,,0.00,VWS V14.01,2014-02-24 01:47:00,
2014-02-23 20:48:00,16.1,11.6,30.00,WNW,287,12.0,0.0,82,0.00,,,0.00,VWS V14.01,2014-02-24 01:48:00,
2014-02-23 20:49:00,16.0,11.2,30.00,NW,314,11.0,0.0,81,0.00,,,0.00,VWS V14.01,2014-02-24 01:49:00,
2014-02-23 20:50:00,15.8,11.0,30.00,NNW,342,11.0,0.0,81,0.00,,,0.00,VWS V14.01,2014-02-24 01:50:00,
2014-02-23 20:51:00,15.5,11.0,30.00,North,355,10.0,0.0,82,0.00,,,0.00,VWS V14.01,2014-02-24 01:51:00,
2014-02-23 20:52:00,15.5,11.0,30.00,North,355,11.0,0.0,82,0.00,,,0.00,VWS V14.01,2014-02-24 01:52:00,
2014-02-23 20:53:00,15.4,10.9,30.00,WNW,302,0.0,0.0,82,0.00,,,0.00,VWS V14.01,2014-02-24 01:53:00,
2014-02-23 20:54:00,15.3,10.8,30.00,NNW,343,1.0,0.0,82,0.00,,,0.00,VWS V14.01,2014-02-24 01:54:00,
2014-02-23 20:55:00,15.2,10.7,30.00,North,360,0.0,0.0,82,0.00,,,0.00,VWS V14.01,2014-02-24 01:55:00,
2014-02-23 20:56:00,15.0,10.8,30.00,NW,324,0.0,0.0,83,0.00,,,0.00,VWS V14.01,2014-02-24 01:56:00,
2014-02-23 20:57:00,15.0,10.8,30.00,NW,324,0.0,0.0,83,0.00,,,0.00,VWS V14.01,2014-02-24 01:57:00,
2014-02-23 20:58:00,14.9,10.7,30.00,NNW,334,1.0,0.0,83,0.00,,,0.00,VWS V14.01,2014-02-24 01:58:00,
2014-02-23 20:59:00,14.9,10.7,30.00,NNW,331,0.0,0.0,83,0.00,,,0.00,VWS V14.01,2014-02-24 01:59:00,
2014-02-23 21:00:00,14.8,10.6,30.00,NE,40,1.0,0.0,83,0.00,,,0.00,VWS V14.01,2014-02-24 02:00:00,
2014-02-23 21:01:00,14.6,10.7,30.00,NW,322,9.0,0.0,84,0.00,,,0.00,VWS V14.01,2014-02-24 02:01:00,
2014-02-23 21:02:00,14.6,10.6,30.00,NW,322,9.0,0.0,84,0.00,,,0.00,VWS V14.01,2014-02-24 02:02:00,
2014-02-23 21:03:00,14.6,10.6,30.00,NW,317,0.0,0.0,84,0.00,,,0.00,VWS V14.01,2014-02-24 02:03:00,
2014-02-23 21:04:00,14.5,10.6,30.00,NNW,333,10.0,0.0,84,0.00,,,0.00,VWS V14.01,2014-02-24 02:04:00,
2014-02-23 21:05:00,14.5,10.6,30.01,NW,326,10.0,0.0,84,0.00,,,0.00,VWS V14.01,2014-02-24 02:05:00,
2014-02-23 21:06:00,14.4,10.5,30.01,NW,322,0.0,0.0,84,0.00,,,0.00,VWS V14.01,2014-02-24 02:06:00,
2014-02-23 21:07:00,14.4,10.5,30.01,WNW,289,0.0,0.0,84,0.00,,,0.00,VWS V14.01,2014-02-24 02:07:00,
2014-02-23 21:08:00,14.4,10.5,30.01,NNE,13,0.0,0.0,84,0.00,,,0.00,VWS V14.01,2014-02-24 02:08:00,
2014-02-23 21:09:00,14.3,10.4,30.01,NW,307,7.0,0.0,84,0.00,,,0.00,VWS V14.01,2014-02-24 02:09:00,
2014-02-23 21:10:00,14.3,10.4,30.01,NNW,327,0.0,0.0,84,0.00,,,0.00,VWS V14.01,2014-02-24 02:10:00,
2014-02-23 21:11:00,14.3,10.1,30.01,NNW,335,0.0,0.0,83,0.00,,,0.00,VWS V14.01,2014-02-24 02:11:00,
2014-02-23 21:12:00,14.3,10.1,30.01,NNW,335,0.0,0.0,83,0.00,,,0.00,VWS V14.01,2014-02-24 02:12:00,
2014-02-23 21:13:00,14.2,10.0,30.01,NW,306,0.0,0.0,83,0.00,,,0.00,VWS V14.01,2014-02-24 02:13:00,
2014-02-23 21:14:00,14.2,10.0,30.01,North,5,0.0,0.0,83,0.00,,,0.00,VWS V14.01,2014-02-24 02:14:00,
2014-02-23 21:15:00,14.2,10.0,30.01,NW,315,4.0,0.0,83,0.00,,,0.00,VWS V14.01,2014-02-24 02:15:00,
2014-02-23 21:16:00,14.1,9.6,30.01,NNE,13,0.0,0.0,82,0.00,,,0.00,VWS V14.01,2014-02-24 02:16:00,
2014-02-23 21:17:00,14.1,9.6,30.01,NNE,13,0.0,0.0,82,0.00,,,0.00,VWS V14.01,2014-02-24 02:17:00,
2014-02-23 21:18:00,14.1,9.6,30.01,NW,321,0.0,0.0,82,0.00,,,0.00,VWS V14.01,2014-02-24 02:18:00,
2014-02-23 21:19:00,14.1,9.4,30.01,NW,323,0.0,0.0,81,0.00,,,0.00,VWS V14.01,2014-02-24 02:19:00,
2014-02-23 21:20:00,14.1,9.4,30.01,NNW,333,9.0,0.0,81,0.00,,,0.00,VWS V14.01,2014-02-24 02:20:00,
2014-02-23 21:21:00,14.0,9.0,30.01,NW,321,14.0,0.0,80,0.00,,,0.00,VWS V14.01,2014-02-24 02:21:00,
2014-02-23 21:22:00,14.0,9.0,30.01,NW,321,14.0,0.0,80,0.00,,,0.00,VWS V14.01,2014-02-24 02:22:00,
2014-02-23 21:23:00,13.9,8.9,30.01,NNE,14,0.0,0.0,80,0.00,,,0.00,VWS V14.01,2014-02-24 02:23:00,
2014-02-23 21:24:00,13.9,8.9,30.01,West,272,2.0,0.0,80,0.00,,,0.00,VWS V14.01,2014-02-24 02:24:00,
2014-02-23 21:25:00,13.9,8.9,30.01,NNW,334,1.0,0.0,80,0.00,,,0.00,VWS V14.01,2014-02-24 02:25:00,
2014-02-23 21:26:00,13.9,8.9,30.01,NNW,330,0.0,0.0,80,0.00,,,0.00,VWS V14.01,2014-02-24 02:26:00,
2014-02-23 21:27:00,13.9,8.9,30.01,NNW,330,0.0,0.0,80,0.00,,,0.00,VWS V14.01,2014-02-24 02:27:00,
2014-02-23 21:28:00,13.9,8.9,30.01,NW,312,0.0,0.0,80,0.00,,,0.00,VWS V14.01,2014-02-24 02:28:00,
2014-02-23 21:29:00,13.9,8.9,30.01,NW,323,0.0,0.0,80,0.00,,,0.00,VWS V14.01,2014-02-24 02:29:00,
2014-02-23 21:30:00,13.9,8.9,30.01,NNW,338,2.0,8.0,80,0.00,,,0.00,VWS V14.01,2014-02-24 02:30:00,
2014-02-23 21:31:00,13.9,8.9,30.01,NW,323,0.0,0.0,80,0.00,,,0.00,VWS V14.01,2014-02-24 02:31:00,
2014-02-23 21:32:00,13.8,8.5,30.01,NW,315,1.0,8.0,79,0.00,,,0.00,VWS V14.01,2014-02-24 02:32:00,
2014-02-23 21:33:00,13.8,8.5,30.01,North,0,1.0,8.0,79,0.00,,,0.00,VWS V14.01,2014-02-24 02:33:00,
2014-02-23 21:34:00,13.8,8.5,30.01,North,0,2.0,8.0,79,0.00,,,0.00,VWS V14.01,2014-02-24 02:34:00,
2014-02-23 21:35:00,13.8,8.5,30.01,NW,315,3.0,9.0,79,0.00,,,0.00,VWS V14.01,2014-02-24 02:35:00,
2014-02-23 21:36:00,13.7,8.1,30.01,NW,315,2.0,10.0,78,0.00,,,0.00,VWS V14.01,2014-02-24 02:36:00,
2014-02-23 21:37:00,13.8,8.5,30.01,NW,315,3.0,13.0,79,0.00,,,0.00,VWS V14.01,2014-02-24 02:37:00,
2014-02-23 21:38:00,13.8,8.5,30.01,NNW,338,3.0,9.0,79,0.00,,,0.00,VWS V14.01,2014-02-24 02:38:00,
2014-02-23 21:39:00,13.8,8.5,30.01,NNW,338,3.0,9.0,79,0.00,,,0.00,VWS V14.01,2014-02-24 02:39:00,
2014-02-23 21:40:00,13.7,8.4,30.01,NNW,329,10.0,10.0,79,0.00,,,0.00,VWS V14.01,2014-02-24 02:40:00,
2014-02-23 21:41:00,13.7,8.1,30.01,WNW,294,0.0,9.0,78,0.00,,,0.00,VWS V14.01,2014-02-24 02:41:00,
2014-02-23 21:42:00,13.7,8.1,30.01,NW,307,0.0,9.0,78,0.00,,,0.00,VWS V14.01,2014-02-24 02:42:00,
2014-02-23 21:43:00,13.7,8.1,30.01,NNW,340,0.0,9.0,78,0.00,,,0.00,VWS V14.01,2014-02-24 02:43:00,
2014-02-23 21:44:00,13.8,8.2,30.01,NW,312,0.0,9.0,78,0.00,,,0.00,VWS V14.01,2014-02-24 02:44:00,
2014-02-23 21:45:00,13.7,8.1,30.01,NNW,342,0.0,9.0,78,0.00,,,0.00,VWS V14.01,2014-02-24 02:45:00,
2014-02-23 21:46:00,13.7,8.1,30.01,NW,308,0.0,9.0,78,0.00,,,0.00,VWS V14.01,2014-02-24 02:46:00,
2014-02-23 21:47:00,13.8,8.5,30.01,NW,310,0.0,9.0,79,0.00,,,0.00,VWS V14.01,2014-02-24 02:47:00,
2014-02-23 21:48:00,13.8,8.5,30.01,NW,315,0.0,9.0,79,0.00,,,0.00,VWS V14.01,2014-02-24 02:48:00,
2014-02-23 21:49:00,13.8,8.2,30.01,NE,37,0.0,9.0,78,0.00,,,0.00,VWS V14.01,2014-02-24 02:49:00,
2014-02-23 21:50:00,13.8,8.5,30.01,NW,317,0.0,9.0,79,0.00,,,0.00,VWS V14.01,2014-02-24 02:50:00,
2014-02-23 21:51:00,13.8,8.2,30.01,NNE,12,0.0,9.0,78,0.00,,,0.00,VWS V14.01,2014-02-24 02:51:00,
2014-02-23 21:52:00,13.8,8.2,30.02,NNW,341,0.0,9.0,78,0.00,,,0.00,VWS V14.01,2014-02-24 02:52:00,
2014-02-23 21:53:00,13.8,8.2,30.01,North,355,0.0,9.0,78,0.00,,,0.00,VWS V14.01,2014-02-24 02:53:00,
2014-02-23 21:54:00,13.8,8.2,30.02,WNW,287,0.0,9.0,78,0.00,,,0.00,VWS V14.01,2014-02-24 02:54:00,
2014-02-23 21:55:00,13.8,8.2,30.02,WNW,287,0.0,9.0,78,0.00,,,0.00,VWS V14.01,2014-02-24 02:55:00,
2014-02-23 21:57:00,13.8,8.5,30.01,WNW,293,0.0,9.0,79,0.00,,,0.00,VWS V14.01,2014-02-24 02:57:00,
2014-02-23 21:58:00,13.8,8.5,30.01,NW,315,0.0,9.0,79,0.00,,,0.00,VWS V14.01,2014-02-24 02:58:00,
2014-02-23 21:59:00,13.8,8.2,30.02,North,355,0.0,9.0,78,0.00,,,0.00,VWS V14.01,2014-02-24 02:59:00,
2014-02-23 22:00:00,13.8,8.2,30.01,NNW,333,0.0,9.0,78,0.00,,,0.00,VWS V14.01,2014-02-24 03:00:00,
2014-02-23 22:01:00,13.8,8.2,30.01,NW,312,0.0,9.0,78,0.00,,,0.00,VWS V14.01,2014-02-24 03:01:00,
2014-02-23 22:02:00,13.8,8.2,30.02,WNW,286,0.0,9.0,78,0.00,,,0.00,VWS V14.01,2014-02-24 03:02:00,
2014-02-23 22:03:00,13.8,8.2,30.02,WNW,299,0.0,9.0,78,0.00,,,0.00,VWS V14.01,2014-02-24 03:03:00,
2014-02-23 22:04:00,13.8,8.2,30.02,NW,305,0.0,9.0,78,0.00,,,0.00,VWS V14.01,2014-02-24 03:04:00,
2014-02-23 22:05:00,13.8,7.9,30.02,WNW,296,1.0,9.0,77,0.00,,,0.00,VWS V14.01,2014-02-24 03:05:00,
2014-02-23 22:06:00,13.8,7.9,30.02,WNW,302,0.0,9.0,77,0.00,,,0.00,VWS V14.01,2014-02-24 03:06:00,
2014-02-23 22:07:00,13.8,7.9,30.02,WNW,285,0.0,9.0,77,0.00,,,0.00,VWS V14.01,2014-02-24 03:07:00,
2014-02-23 22:08:00,13.8,7.9,30.02,WNW,285,0.0,9.0,77,0.00,,,0.00,VWS V14.01,2014-02-24 03:08:00,
2014-02-23 22:09:00,13.8,7.9,30.02,NNW,337,0.0,9.0,77,0.00,,,0.00,VWS V14.01,2014-02-24 03:09:00,
2014-02-23 22:10:00,13.8,7.9,30.02,NNW,346,0.0,9.0,77,0.00,,,0.00,VWS V14.01,2014-02-24 03:10:00,
2014-02-23 22:11:00,13.8,7.9,30.02,NNW,346,0.0,9.0,77,0.00,,,0.00,VWS V14.01,2014-02-24 03:11:00,
2014-02-23 22:12:00,13.8,7.9,30.02,NNW,335,0.0,9.0,77,0.00,,,0.00,VWS V14.01,2014-02-24 03:12:00,
2014-02-23 22:13:00,13.8,7.9,30.02,NW,322,0.0,9.0,77,0.00,,,0.00,VWS V14.01,2014-02-24 03:13:00,
2014-02-23 22:14:00,13.8,7.9,30.02,NW,326,0.0,9.0,77,0.00,,,0.00,VWS V14.01,2014-02-24 03:14:00,
2014-02-23 22:15:00,13.8,7.7,30.02,NNW,328,0.0,9.0,76,0.00,,,0.00,VWS V14.01,2014-02-24 03:15:00,
2014-02-23 22:16:00,13.8,7.7,30.02,NNW,328,0.0,9.0,76,0.00,,,0.00,VWS V14.01,2014-02-24 03:16:00,
2014-02-23 22:17:00,13.8,7.9,30.02,NW,326,0.0,9.0,77,0.00,,,0.00,VWS V14.01,2014-02-24 03:17:00,
2014-02-23 22:18:00,13.7,7.8,30.02,WNW,299,0.0,9.0,77,0.00,,,0.00,VWS V14.01,2014-02-24 03:18:00,
2014-02-23 22:19:00,13.7,7.8,30.02,WNW,299,0.0,9.0,77,0.00,,,0.00,VWS V14.01,2014-02-24 03:19:00,
2014-02-23 22:20:00,13.7,7.8,30.02,NW,307,0.0,9.0,77,0.00,,,0.00,VWS V14.01,2014-02-24 03:20:00,
2014-02-23 22:21:00,13.7,7.8,30.02,NW,307,0.0,9.0,77,0.00,,,0.00,VWS V14.01,2014-02-24 03:21:00,
2014-02-23 22:22:00,13.8,7.7,30.02,NNW,328,0.0,9.0,76,0.00,,,0.00,VWS V14.01,2014-02-24 03:22:00,
2014-02-23 22:23:00,13.7,7.6,30.02,NNW,329,0.0,9.0,76,0.00,,,0.00,VWS V14.01,2014-02-24 03:23:00,
2014-02-23 22:24:00,13.7,7.8,30.02,NW,319,8.0,9.0,77,0.00,,,0.00,VWS V14.01,2014-02-24 03:24:00,
2014-02-23 22:25:00,13.7,7.8,30.02,NW,320,0.0,9.0,77,0.00,,,0.00,VWS V14.01,2014-02-24 03:25:00,
2014-02-23 22:26:00,13.7,7.8,30.02,NW,320,0.0,9.0,77,0.00,,,0.00,VWS V14.01,2014-02-24 03:26:00,
2014-02-23 22:27:00,13.7,7.6,30.02,WNW,302,0.0,9.0,76,0.00,,,0.00,VWS V14.01,2014-02-24 03:27:00,
2014-02-23 22:28:00,13.7,7.8,30.02,NNW,329,0.0,9.0,77,0.00,,,0.00,VWS V14.01,2014-02-24 03:28:00,
2014-02-23 22:29:00,13.7,7.8,30.02,North,360,0.0,9.0,77,0.00,,,0.00,VWS V14.01,2014-02-24 03:29:00,
2014-02-23 22:30:00,13.7,7.8,30.02,NNW,338,0.0,9.0,77,0.00,,,0.00,VWS V14.01,2014-02-24 03:30:00,
2014-02-23 22:31:00,13.7,7.8,30.02,NNW,338,0.0,9.0,77,0.00,,,0.00,VWS V14.01,2014-02-24 03:31:00,
2014-02-23 22:32:00,13.7,7.8,30.02,NNW,346,0.0,9.0,77,0.00,,,0.00,VWS V14.01,2014-02-24 03:32:00,
2014-02-23 22:33:00,13.7,7.8,30.02,NNE,22,0.0,9.0,77,0.00,,,0.00,VWS V14.01,2014-02-24 03:33:00,
2014-02-23 22:34:00,13.7,7.8,30.02,NNW,335,6.0,9.0,77,0.00,,,0.00,VWS V14.01,2014-02-24 03:34:00,
2014-02-23 22:35:00,13.7,7.8,30.01,NNE,32,0.0,9.0,77,0.00,,,0.00,VWS V14.01,2014-02-24 03:35:00,
2014-02-23 22:36:00,13.7,7.8,30.01,NNE,32,0.0,9.0,77,0.00,,,0.00,VWS V14.01,2014-02-24 03:36:00,
2014-02-23 22:37:00,13.7,7.8,30.01,WNW,282,0.0,9.0,77,0.00,,,0.00,VWS V14.01,2014-02-24 03:37:00,
2014-02-23 22:38:00,13.7,7.6,30.01,North,351,0.0,9.0,76,0.00,,,0.00,VWS V14.01,2014-02-24 03:38:00,
2014-02-23 22:39:00,13.7,7.6,30.01,NNW,341,0.0,9.0,76,0.00,,,0.00,VWS V14.01,2014-02-24 03:39:00,
2014-02-23 22:40:00,13.7,7.6,30.01,West,275,0.0,9.0,76,0.00,,,0.00,VWS V14.01,2014-02-24 03:40:00,
2014-02-23 22:41:00,13.7,7.6,30.01,NW,320,0.0,9.0,76,0.00,,,0.00,VWS V14.01,2014-02-24 03:41:00,
2014-02-23 22:42:00,13.7,7.6,30.01,NW,321,0.0,9.0,76,0.00,,,0.00,VWS V14.01,2014-02-24 03:42:00,
2014-02-23 22:43:00,13.7,7.6,30.01,NNW,331,0.0,9.0,76,0.00,,,0.00,VWS V14.01,2014-02-24 03:43:00,
2014-02-23 22:44:00,13.7,7.6,30.02,WNW,290,3.0,9.0,76,0.00,,,0.00,VWS V14.01,2014-02-24 03:44:00,
2014-02-23 22:45:00,13.6,7.2,30.01,North,10,0.0,9.0,75,0.00,,,0.00,VWS V14.01,2014-02-24 03:45:00,
2014-02-23 22:46:00,13.6,7.2,30.01,West,263,0.0,9.0,75,0.00,,,0.00,VWS V14.01,2014-02-24 03:46:00,
2014-02-23 22:47:00,13.6,7.2,30.01,SW,232,0.0,9.0,75,0.00,,,0.00,VWS V14.01,2014-02-24 03:47:00,
2014-02-23 22:48:00,13.6,7.2,30.01,West,276,0.0,9.0,75,0.00,,,0.00,VWS V14.01,2014-02-24 03:48:00,
2014-02-23 22:49:00,13.6,7.2,30.01,NW,312,0.0,9.0,75,0.00,,,0.00,VWS V14.01,2014-02-24 03:49:00,
2014-02-23 22:50:00,13.6,6.9,30.01,NNW,341,1.0,9.0,74,0.00,,,0.00,VWS V14.01,2014-02-24 03:50:00,
2014-02-23 22:51:00,13.6,6.9,30.01,NW,313,0.0,9.0,74,0.00,,,0.00,VWS V14.01,2014-02-24 03:51:00,
2014-02-23 22:52:00,13.6,6.9,30.01,NNE,14,0.0,9.0,74,0.00,,,0.00,VWS V14.01,2014-02-24 03:52:00,
2014-02-23 22:53:00,13.6,6.9,30.01,WNW,300,0.0,9.0,74,0.00,,,0.00,VWS V14.01,2014-02-24 03:53:00,
2014-02-23 22:54:00,13.5,6.8,30.01,WNW,294,1.0,9.0,74,0.00,,,0.00,VWS V14.01,2014-02-24 03:54:00,
2014-02-23 22:55:00,13.5,6.5,30.01,NW,316,8.0,9.0,73,0.00,,,0.00,VWS V14.01,2014-02-24 03:55:00,
2014-02-23 22:56:00,13.5,6.8,30.01,NW,306,1.0,9.0,74,0.00,,,0.00,VWS V14.01,2014-02-24 03:56:00,
2014-02-23 22:57:00,13.5,6.5,30.01,WNW,297,5.0,9.0,73,0.00,,,0.00,VWS V14.01,2014-02-24 03:57:00,
2014-02-23 22:58:00,13.5,6.5,30.01,NNW,328,0.0,9.0,73,0.00,,,0.00,VWS V14.01,2014-02-24 03:58:00,
2014-02-23 22:59:00,13.4,6.4,30.01,West,275,0.0,9.0,73,0.00,,,0.00,VWS V14.01,2014-02-24 03:59:00,
2014-02-23 23:00:00,13.5,6.5,30.01,NW,314,0.0,9.0,73,0.00,,,0.00,VWS V14.01,2014-02-24 04:00:00,
2014-02-23 23:01:00,13.4,6.4,30.01,NNE,23,0.0,9.0,73,0.00,,,0.00,VWS V14.01,2014-02-24 04:01:00,
2014-02-23 23:02:00,13.4,6.4,30.01,NW,307,8.0,9.0,73,0.00,,,0.00,VWS V14.01,2014-02-24 04:02:00,
2014-02-23 23:03:00,13.4,6.4,30.01,West,276,0.0,9.0,73,0.00,,,0.00,VWS V14.01,2014-02-24 04:03:00,
2014-02-23 23:04:00,13.4,6.4,30.01,NW,319,0.0,9.0,73,0.00,,,0.00,VWS V14.01,2014-02-24 04:04:00,
2014-02-23 23:05:00,13.3,6.6,30.01,North,5,8.0,9.0,74,0.00,,,0.00,VWS V14.01,2014-02-24 04:05:00,
2014-02-23 23:06:00,13.4,6.7,30.01,WNW,302,0.0,9.0,74,0.00,,,0.00,VWS V14.01,2014-02-24 04:06:00,
2014-02-23 23:07:00,13.3,6.6,30.01,NW,323,0.0,9.0,74,0.00,,,0.00,VWS V14.01,2014-02-24 04:07:00,
2014-02-23 23:08:00,13.3,6.3,30.01,NW,319,0.0,9.0,73,0.00,,,0.00,VWS V14.01,2014-02-24 04:08:00,
2014-02-23 23:09:00,13.2,6.2,30.01,WNW,292,12.0,12.0,73,0.00,,,0.00,VWS V14.01,2014-02-24 04:09:00,
2014-02-23 23:10:00,13.2,6.5,30.01,WNW,288,0.0,9.0,74,0.00,,,0.00,VWS V14.01,2014-02-24 04:10:00,
2014-02-23 23:11:00,13.2,6.5,30.01,NNW,345,0.0,9.0,74,0.00,,,0.00,VWS V14.01,2014-02-24 04:11:00,
2014-02-23 23:12:00,13.2,6.5,30.01,WNW,284,0.0,9.0,74,0.00,,,0.00,VWS V14.01,2014-02-24 04:12:00,
2014-02-23 23:13:00,13.2,6.5,30.01,NW,311,0.0,9.0,74,0.00,,,0.00,VWS V14.01,2014-02-24 04:13:00,
2014-02-23 23:14:00,13.2,6.5,30.01,NW,315,1.0,9.0,74,0.00,,,0.00,VWS V14.01,2014-02-24 04:14:00,
2014-02-23 23:15:00,13.1,6.4,30.01,North,5,8.0,9.0,74,0.00,,,0.00,VWS V14.01,2014-02-24 04:15:00,
2014-02-23 23:16:00,13.1,6.7,30.01,North,5,0.0,9.0,75,0.00,,,0.00,VWS V14.01,2014-02-24 04:16:00,
2014-02-23 23:17:00,13.1,6.7,30.01,West,271,0.0,9.0,75,0.00,,,0.00,VWS V14.01,2014-02-24 04:17:00,
2014-02-23 23:18:00,13.1,6.7,30.01,SW,234,0.0,9.0,75,0.00,,,0.00,VWS V14.01,2014-02-24 04:18:00,
2014-02-23 23:19:00,13.1,6.7,30.01,WNW,290,1.0,9.0,75,0.00,,,0.00,VWS V14.01,2014-02-24 04:19:00,
2014-02-23 23:20:00,13.1,6.7,30.01,NNW,338,0.0,9.0,75,0.00,,,0.00,VWS V14.01,2014-02-24 04:20:00,
2014-02-23 23:21:00,13.1,6.7,30.01,NNW,333,0.0,9.0,75,0.00,,,0.00,VWS V14.01,2014-02-24 04:21:00,
2014-02-23 23:22:00,13.1,6.7,30.01,NW,317,0.0,9.0,75,0.00,,,0.00,VWS V14.01,2014-02-24 04:22:00,
2014-02-23 23:23:00,13.1,6.7,30.01,NW,307,5.0,9.0,75,0.00,,,0.00,VWS V14.01,2014-02-24 04:23:00,
2014-02-23 23:24:00,13.1,6.7,30.01,NNW,327,0.0,9.0,75,0.00,,,0.00,VWS V14.01,2014-02-24 04:24:00,
2014-02-23 23:25:00,13.1,6.7,30.01,WNW,293,0.0,9.0,75,0.00,,,0.00,VWS V14.01,2014-02-24 04:25:00,
2014-02-23 23:26:00,13.2,6.8,30.01,NW,318,0.0,9.0,75,0.00,,,0.00,VWS V14.01,2014-02-24 04:26:00,
2014-02-23 23:27:00,13.2,6.8,30.01,NW,318,0.0,9.0,75,0.00,,,0.00,VWS V14.01,2014-02-24 04:27:00,
2014-02-23 23:28:00,13.2,7.1,30.01,NW,316,0.0,9.0,76,0.00,,,0.00,VWS V14.01,2014-02-24 04:28:00,
2014-02-23 23:29:00,13.2,6.8,30.01,North,355,0.0,9.0,75,0.00,,,0.00,VWS V14.01,2014-02-24 04:29:00,
2014-02-23 23:30:00,13.2,7.1,30.01,WNW,297,0.0,9.0,76,0.00,,,0.00,VWS V14.01,2014-02-24 04:30:00,
2014-02-23 23:31:00,13.2,7.1,30.01,NNW,342,2.0,9.0,76,0.00,,,0.00,VWS V14.01,2014-02-24 04:31:00,
2014-02-23 23:32:00,13.2,7.1,30.01,NNW,327,1.0,9.0,76,0.00,,,0.00,VWS V14.01,2014-02-24 04:32:00,
2014-02-23 23:33:00,13.3,7.2,30.01,WNW,296,2.0,9.0,76,0.00,,,0.00,VWS V14.01,2014-02-24 04:33:00,
2014-02-23 23:34:00,13.3,7.2,30.01,NW,319,10.0,10.0,76,0.00,,,0.00,VWS V14.01,2014-02-24 04:34:00,
2014-02-23 23:35:00,13.3,7.2,30.01,North,350,6.0,9.0,76,0.00,,,0.00,VWS V14.01,2014-02-24 04:35:00,
2014-02-23 23:36:00,13.3,7.2,30.01,NW,314,0.0,9.0,76,0.00,,,0.00,VWS V14.01,2014-02-24 04:36:00,
2014-02-23 23:37:00,13.3,7.2,30.01,NW,314,0.0,9.0,76,0.00,,,0.00,VWS V14.01,2014-02-24 04:37:00,
2014-02-23 23:38:00,13.3,7.2,30.01,WNW,299,0.0,9.0,76,0.00,,,0.00,VWS V14.01,2014-02-24 04:38:00,
2014-02-23 23:39:00,13.4,7.3,30.01,NW,320,0.0,9.0,76,0.00,,,0.00,VWS V14.01,2014-02-24 04:39:00,
2014-02-23 23:40:00,13.4,7.6,30.01,West,277,3.0,9.0,77,0.00,,,0.00,VWS V14.01,2014-02-24 04:40:00,
2014-02-23 23:41:00,13.4,7.6,30.01,WNW,297,0.0,9.0,77,0.00,,,0.00,VWS V14.01,2014-02-24 04:41:00,
2014-02-23 23:42:00,13.4,7.6,30.01,WNW,297,0.0,9.0,77,0.00,,,0.00,VWS V14.01,2014-02-24 04:42:00,
2014-02-23 23:43:00,13.4,7.6,30.01,North,5,0.0,9.0,77,0.00,,,0.00,VWS V14.01,2014-02-24 04:43:00,
2014-02-23 23:44:00,13.4,7.6,30.01,NNW,341,0.0,9.0,77,0.00,,,0.00,VWS V14.01,2014-02-24 04:44:00,
2014-02-23 23:45:00,13.4,7.6,30.01,NNW,340,0.0,9.0,77,0.00,,,0.00,VWS V14.01,2014-02-24 04:45:00,
2014-02-23 23:46:00,13.4,7.8,30.01,WSW,248,0.0,9.0,78,0.00,,,0.00,VWS V14.01,2014-02-24 04:46:00,
2014-02-23 23:47:00,13.4,7.8,30.01,WSW,248,0.0,9.0,78,0.00,,,0.00,VWS V14.01,2014-02-24 04:47:00,
2014-02-23 23:48:00,13.4,7.8,30.01,WSW,242,6.0,9.0,78,0.00,,,0.00,VWS V14.01,2014-02-24 04:48:00,
2014-02-23 23:49:00,13.4,7.8,30.01,NW,316,1.0,9.0,78,0.00,,,0.00,VWS V14.01,2014-02-24 04:49:00,
2014-02-23 23:50:00,13.4,8.1,30.01,NNW,331,0.0,9.0,79,0.00,,,0.00,VWS V14.01,2014-02-24 04:50:00,
2014-02-23 23:51:00,13.4,8.1,30.01,NNW,329,1.0,9.0,79,0.00,,,0.00,VWS V14.01,2014-02-24 04:51:00,
2014-02-23 23:52:00,13.4,8.1,30.01,NNW,329,1.0,9.0,79,0.00,,,0.00,VWS V14.01,2014-02-24 04:52:00,
2014-02-23 23:53:00,13.5,8.2,30.01,WNW,301,0.0,9.0,79,0.00,,,0.00,VWS V14.01,2014-02-24 04:53:00,
2014-02-23 23:54:00,13.5,8.2,30.01,NW,313,0.0,9.0,79,0.00,,,0.00,VWS V14.01,2014-02-24 04:54:00,
2014-02-23 23:56:00,13.5,8.5,30.01,NW,305,0.0,9.0,80,0.00,,,0.00,VWS V14.01,2014-02-24 04:56:00,
2014-02-23 23:57:00,13.5,8.5,30.01,NW,305,0.0,9.0,80,0.00,,,0.00,VWS V14.01,2014-02-24 04:57:00,
2014-02-23 23:58:00,13.5,8.5,30.01,WNW,294,0.0,9.0,80,0.00,,,0.00,VWS V14.01,2014-02-24 04:58:00,
2014-02-23 23:59:00,13.5,8.5,30.01,West,279,6.0,9.0,80,0.00,,,0.00,VWS V14.01,2014-02-24 04:59:00,